﻿<?xml version="1.0" encoding="utf-8"?><gpx creator="Garmin Desktop App" version="1.1" xsi:schemaLocation="http://www.topografix.com/GPX/1/1 http://www.topografix.com/GPX/1/1/gpx.xsd http://www.garmin.com/xmlschemas/WaypointExtension/v1 http://www8.garmin.com/xmlschemas/WaypointExtensionv1.xsd http://www.garmin.com/xmlschemas/TrackPointExtension/v1 http://www.garmin.com/xmlschemas/TrackPointExtensionv1.xsd http://www.garmin.com/xmlschemas/GpxExtensions/v3 http://www8.garmin.com/xmlschemas/GpxExtensionsv3.xsd http://www.garmin.com/xmlschemas/ActivityExtension/v1 http://www8.garmin.com/xmlschemas/ActivityExtensionv1.xsd http://www.garmin.com/xmlschemas/AdventuresExtensions/v1 http://www8.garmin.com/xmlschemas/AdventuresExtensionv1.xsd http://www.garmin.com/xmlschemas/PressureExtension/v1 http://www.garmin.com/xmlschemas/PressureExtensionv1.xsd http://www.garmin.com/xmlschemas/TripExtensions/v1 http://www.garmin.com/xmlschemas/TripExtensionsv1.xsd http://www.garmin.com/xmlschemas/TripMetaDataExtensions/v1 http://www.garmin.com/xmlschemas/TripMetaDataExtensionsv1.xsd http://www.garmin.com/xmlschemas/ViaPointTransportationModeExtensions/v1 http://www.garmin.com/xmlschemas/ViaPointTransportationModeExtensionsv1.xsd http://www.garmin.com/xmlschemas/CreationTimeExtension/v1 http://www.garmin.com/xmlschemas/CreationTimeExtensionsv1.xsd http://www.garmin.com/xmlschemas/AccelerationExtension/v1 http://www.garmin.com/xmlschemas/AccelerationExtensionv1.xsd http://www.garmin.com/xmlschemas/PowerExtension/v1 http://www.garmin.com/xmlschemas/PowerExtensionv1.xsd http://www.garmin.com/xmlschemas/VideoExtension/v1 http://www.garmin.com/xmlschemas/VideoExtensionv1.xsd" xmlns="http://www.topografix.com/GPX/1/1" xmlns:xsi="http://www.w3.org/2001/XMLSchema-instance" xmlns:wptx1="http://www.garmin.com/xmlschemas/WaypointExtension/v1" xmlns:gpxtrx="http://www.garmin.com/xmlschemas/GpxExtensions/v3" xmlns:gpxtpx="http://www.garmin.com/xmlschemas/TrackPointExtension/v1" xmlns:gpxx="http://www.garmin.com/xmlschemas/GpxExtensions/v3" xmlns:trp="http://www.garmin.com/xmlschemas/TripExtensions/v1" xmlns:adv="http://www.garmin.com/xmlschemas/AdventuresExtensions/v1" xmlns:prs="http://www.garmin.com/xmlschemas/PressureExtension/v1" xmlns:tmd="http://www.garmin.com/xmlschemas/TripMetaDataExtensions/v1" xmlns:vptm="http://www.garmin.com/xmlschemas/ViaPointTransportationModeExtensions/v1" xmlns:ctx="http://www.garmin.com/xmlschemas/CreationTimeExtension/v1" xmlns:gpxacc="http://www.garmin.com/xmlschemas/AccelerationExtension/v1" xmlns:gpxpx="http://www.garmin.com/xmlschemas/PowerExtension/v1" xmlns:vidx1="http://www.garmin.com/xmlschemas/VideoExtension/v1">

  <metadata>
    <link href="http://www.garmin.com">
      <text>Garmin International</text>
    </link>
    <time>2021-02-20T10:47:58Z</time>
    <bounds maxlat="45.825877469033003" maxlon="7.01553518883884" minlat="45.796626219525933" minlon="6.975054452195764" />
  </metadata>

  <trk>
    <name>tete de bernarde2013-09-01</name>
    <extensions>
      <gpxx:TrackExtension>
        <gpxx:DisplayColor>Yellow</gpxx:DisplayColor>
      </gpxx:TrackExtension>
    </extensions>
    <trkseg>
      <trkpt lat="45.796649772673845" lon="6.975279673933983">
        <ele>1287.8199999999999</ele>
        <time>2013-09-01T07:10:45Z</time>
      </trkpt>
      <trkpt lat="45.796649102121592" lon="6.975279254838824">
        <ele>1282.54</ele>
        <time>2013-09-01T07:10:46Z</time>
      </trkpt>
      <trkpt lat="45.796648599207401" lon="6.975278500467539">
        <ele>1282.54</ele>
        <time>2013-09-01T07:10:47Z</time>
      </trkpt>
      <trkpt lat="45.796640552580357" lon="6.975270370021462">
        <ele>1282.54</ele>
        <time>2013-09-01T07:11:14Z</time>
      </trkpt>
      <trkpt lat="45.796626219525933" lon="6.97528881020844">
        <ele>1282.54</ele>
        <time>2013-09-01T07:11:29Z</time>
      </trkpt>
      <trkpt lat="45.796649688854814" lon="6.975267101079226">
        <ele>1282.54</ele>
        <time>2013-09-01T07:11:50Z</time>
      </trkpt>
      <trkpt lat="45.796652706339955" lon="6.975278332829475">
        <ele>1282.0599999999999</ele>
        <time>2013-09-01T07:12:14Z</time>
      </trkpt>
      <trkpt lat="45.796679947525263" lon="6.975285960361362">
        <ele>1281.5699999999999</ele>
        <time>2013-09-01T07:12:24Z</time>
      </trkpt>
      <trkpt lat="45.796700902283192" lon="6.975318985059857">
        <ele>1282.0599999999999</ele>
        <time>2013-09-01T07:12:38Z</time>
      </trkpt>
      <trkpt lat="45.796733004972339" lon="6.975381849333644">
        <ele>1282.54</ele>
        <time>2013-09-01T07:12:50Z</time>
      </trkpt>
      <trkpt lat="45.796737615019083" lon="6.975389225408435">
        <ele>1283.02</ele>
        <time>2013-09-01T07:13:02Z</time>
      </trkpt>
      <trkpt lat="45.796756558120251" lon="6.975382855162025">
        <ele>1283.02</ele>
        <time>2013-09-01T07:13:06Z</time>
      </trkpt>
      <trkpt lat="45.796885555610061" lon="6.97549844160676">
        <ele>1284.46</ele>
        <time>2013-09-01T07:13:21Z</time>
      </trkpt>
      <trkpt lat="45.796999214217067" lon="6.975578237324953">
        <ele>1286.3800000000001</ele>
        <time>2013-09-01T07:13:34Z</time>
      </trkpt>
      <trkpt lat="45.797038106247783" lon="6.975602544844151">
        <ele>1286.8599999999999</ele>
        <time>2013-09-01T07:13:38Z</time>
      </trkpt>
      <trkpt lat="45.797052439302206" lon="6.97561863809824">
        <ele>1286.3800000000001</ele>
        <time>2013-09-01T07:13:48Z</time>
      </trkpt>
      <trkpt lat="45.797073058784008" lon="6.975608579814434">
        <ele>1286.8599999999999</ele>
        <time>2013-09-01T07:14:07Z</time>
      </trkpt>
      <trkpt lat="45.797158302739263" lon="6.975643029436469">
        <ele>1288.78</ele>
        <time>2013-09-01T07:14:20Z</time>
      </trkpt>
      <trkpt lat="45.79736047424376" lon="6.975766159594059">
        <ele>1291.1900000000001</ele>
        <time>2013-09-01T07:14:37Z</time>
      </trkpt>
      <trkpt lat="45.797470025718212" lon="6.975862048566341">
        <ele>1293.1099999999999</ele>
        <time>2013-09-01T07:14:50Z</time>
      </trkpt>
      <trkpt lat="45.797530459240079" lon="6.975935557857156">
        <ele>1294.0699999999999</ele>
        <time>2013-09-01T07:14:57Z</time>
      </trkpt>
      <trkpt lat="45.797648224979639" lon="6.976123312488198">
        <ele>1295.99</ele>
        <time>2013-09-01T07:15:13Z</time>
      </trkpt>
      <trkpt lat="45.797765906900167" lon="6.976275276392698">
        <ele>1297.9200000000001</ele>
        <time>2013-09-01T07:15:28Z</time>
      </trkpt>
      <trkpt lat="45.797832543030381" lon="6.976388515904546">
        <ele>1299.3599999999999</ele>
        <time>2013-09-01T07:15:37Z</time>
      </trkpt>
      <trkpt lat="45.797860454767942" lon="6.976434029638767">
        <ele>1299.8399999999999</ele>
        <time>2013-09-01T07:15:41Z</time>
      </trkpt>
      <trkpt lat="45.797914266586304" lon="6.97651625610888">
        <ele>1300.3199999999999</ele>
        <time>2013-09-01T07:15:47Z</time>
      </trkpt>
      <trkpt lat="45.797919798642397" lon="6.976623293012381">
        <ele>1300.8</ele>
        <time>2013-09-01T07:16:00Z</time>
      </trkpt>
      <trkpt lat="45.797959109768271" lon="6.976641565561295">
        <ele>1301.28</ele>
        <time>2013-09-01T07:16:05Z</time>
      </trkpt>
      <trkpt lat="45.798019543290138" lon="6.976765114814043">
        <ele>1302.24</ele>
        <time>2013-09-01T07:16:19Z</time>
      </trkpt>
      <trkpt lat="45.797997247427702" lon="6.976786991581321">
        <ele>1302.72</ele>
        <time>2013-09-01T07:16:28Z</time>
      </trkpt>
      <trkpt lat="45.798115348443389" lon="6.976903919130564">
        <ele>1304.6500000000001</ele>
        <time>2013-09-01T07:16:42Z</time>
      </trkpt>
      <trkpt lat="45.798188857734203" lon="6.977017913013697">
        <ele>1306.5699999999999</ele>
        <time>2013-09-01T07:16:52Z</time>
      </trkpt>
      <trkpt lat="45.798231940716505" lon="6.977095026522875">
        <ele>1307.53</ele>
        <time>2013-09-01T07:17:00Z</time>
      </trkpt>
      <trkpt lat="45.798340486362576" lon="6.97720667347312">
        <ele>1309.45</ele>
        <time>2013-09-01T07:17:13Z</time>
      </trkpt>
      <trkpt lat="45.798442075029016" lon="6.977296024560928">
        <ele>1311.3800000000001</ele>
        <time>2013-09-01T07:17:23Z</time>
      </trkpt>
      <trkpt lat="45.798586998134851" lon="6.97745586745441">
        <ele>1312.8199999999999</ele>
        <time>2013-09-01T07:17:39Z</time>
      </trkpt>
      <trkpt lat="45.798698645085096" lon="6.977600874379277">
        <ele>1315.7</ele>
        <time>2013-09-01T07:17:53Z</time>
      </trkpt>
      <trkpt lat="45.798783302307129" lon="6.977702798321843">
        <ele>1316.1800000000001</ele>
        <time>2013-09-01T07:18:04Z</time>
      </trkpt>
      <trkpt lat="45.79879361204803" lon="6.977708414196968">
        <ele>1316.1800000000001</ele>
        <time>2013-09-01T07:18:05Z</time>
      </trkpt>
      <trkpt lat="45.798912299796939" lon="6.977819139137864">
        <ele>1318.0999999999999</ele>
        <time>2013-09-01T07:18:18Z</time>
      </trkpt>
      <trkpt lat="45.799030987545848" lon="6.977926176041365">
        <ele>1319.55</ele>
        <time>2013-09-01T07:18:33Z</time>
      </trkpt>
      <trkpt lat="45.799082703888416" lon="6.97795475833118">
        <ele>1320.99</ele>
        <time>2013-09-01T07:18:46Z</time>
      </trkpt>
      <trkpt lat="45.799080859869719" lon="6.977977054193616">
        <ele>1320.51</ele>
        <time>2013-09-01T07:19:04Z</time>
      </trkpt>
      <trkpt lat="45.799096785485744" lon="6.978018125519157">
        <ele>1320.99</ele>
        <time>2013-09-01T07:19:22Z</time>
      </trkpt>
      <trkpt lat="45.79910927452147" lon="6.978050395846367">
        <ele>1321.47</ele>
        <time>2013-09-01T07:19:35Z</time>
      </trkpt>
      <trkpt lat="45.799222597852349" lon="6.978192385286093">
        <ele>1322.9100000000001</ele>
        <time>2013-09-01T07:19:50Z</time>
      </trkpt>
      <trkpt lat="45.799225866794586" lon="6.978206215426326">
        <ele>1322.9100000000001</ele>
        <time>2013-09-01T07:19:51Z</time>
      </trkpt>
      <trkpt lat="45.799213964492083" lon="6.978244604542851">
        <ele>1323.8699999999999</ele>
        <time>2013-09-01T07:20:05Z</time>
      </trkpt>
      <trkpt lat="45.799263836815953" lon="6.978256003931165">
        <ele>1323.3900000000001</ele>
        <time>2013-09-01T07:20:16Z</time>
      </trkpt>
      <trkpt lat="45.799276577308774" lon="6.978253740817308">
        <ele>1323.8699999999999</ele>
        <time>2013-09-01T07:20:22Z</time>
      </trkpt>
      <trkpt lat="45.799370957538486" lon="6.978452056646347">
        <ele>1325.8</ele>
        <time>2013-09-01T07:20:39Z</time>
      </trkpt>
      <trkpt lat="45.799411777406931" lon="6.978525733575225">
        <ele>1327.24</ele>
        <time>2013-09-01T07:20:47Z</time>
      </trkpt>
      <trkpt lat="45.799437174573541" lon="6.978682307526469">
        <ele>1328.2</ele>
        <time>2013-09-01T07:20:58Z</time>
      </trkpt>
      <trkpt lat="45.799492578953505" lon="6.978763528168201">
        <ele>1329.6400000000001</ele>
        <time>2013-09-01T07:21:08Z</time>
      </trkpt>
      <trkpt lat="45.799587713554502" lon="6.978797977790237">
        <ele>1330.5999999999999</ele>
        <time>2013-09-01T07:21:21Z</time>
      </trkpt>
      <trkpt lat="45.799689721316099" lon="6.97891591116786">
        <ele>1332.52</ele>
        <time>2013-09-01T07:21:35Z</time>
      </trkpt>
      <trkpt lat="45.799732049927115" lon="6.978982714936137">
        <ele>1333.01</ele>
        <time>2013-09-01T07:21:42Z</time>
      </trkpt>
      <trkpt lat="45.799794578924775" lon="6.979087069630623">
        <ele>1334.45</ele>
        <time>2013-09-01T07:21:54Z</time>
      </trkpt>
      <trkpt lat="45.799887785688043" lon="6.979260323569179">
        <ele>1336.8499999999999</ele>
        <time>2013-09-01T07:22:10Z</time>
      </trkpt>
      <trkpt lat="45.799908321350813" lon="6.979306004941464">
        <ele>1336.8499999999999</ele>
        <time>2013-09-01T07:22:14Z</time>
      </trkpt>
      <trkpt lat="45.799997001886368" lon="6.97947783395648">
        <ele>1339.25</ele>
        <time>2013-09-01T07:22:30Z</time>
      </trkpt>
      <trkpt lat="45.800077551975846" lon="6.979566514492035">
        <ele>1340.7</ele>
        <time>2013-09-01T07:22:42Z</time>
      </trkpt>
      <trkpt lat="45.800161371007562" lon="6.979733901098371">
        <ele>1342.1400000000001</ele>
        <time>2013-09-01T07:22:57Z</time>
      </trkpt>
      <trkpt lat="45.800221469253302" lon="6.979789389297366">
        <ele>1343.0999999999999</ele>
        <time>2013-09-01T07:23:10Z</time>
      </trkpt>
      <trkpt lat="45.800275532528758" lon="6.979842446744442">
        <ele>1343.5799999999999</ele>
        <time>2013-09-01T07:23:28Z</time>
      </trkpt>
      <trkpt lat="45.800287602469325" lon="6.979862730950117">
        <ele>1344.0599999999999</ele>
        <time>2013-09-01T07:23:31Z</time>
      </trkpt>
      <trkpt lat="45.800348622724414" lon="6.979915872216225">
        <ele>1345.02</ele>
        <time>2013-09-01T07:23:46Z</time>
      </trkpt>
      <trkpt lat="45.800398914143443" lon="6.97992492467165">
        <ele>1345.98</ele>
        <time>2013-09-01T07:23:56Z</time>
      </trkpt>
      <trkpt lat="45.800433866679668" lon="6.979970522224903">
        <ele>1346.9400000000001</ele>
        <time>2013-09-01T07:24:04Z</time>
      </trkpt>
      <trkpt lat="45.800462868064642" lon="6.980084432289004">
        <ele>1348.3900000000001</ele>
        <time>2013-09-01T07:24:13Z</time>
      </trkpt>
      <trkpt lat="45.800486169755459" lon="6.980123911052942">
        <ele>1349.3499999999999</ele>
        <time>2013-09-01T07:24:17Z</time>
      </trkpt>
      <trkpt lat="45.800537969917059" lon="6.980204042047262">
        <ele>1350.3099999999999</ele>
        <time>2013-09-01T07:24:25Z</time>
      </trkpt>
      <trkpt lat="45.800639390945435" lon="6.980307977646589">
        <ele>1352.23</ele>
        <time>2013-09-01T07:24:38Z</time>
      </trkpt>
      <trkpt lat="45.80064358189702" lon="6.980334799736738">
        <ele>1352.23</ele>
        <time>2013-09-01T07:24:41Z</time>
      </trkpt>
      <trkpt lat="45.800704853609204" lon="6.980415182188153">
        <ele>1353.6700000000001</ele>
        <time>2013-09-01T07:24:51Z</time>
      </trkpt>
      <trkpt lat="45.800817674025893" lon="6.980558512732387">
        <ele>1354.6300000000001</ele>
        <time>2013-09-01T07:25:03Z</time>
      </trkpt>
      <trkpt lat="45.800882298499346" lon="6.980684576556087">
        <ele>1356.0799999999999</ele>
        <time>2013-09-01T07:25:14Z</time>
      </trkpt>
      <trkpt lat="45.800899732857943" lon="6.980771580711007">
        <ele>1356.5599999999999</ele>
        <time>2013-09-01T07:25:21Z</time>
      </trkpt>
      <trkpt lat="45.800908952951431" lon="6.980899488553405">
        <ele>1357.52</ele>
        <time>2013-09-01T07:25:30Z</time>
      </trkpt>
      <trkpt lat="45.800834856927395" lon="6.981051033362746">
        <ele>1359.4400000000001</ele>
        <time>2013-09-01T07:25:42Z</time>
      </trkpt>
      <trkpt lat="45.800821781158447" lon="6.981105180457234">
        <ele>1359.9200000000001</ele>
        <time>2013-09-01T07:25:46Z</time>
      </trkpt>
      <trkpt lat="45.800797641277313" lon="6.981184389442205">
        <ele>1360.4000000000001</ele>
        <time>2013-09-01T07:25:51Z</time>
      </trkpt>
      <trkpt lat="45.800781212747097" lon="6.981279188767076">
        <ele>1361.3599999999999</ele>
        <time>2013-09-01T07:25:58Z</time>
      </trkpt>
      <trkpt lat="45.800771489739418" lon="6.981361079961062">
        <ele>1362.3299999999999</ele>
        <time>2013-09-01T07:26:04Z</time>
      </trkpt>
      <trkpt lat="45.80078330822289" lon="6.981389578431845">
        <ele>1362.8099999999999</ele>
        <time>2013-09-01T07:26:06Z</time>
      </trkpt>
      <trkpt lat="45.800808453932405" lon="6.981477253139019">
        <ele>1363.29</ele>
        <time>2013-09-01T07:26:13Z</time>
      </trkpt>
      <trkpt lat="45.800849692896008" lon="6.981520419940352">
        <ele>1364.25</ele>
        <time>2013-09-01T07:26:16Z</time>
      </trkpt>
      <trkpt lat="45.800901995971799" lon="6.981604909524322">
        <ele>1364.73</ele>
        <time>2013-09-01T07:26:21Z</time>
      </trkpt>
      <trkpt lat="45.800907863304019" lon="6.98163315653801">
        <ele>1364.73</ele>
        <time>2013-09-01T07:26:23Z</time>
      </trkpt>
      <trkpt lat="45.800959914922714" lon="6.981748323887587">
        <ele>1365.6900000000001</ele>
        <time>2013-09-01T07:26:32Z</time>
      </trkpt>
      <trkpt lat="45.800962010398507" lon="6.981770787388086">
        <ele>1366.1700000000001</ele>
        <time>2013-09-01T07:26:34Z</time>
      </trkpt>
      <trkpt lat="45.800969386473298" lon="6.98180079460144">
        <ele>1366.6500000000001</ele>
        <time>2013-09-01T07:26:36Z</time>
      </trkpt>
      <trkpt lat="45.800955221056938" lon="6.981858378276229">
        <ele>1367.6099999999999</ele>
        <time>2013-09-01T07:26:41Z</time>
      </trkpt>
      <trkpt lat="45.80094650387764" lon="6.981887212023139">
        <ele>1368.0899999999999</ele>
        <time>2013-09-01T07:26:43Z</time>
      </trkpt>
      <trkpt lat="45.800896463915706" lon="6.982065076008439">
        <ele>1369.05</ele>
        <time>2013-09-01T07:26:56Z</time>
      </trkpt>
      <trkpt lat="45.800800574943423" lon="6.982226930558682">
        <ele>1370.02</ele>
        <time>2013-09-01T07:27:09Z</time>
      </trkpt>
      <trkpt lat="45.800753217190504" lon="6.982422480359674">
        <ele>1370.98</ele>
        <time>2013-09-01T07:27:24Z</time>
      </trkpt>
      <trkpt lat="45.800712062045932" lon="6.982591124251485">
        <ele>1372.4200000000001</ele>
        <time>2013-09-01T07:27:37Z</time>
      </trkpt>
      <trkpt lat="45.800684653222561" lon="6.982768820598722">
        <ele>1373.3800000000001</ele>
        <time>2013-09-01T07:27:48Z</time>
      </trkpt>
      <trkpt lat="45.800614412873983" lon="6.982937045395374">
        <ele>1374.3399999999999</ele>
        <time>2013-09-01T07:28:01Z</time>
      </trkpt>
      <trkpt lat="45.800588009878993" lon="6.983111808076501">
        <ele>1376.26</ele>
        <time>2013-09-01T07:28:15Z</time>
      </trkpt>
      <trkpt lat="45.800600666552782" lon="6.983189089223743">
        <ele>1377.23</ele>
        <time>2013-09-01T07:28:20Z</time>
      </trkpt>
      <trkpt lat="45.800622878596187" lon="6.983257988467813">
        <ele>1378.1900000000001</ele>
        <time>2013-09-01T07:28:25Z</time>
      </trkpt>
      <trkpt lat="45.800629835575819" lon="6.983289588242769">
        <ele>1378.1900000000001</ele>
        <time>2013-09-01T07:28:27Z</time>
      </trkpt>
      <trkpt lat="45.800640480592847" lon="6.983337197452784">
        <ele>1379.1500000000001</ele>
        <time>2013-09-01T07:28:31Z</time>
      </trkpt>
      <trkpt lat="45.800688089802861" lon="6.983433673158288">
        <ele>1380.1099999999999</ele>
        <time>2013-09-01T07:28:38Z</time>
      </trkpt>
      <trkpt lat="45.800725053995848" lon="6.983539452776313">
        <ele>1381.0699999999999</ele>
        <time>2013-09-01T07:28:46Z</time>
      </trkpt>
      <trkpt lat="45.800781128928065" lon="6.983691332861781">
        <ele>1382.51</ele>
        <time>2013-09-01T07:28:57Z</time>
      </trkpt>
      <trkpt lat="45.800816416740417" lon="6.983744306489825">
        <ele>1382.99</ele>
        <time>2013-09-01T07:29:11Z</time>
      </trkpt>
      <trkpt lat="45.800858326256275" lon="6.98380465619266">
        <ele>1383.96</ele>
        <time>2013-09-01T07:29:20Z</time>
      </trkpt>
      <trkpt lat="45.800875844433904" lon="6.983889564871788">
        <ele>1384.9200000000001</ele>
        <time>2013-09-01T07:29:27Z</time>
      </trkpt>
      <trkpt lat="45.800875509157777" lon="6.983901970088482">
        <ele>1384.9200000000001</ele>
        <time>2013-09-01T07:29:28Z</time>
      </trkpt>
      <trkpt lat="45.800863523036242" lon="6.983991907909513">
        <ele>1386.3599999999999</ele>
        <time>2013-09-01T07:29:35Z</time>
      </trkpt>
      <trkpt lat="45.800876850262284" lon="6.984045719727874">
        <ele>1387.3199999999999</ele>
        <time>2013-09-01T07:29:40Z</time>
      </trkpt>
      <trkpt lat="45.800895541906357" lon="6.984256524592638">
        <ele>1389.72</ele>
        <time>2013-09-01T07:29:57Z</time>
      </trkpt>
      <trkpt lat="45.800904091447592" lon="6.984325591474772">
        <ele>1391.1700000000001</ele>
        <time>2013-09-01T07:30:04Z</time>
      </trkpt>
      <trkpt lat="45.800945330411196" lon="6.98437973856926">
        <ele>1392.1300000000001</ele>
        <time>2013-09-01T07:30:09Z</time>
      </trkpt>
      <trkpt lat="45.801018252968788" lon="6.984464982524514">
        <ele>1393.5699999999999</ele>
        <time>2013-09-01T07:30:18Z</time>
      </trkpt>
      <trkpt lat="45.801078686490655" lon="6.984534552320838">
        <ele>1395.01</ele>
        <time>2013-09-01T07:30:26Z</time>
      </trkpt>
      <trkpt lat="45.801089247688651" lon="6.984550477936864">
        <ele>1395.49</ele>
        <time>2013-09-01T07:30:28Z</time>
      </trkpt>
      <trkpt lat="45.801188237965107" lon="6.984618119895458">
        <ele>1397.4100000000001</ele>
        <time>2013-09-01T07:30:41Z</time>
      </trkpt>
      <trkpt lat="45.801235092803836" lon="6.984596913680434">
        <ele>1398.3699999999999</ele>
        <time>2013-09-01T07:30:46Z</time>
      </trkpt>
      <trkpt lat="45.801295274868608" lon="6.984505131840706">
        <ele>1398.3699999999999</ele>
        <time>2013-09-01T07:30:55Z</time>
      </trkpt>
      <trkpt lat="45.801303740590811" lon="6.984490547329187">
        <ele>1398.3699999999999</ele>
        <time>2013-09-01T07:30:56Z</time>
      </trkpt>
      <trkpt lat="45.80134472809732" lon="6.98432793840766">
        <ele>1399.3399999999999</ele>
        <time>2013-09-01T07:31:08Z</time>
      </trkpt>
      <trkpt lat="45.801358474418521" lon="6.984234396368265">
        <ele>1400.3</ele>
        <time>2013-09-01T07:31:15Z</time>
      </trkpt>
      <trkpt lat="45.801396695896983" lon="6.984132891520858">
        <ele>1401.26</ele>
        <time>2013-09-01T07:31:24Z</time>
      </trkpt>
      <trkpt lat="45.80142536200583" lon="6.984080169349909">
        <ele>1402.22</ele>
        <time>2013-09-01T07:31:29Z</time>
      </trkpt>
      <trkpt lat="45.801437012851238" lon="6.984070362523198">
        <ele>1402.22</ele>
        <time>2013-09-01T07:31:30Z</time>
      </trkpt>
      <trkpt lat="45.80144832842052" lon="6.984061812981963">
        <ele>1402.22</ele>
        <time>2013-09-01T07:31:31Z</time>
      </trkpt>
      <trkpt lat="45.80155779607594" lon="6.984013533219695">
        <ele>1403.6600000000001</ele>
        <time>2013-09-01T07:31:43Z</time>
      </trkpt>
      <trkpt lat="45.801634658128023" lon="6.98402157984674">
        <ele>1405.5799999999999</ele>
        <time>2013-09-01T07:31:55Z</time>
      </trkpt>
      <trkpt lat="45.801696935668588" lon="6.984027698636055">
        <ele>1406.55</ele>
        <time>2013-09-01T07:32:02Z</time>
      </trkpt>
      <trkpt lat="45.801776815205812" lon="6.984099866822362">
        <ele>1408.47</ele>
        <time>2013-09-01T07:32:15Z</time>
      </trkpt>
      <trkpt lat="45.801835572347045" lon="6.98415644466877">
        <ele>1409.9100000000001</ele>
        <time>2013-09-01T07:32:27Z</time>
      </trkpt>
      <trkpt lat="45.801890389993787" lon="6.984230792149901">
        <ele>1411.3499999999999</ele>
        <time>2013-09-01T07:32:39Z</time>
      </trkpt>
      <trkpt lat="45.801946297287941" lon="6.984296003356576">
        <ele>1413.76</ele>
        <time>2013-09-01T07:32:49Z</time>
      </trkpt>
      <trkpt lat="45.802001953125" lon="6.984294159337878">
        <ele>1414.72</ele>
        <time>2013-09-01T07:32:56Z</time>
      </trkpt>
      <trkpt lat="45.802010670304298" lon="6.984348641708493">
        <ele>1416.1600000000001</ele>
        <time>2013-09-01T07:33:02Z</time>
      </trkpt>
      <trkpt lat="45.802021063864231" lon="6.984471185132861">
        <ele>1417.5999999999999</ele>
        <time>2013-09-01T07:33:14Z</time>
      </trkpt>
      <trkpt lat="45.802029278129339" lon="6.984559446573257">
        <ele>1419.52</ele>
        <time>2013-09-01T07:33:24Z</time>
      </trkpt>
      <trkpt lat="45.802051657810807" lon="6.984617449343205">
        <ele>1420.49</ele>
        <time>2013-09-01T07:33:31Z</time>
      </trkpt>
      <trkpt lat="45.802087867632508" lon="6.984717948362231">
        <ele>1422.4100000000001</ele>
        <time>2013-09-01T07:33:42Z</time>
      </trkpt>
      <trkpt lat="45.802140422165394" lon="6.984780142083764">
        <ele>1423.3699999999999</ele>
        <time>2013-09-01T07:33:51Z</time>
      </trkpt>
      <trkpt lat="45.802177134901285" lon="6.984891286119819">
        <ele>1425.29</ele>
        <time>2013-09-01T07:34:01Z</time>
      </trkpt>
      <trkpt lat="45.802194150164723" lon="6.984991868957877">
        <ele>1426.73</ele>
        <time>2013-09-01T07:34:12Z</time>
      </trkpt>
      <trkpt lat="45.802230527624488" lon="6.985040316358209">
        <ele>1428.1800000000001</ele>
        <time>2013-09-01T07:34:18Z</time>
      </trkpt>
      <trkpt lat="45.80230638384819" lon="6.985118603333831">
        <ele>1430.5799999999999</ele>
        <time>2013-09-01T07:34:30Z</time>
      </trkpt>
      <trkpt lat="45.802371008321643" lon="6.985217006877065">
        <ele>1432.5</ele>
        <time>2013-09-01T07:34:42Z</time>
      </trkpt>
      <trkpt lat="45.802411325275898" lon="6.985270567238331">
        <ele>1433.46</ele>
        <time>2013-09-01T07:34:48Z</time>
      </trkpt>
      <trkpt lat="45.802459018304944" lon="6.985390344634652">
        <ele>1434.9100000000001</ele>
        <time>2013-09-01T07:34:59Z</time>
      </trkpt>
      <trkpt lat="45.802489947527647" lon="6.985526718199253">
        <ele>1436.8299999999999</ele>
        <time>2013-09-01T07:35:12Z</time>
      </trkpt>
      <trkpt lat="45.802523894235492" lon="6.985675496980548">
        <ele>1438.75</ele>
        <time>2013-09-01T07:35:25Z</time>
      </trkpt>
      <trkpt lat="45.802588183432817" lon="6.985750179737806">
        <ele>1439.71</ele>
        <time>2013-09-01T07:35:35Z</time>
      </trkpt>
      <trkpt lat="45.80261911265552" lon="6.985854618251324">
        <ele>1442.1099999999999</ele>
        <time>2013-09-01T07:35:50Z</time>
      </trkpt>
      <trkpt lat="45.802672002464533" lon="6.985973054543138">
        <ele>1443.5599999999999</ele>
        <time>2013-09-01T07:36:01Z</time>
      </trkpt>
      <trkpt lat="45.802748696878552" lon="6.986061902716756">
        <ele>1445</ele>
        <time>2013-09-01T07:36:13Z</time>
      </trkpt>
      <trkpt lat="45.802785828709602" lon="6.986046060919762">
        <ele>1447.4000000000001</ele>
        <time>2013-09-01T07:36:26Z</time>
      </trkpt>
      <trkpt lat="45.802793204784393" lon="6.985949333757162">
        <ele>1448.8399999999999</ele>
        <time>2013-09-01T07:36:38Z</time>
      </trkpt>
      <trkpt lat="45.802828324958682" lon="6.98587104678154">
        <ele>1450.29</ele>
        <time>2013-09-01T07:36:47Z</time>
      </trkpt>
      <trkpt lat="45.80290493555367" lon="6.985801393166184">
        <ele>1451.73</ele>
        <time>2013-09-01T07:36:57Z</time>
      </trkpt>
      <trkpt lat="45.802905857563019" lon="6.985672144219279">
        <ele>1453.1700000000001</ele>
        <time>2013-09-01T07:37:11Z</time>
      </trkpt>
      <trkpt lat="45.802928656339645" lon="6.985631827265024">
        <ele>1453.6500000000001</ele>
        <time>2013-09-01T07:37:16Z</time>
      </trkpt>
      <trkpt lat="45.802975930273533" lon="6.985603580251336">
        <ele>1455.0899999999999</ele>
        <time>2013-09-01T07:37:27Z</time>
      </trkpt>
      <trkpt lat="45.803044661879539" lon="6.985668120905757">
        <ele>1456.05</ele>
        <time>2013-09-01T07:37:40Z</time>
      </trkpt>
      <trkpt lat="45.803062515333295" lon="6.985683459788561">
        <ele>1456.05</ele>
        <time>2013-09-01T07:37:42Z</time>
      </trkpt>
      <trkpt lat="45.80306863412261" lon="6.98569318279624">
        <ele>1456.05</ele>
        <time>2013-09-01T07:37:43Z</time>
      </trkpt>
      <trkpt lat="45.803108867257833" lon="6.985710449516773">
        <ele>1456.53</ele>
        <time>2013-09-01T07:37:46Z</time>
      </trkpt>
      <trkpt lat="45.803161337971687" lon="6.985760657116771">
        <ele>1457.02</ele>
        <time>2013-09-01T07:37:56Z</time>
      </trkpt>
      <trkpt lat="45.803179610520601" lon="6.985922595486045">
        <ele>1458.9400000000001</ele>
        <time>2013-09-01T07:38:09Z</time>
      </trkpt>
      <trkpt lat="45.803181957453489" lon="6.985940365120769">
        <ele>1458.9400000000001</ele>
        <time>2013-09-01T07:38:10Z</time>
      </trkpt>
      <trkpt lat="45.803179442882538" lon="6.98599174618721">
        <ele>1459.9000000000001</ele>
        <time>2013-09-01T07:38:15Z</time>
      </trkpt>
      <trkpt lat="45.803180448710918" lon="6.986117977648974">
        <ele>1461.8199999999999</ele>
        <time>2013-09-01T07:38:27Z</time>
      </trkpt>
      <trkpt lat="45.803186483681202" lon="6.986149242147803">
        <ele>1462.3</ele>
        <time>2013-09-01T07:38:29Z</time>
      </trkpt>
      <trkpt lat="45.803181622177362" lon="6.986156702041626">
        <ele>1462.3</ele>
        <time>2013-09-01T07:38:30Z</time>
      </trkpt>
      <trkpt lat="45.803161086514592" lon="6.986266504973173">
        <ele>1464.23</ele>
        <time>2013-09-01T07:38:42Z</time>
      </trkpt>
      <trkpt lat="45.8031952008605" lon="6.986351329833269">
        <ele>1466.1500000000001</ele>
        <time>2013-09-01T07:38:55Z</time>
      </trkpt>
      <trkpt lat="45.803242307156324" lon="6.98643540032208">
        <ele>1468.55</ele>
        <time>2013-09-01T07:39:07Z</time>
      </trkpt>
      <trkpt lat="45.803291173651814" lon="6.986497258767486">
        <ele>1470.47</ele>
        <time>2013-09-01T07:39:19Z</time>
      </trkpt>
      <trkpt lat="45.803292850032449" lon="6.986516369506717">
        <ele>1471.9200000000001</ele>
        <time>2013-09-01T07:39:21Z</time>
      </trkpt>
      <trkpt lat="45.803297711536288" lon="6.986726336181164">
        <ele>1472.4000000000001</ele>
        <time>2013-09-01T07:39:36Z</time>
      </trkpt>
      <trkpt lat="45.803304249420762" lon="6.986814513802528">
        <ele>1473.3599999999999</ele>
        <time>2013-09-01T07:39:43Z</time>
      </trkpt>
      <trkpt lat="45.803335597738624" lon="6.986924316734076">
        <ele>1474.3199999999999</ele>
        <time>2013-09-01T07:39:55Z</time>
      </trkpt>
      <trkpt lat="45.803363341838121" lon="6.9869523961097">
        <ele>1474.8</ele>
        <time>2013-09-01T07:39:59Z</time>
      </trkpt>
      <trkpt lat="45.803388068452477" lon="6.987046021968126">
        <ele>1476.24</ele>
        <time>2013-09-01T07:40:11Z</time>
      </trkpt>
      <trkpt lat="45.803362838923931" lon="6.987035879865289">
        <ele>1476.24</ele>
        <time>2013-09-01T07:40:31Z</time>
      </trkpt>
      <trkpt lat="45.803376166149974" lon="6.987030850723386">
        <ele>1476.24</ele>
        <time>2013-09-01T07:40:36Z</time>
      </trkpt>
      <trkpt lat="45.803343057632446" lon="6.986967986449599">
        <ele>1476.72</ele>
        <time>2013-09-01T07:40:48Z</time>
      </trkpt>
      <trkpt lat="45.803247923031449" lon="6.986879389733076">
        <ele>1477.6800000000001</ele>
        <time>2013-09-01T07:41:01Z</time>
      </trkpt>
      <trkpt lat="45.803211210295558" lon="6.986805545166135">
        <ele>1478.1600000000001</ele>
        <time>2013-09-01T07:41:19Z</time>
      </trkpt>
      <trkpt lat="45.803203918039799" lon="6.986754750832915">
        <ele>1479.1300000000001</ele>
        <time>2013-09-01T07:41:36Z</time>
      </trkpt>
      <trkpt lat="45.803153291344643" lon="6.986716445535421">
        <ele>1479.1300000000001</ele>
        <time>2013-09-01T07:41:59Z</time>
      </trkpt>
      <trkpt lat="45.80312579870224" lon="6.986709404736757">
        <ele>1479.1300000000001</ele>
        <time>2013-09-01T07:42:23Z</time>
      </trkpt>
      <trkpt lat="45.803093276917934" lon="6.986676882952452">
        <ele>1479.6099999999999</ele>
        <time>2013-09-01T07:42:43Z</time>
      </trkpt>
      <trkpt lat="45.803101742640138" lon="6.986684175208211">
        <ele>1479.6099999999999</ele>
        <time>2013-09-01T07:43:04Z</time>
      </trkpt>
      <trkpt lat="45.803118171170354" lon="6.986608738079667">
        <ele>1480.0899999999999</ele>
        <time>2013-09-01T07:43:26Z</time>
      </trkpt>
      <trkpt lat="45.803185729309916" lon="6.986559284850955">
        <ele>1481.53</ele>
        <time>2013-09-01T07:43:39Z</time>
      </trkpt>
      <trkpt lat="45.803256137296557" lon="6.986538162454963">
        <ele>1482.97</ele>
        <time>2013-09-01T07:43:52Z</time>
      </trkpt>
      <trkpt lat="45.803288323804736" lon="6.986461132764816">
        <ele>1483.9300000000001</ele>
        <time>2013-09-01T07:44:05Z</time>
      </trkpt>
      <trkpt lat="45.803314475342631" lon="6.986362477764487">
        <ele>1485.8499999999999</ele>
        <time>2013-09-01T07:44:21Z</time>
      </trkpt>
      <trkpt lat="45.803380105644464" lon="6.98626047000289">
        <ele>1487.78</ele>
        <time>2013-09-01T07:44:37Z</time>
      </trkpt>
      <trkpt lat="45.803423440083861" lon="6.986145386472344">
        <ele>1489.7</ele>
        <time>2013-09-01T07:44:50Z</time>
      </trkpt>
      <trkpt lat="45.803507762029767" lon="6.986104650422931">
        <ele>1492.0999999999999</ele>
        <time>2013-09-01T07:45:06Z</time>
      </trkpt>
      <trkpt lat="45.803543468937278" lon="6.986040025949478">
        <ele>1494.03</ele>
        <time>2013-09-01T07:45:19Z</time>
      </trkpt>
      <trkpt lat="45.803611194714904" lon="6.986056203022599">
        <ele>1495.95</ele>
        <time>2013-09-01T07:45:33Z</time>
      </trkpt>
      <trkpt lat="45.803628461435437" lon="6.986119067296386">
        <ele>1497.8699999999999</ele>
        <time>2013-09-01T07:45:44Z</time>
      </trkpt>
      <trkpt lat="45.80367648974061" lon="6.986193750053644">
        <ele>1499.3099999999999</ele>
        <time>2013-09-01T07:45:56Z</time>
      </trkpt>
      <trkpt lat="45.803702557459474" lon="6.986277485266328">
        <ele>1501.72</ele>
        <time>2013-09-01T07:46:09Z</time>
      </trkpt>
      <trkpt lat="45.80375368706882" lon="6.986303804442287">
        <ele>1503.6400000000001</ele>
        <time>2013-09-01T07:46:22Z</time>
      </trkpt>
      <trkpt lat="45.803740611299872" lon="6.986262481659651">
        <ele>1505.5599999999999</ele>
        <time>2013-09-01T07:46:33Z</time>
      </trkpt>
      <trkpt lat="45.803778916597366" lon="6.986194755882025">
        <ele>1507.97</ele>
        <time>2013-09-01T07:46:45Z</time>
      </trkpt>
      <trkpt lat="45.803818814456463" lon="6.986104566603899">
        <ele>1509.8900000000001</ele>
        <time>2013-09-01T07:46:58Z</time>
      </trkpt>
      <trkpt lat="45.803854269906878" lon="6.986010186374188">
        <ele>1511.8099999999999</ele>
        <time>2013-09-01T07:47:14Z</time>
      </trkpt>
      <trkpt lat="45.803892575204372" lon="6.986041199415922">
        <ele>1514.21</ele>
        <time>2013-09-01T07:47:25Z</time>
      </trkpt>
      <trkpt lat="45.803932556882501" lon="6.986173214390874">
        <ele>1514.6900000000001</ele>
        <time>2013-09-01T07:47:37Z</time>
      </trkpt>
      <trkpt lat="45.803961055353284" lon="6.986252926290035">
        <ele>1517.0999999999999</ele>
        <time>2013-09-01T07:47:52Z</time>
      </trkpt>
      <trkpt lat="45.80400925129652" lon="6.986206071451306">
        <ele>1519.98</ele>
        <time>2013-09-01T07:48:04Z</time>
      </trkpt>
      <trkpt lat="45.80406985245645" lon="6.986173968762159">
        <ele>1521.9000000000001</ele>
        <time>2013-09-01T07:48:16Z</time>
      </trkpt>
      <trkpt lat="45.804128861054778" lon="6.986204730346799">
        <ele>1523.8299999999999</ele>
        <time>2013-09-01T07:48:26Z</time>
      </trkpt>
      <trkpt lat="45.804194239899516" lon="6.986268432810903">
        <ele>1525.27</ele>
        <time>2013-09-01T07:48:38Z</time>
      </trkpt>
      <trkpt lat="45.804229779168963" lon="6.986332470551133">
        <ele>1527.6700000000001</ele>
        <time>2013-09-01T07:48:50Z</time>
      </trkpt>
      <trkpt lat="45.804285518825054" lon="6.986422324553132">
        <ele>1530.0799999999999</ele>
        <time>2013-09-01T07:49:03Z</time>
      </trkpt>
      <trkpt lat="45.804367326200008" lon="6.98643296957016">
        <ele>1531.04</ele>
        <time>2013-09-01T07:49:13Z</time>
      </trkpt>
      <trkpt lat="45.804385766386986" lon="6.986329620704055">
        <ele>1533.4400000000001</ele>
        <time>2013-09-01T07:49:27Z</time>
      </trkpt>
      <trkpt lat="45.804386604577303" lon="6.986236581578851">
        <ele>1535.3599999999999</ele>
        <time>2013-09-01T07:49:38Z</time>
      </trkpt>
      <trkpt lat="45.804433543235064" lon="6.98619844391942">
        <ele>1537.29</ele>
        <time>2013-09-01T07:49:49Z</time>
      </trkpt>
      <trkpt lat="45.804486013948917" lon="6.986248148605228">
        <ele>1539.6900000000001</ele>
        <time>2013-09-01T07:50:02Z</time>
      </trkpt>
      <trkpt lat="45.804551476612687" lon="6.986275892704725">
        <ele>1541.6099999999999</ele>
        <time>2013-09-01T07:50:15Z</time>
      </trkpt>
      <trkpt lat="45.804599672555923" lon="6.986333476379514">
        <ele>1544.01</ele>
        <time>2013-09-01T07:50:27Z</time>
      </trkpt>
      <trkpt lat="45.804661866277456" lon="6.986443782225251">
        <ele>1546.9000000000001</ele>
        <time>2013-09-01T07:50:42Z</time>
      </trkpt>
      <trkpt lat="45.804709140211344" lon="6.986529780551791">
        <ele>1548.8199999999999</ele>
        <time>2013-09-01T07:50:53Z</time>
      </trkpt>
      <trkpt lat="45.804700842127204" lon="6.986486949026585">
        <ele>1550.74</ele>
        <time>2013-09-01T07:51:05Z</time>
      </trkpt>
      <trkpt lat="45.80475197173655" lon="6.986458953469992">
        <ele>1553.1500000000001</ele>
        <time>2013-09-01T07:51:16Z</time>
      </trkpt>
      <trkpt lat="45.804752474650741" lon="6.986443530768156">
        <ele>1553.6300000000001</ele>
        <time>2013-09-01T07:51:17Z</time>
      </trkpt>
      <trkpt lat="45.804753815755248" lon="6.986388461664319">
        <ele>1554.1099999999999</ele>
        <time>2013-09-01T07:51:21Z</time>
      </trkpt>
      <trkpt lat="45.804815758019686" lon="6.986286621540785">
        <ele>1556.51</ele>
        <time>2013-09-01T07:51:35Z</time>
      </trkpt>
      <trkpt lat="45.804817182943225" lon="6.986169274896383">
        <ele>1558.4300000000001</ele>
        <time>2013-09-01T07:51:47Z</time>
      </trkpt>
      <trkpt lat="45.804855320602655" lon="6.986057292670012">
        <ele>1560.3599999999999</ele>
        <time>2013-09-01T07:52:00Z</time>
      </trkpt>
      <trkpt lat="45.804829420521855" lon="6.985966516658664">
        <ele>1562.28</ele>
        <time>2013-09-01T07:52:12Z</time>
      </trkpt>
      <trkpt lat="45.804829671978951" lon="6.985865011811256">
        <ele>1564.2</ele>
        <time>2013-09-01T07:52:24Z</time>
      </trkpt>
      <trkpt lat="45.804799245670438" lon="6.985733080655336">
        <ele>1566.6099999999999</ele>
        <time>2013-09-01T07:52:38Z</time>
      </trkpt>
      <trkpt lat="45.804761778563261" lon="6.985639790073037">
        <ele>1568.05</ele>
        <time>2013-09-01T07:52:51Z</time>
      </trkpt>
      <trkpt lat="45.804740404710174" lon="6.985513139516115">
        <ele>1570.45</ele>
        <time>2013-09-01T07:53:05Z</time>
      </trkpt>
      <trkpt lat="45.804762868210673" lon="6.985417837277055">
        <ele>1572.8499999999999</ele>
        <time>2013-09-01T07:53:19Z</time>
      </trkpt>
      <trkpt lat="45.804763035848737" lon="6.985302921384573">
        <ele>1575.74</ele>
        <time>2013-09-01T07:53:34Z</time>
      </trkpt>
      <trkpt lat="45.804730178788304" lon="6.985150454565883">
        <ele>1578.1400000000001</ele>
        <time>2013-09-01T07:53:48Z</time>
      </trkpt>
      <trkpt lat="45.804753564298153" lon="6.985031263902783">
        <ele>1580.0599999999999</ele>
        <time>2013-09-01T07:54:02Z</time>
      </trkpt>
      <trkpt lat="45.804740823805332" lon="6.985096056014299">
        <ele>1579.5799999999999</ele>
        <time>2013-09-01T07:54:17Z</time>
      </trkpt>
      <trkpt lat="45.804767394438386" lon="6.985029587522149">
        <ele>1579.5799999999999</ele>
        <time>2013-09-01T07:54:44Z</time>
      </trkpt>
      <trkpt lat="45.804743589833379" lon="6.984989354386926">
        <ele>1579.5799999999999</ele>
        <time>2013-09-01T07:55:10Z</time>
      </trkpt>
      <trkpt lat="45.804678713902831" lon="6.984998406842351">
        <ele>1579.5799999999999</ele>
        <time>2013-09-01T07:55:32Z</time>
      </trkpt>
      <trkpt lat="45.804679552093148" lon="6.984993796795607">
        <ele>1580.54</ele>
        <time>2013-09-01T07:56:00Z</time>
      </trkpt>
      <trkpt lat="45.8047079667449" lon="6.984960353001952">
        <ele>1581.99</ele>
        <time>2013-09-01T07:56:05Z</time>
      </trkpt>
      <trkpt lat="45.804672092199326" lon="6.984986504539847">
        <ele>1581.51</ele>
        <time>2013-09-01T07:56:20Z</time>
      </trkpt>
      <trkpt lat="45.804721964523196" lon="6.984981307759881">
        <ele>1581.99</ele>
        <time>2013-09-01T07:57:00Z</time>
      </trkpt>
      <trkpt lat="45.804710984230042" lon="6.985007543116808">
        <ele>1581.99</ele>
        <time>2013-09-01T07:57:32Z</time>
      </trkpt>
      <trkpt lat="45.804717103019357" lon="6.985015338286758">
        <ele>1582.95</ele>
        <time>2013-09-01T07:58:05Z</time>
      </trkpt>
      <trkpt lat="45.804693968966603" lon="6.984934201464057">
        <ele>1581.51</ele>
        <time>2013-09-01T07:58:17Z</time>
      </trkpt>
      <trkpt lat="45.804773345589638" lon="6.984856417402625">
        <ele>1583.9100000000001</ele>
        <time>2013-09-01T07:58:30Z</time>
      </trkpt>
      <trkpt lat="45.804798156023026" lon="6.984720379114151">
        <ele>1587.27</ele>
        <time>2013-09-01T07:58:46Z</time>
      </trkpt>
      <trkpt lat="45.804786924272776" lon="6.984592387452722">
        <ele>1589.2</ele>
        <time>2013-09-01T07:58:59Z</time>
      </trkpt>
      <trkpt lat="45.804810058325529" lon="6.984474118798971">
        <ele>1592.0799999999999</ele>
        <time>2013-09-01T07:59:11Z</time>
      </trkpt>
      <trkpt lat="45.804852470755577" lon="6.984370267018676">
        <ele>1594.48</ele>
        <time>2013-09-01T07:59:24Z</time>
      </trkpt>
      <trkpt lat="45.804887255653739" lon="6.98428887873888">
        <ele>1596.4100000000001</ele>
        <time>2013-09-01T07:59:36Z</time>
      </trkpt>
      <trkpt lat="45.804899157956243" lon="6.984242610633373">
        <ele>1597.8499999999999</ele>
        <time>2013-09-01T07:59:42Z</time>
      </trkpt>
      <trkpt lat="45.804932601749897" lon="6.984121575951576">
        <ele>1600.73</ele>
        <time>2013-09-01T07:59:56Z</time>
      </trkpt>
      <trkpt lat="45.804975600913167" lon="6.984038343653083">
        <ele>1603.1400000000001</ele>
        <time>2013-09-01T08:00:08Z</time>
      </trkpt>
      <trkpt lat="45.805049780756235" lon="6.983937341719866">
        <ele>1606.02</ele>
        <time>2013-09-01T08:00:22Z</time>
      </trkpt>
      <trkpt lat="45.80511499196291" lon="6.983829466626048">
        <ele>1608.4200000000001</ele>
        <time>2013-09-01T08:00:36Z</time>
      </trkpt>
      <trkpt lat="45.80512136220932" lon="6.983691668137908">
        <ele>1611.3099999999999</ele>
        <time>2013-09-01T08:00:51Z</time>
      </trkpt>
      <trkpt lat="45.805217586457729" lon="6.983681693673134">
        <ele>1614.1900000000001</ele>
        <time>2013-09-01T08:01:03Z</time>
      </trkpt>
      <trkpt lat="45.805279025807977" lon="6.98375185020268">
        <ele>1616.5899999999999</ele>
        <time>2013-09-01T08:01:14Z</time>
      </trkpt>
      <trkpt lat="45.805355384945869" lon="6.983877997845411">
        <ele>1619</ele>
        <time>2013-09-01T08:01:29Z</time>
      </trkpt>
      <trkpt lat="45.805399306118488" lon="6.984026608988643">
        <ele>1621.4000000000001</ele>
        <time>2013-09-01T08:01:45Z</time>
      </trkpt>
      <trkpt lat="45.805440293624997" lon="6.984150828793645">
        <ele>1624.28</ele>
        <time>2013-09-01T08:01:59Z</time>
      </trkpt>
      <trkpt lat="45.805495865643024" lon="6.984283095225692">
        <ele>1626.6900000000001</ele>
        <time>2013-09-01T08:02:14Z</time>
      </trkpt>
      <trkpt lat="45.805503074079752" lon="6.984329782426357">
        <ele>1627.6500000000001</ele>
        <time>2013-09-01T08:02:18Z</time>
      </trkpt>
      <trkpt lat="45.805552946403623" lon="6.984427431598306">
        <ele>1631.01</ele>
        <time>2013-09-01T08:02:31Z</time>
      </trkpt>
      <trkpt lat="45.805608602240682" lon="6.984543269500136">
        <ele>1633.4200000000001</ele>
        <time>2013-09-01T08:02:45Z</time>
      </trkpt>
      <trkpt lat="45.805666521191597" lon="6.98463287204504">
        <ele>1636.3</ele>
        <time>2013-09-01T08:02:57Z</time>
      </trkpt>
      <trkpt lat="45.805733660236001" lon="6.984706884250045">
        <ele>1639.1900000000001</ele>
        <time>2013-09-01T08:03:12Z</time>
      </trkpt>
      <trkpt lat="45.805752938613296" lon="6.984633123502135">
        <ele>1642.0699999999999</ele>
        <time>2013-09-01T08:03:25Z</time>
      </trkpt>
      <trkpt lat="45.805771881714463" lon="6.984600014984608">
        <ele>1643.51</ele>
        <time>2013-09-01T08:03:32Z</time>
      </trkpt>
      <trkpt lat="45.805836757645011" lon="6.984693137928844">
        <ele>1646.4000000000001</ele>
        <time>2013-09-01T08:03:45Z</time>
      </trkpt>
      <trkpt lat="45.805899202823639" lon="6.984775615856051">
        <ele>1648.8</ele>
        <time>2013-09-01T08:03:58Z</time>
      </trkpt>
      <trkpt lat="45.805891240015626" lon="6.984704621136189">
        <ele>1651.6800000000001</ele>
        <time>2013-09-01T08:04:12Z</time>
      </trkpt>
      <trkpt lat="45.805896017700434" lon="6.984609486535192">
        <ele>1654.0899999999999</ele>
        <time>2013-09-01T08:04:23Z</time>
      </trkpt>
      <trkpt lat="45.805905321612954" lon="6.984495241194964">
        <ele>1656.49</ele>
        <time>2013-09-01T08:04:37Z</time>
      </trkpt>
      <trkpt lat="45.805911608040333" lon="6.984365237876773">
        <ele>1659.3699999999999</ele>
        <time>2013-09-01T08:04:51Z</time>
      </trkpt>
      <trkpt lat="45.805956451222301" lon="6.984193911775947">
        <ele>1662.26</ele>
        <time>2013-09-01T08:05:06Z</time>
      </trkpt>
      <trkpt lat="45.8059789147228" lon="6.98404454626143">
        <ele>1664.6600000000001</ele>
        <time>2013-09-01T08:05:20Z</time>
      </trkpt>
      <trkpt lat="45.806022500619292" lon="6.983870537951589">
        <ele>1668.02</ele>
        <time>2013-09-01T08:05:33Z</time>
      </trkpt>
      <trkpt lat="45.806062649935484" lon="6.983759813010693">
        <ele>1670.4300000000001</ele>
        <time>2013-09-01T08:05:48Z</time>
      </trkpt>
      <trkpt lat="45.806106319651008" lon="6.983713125810027">
        <ele>1673.3099999999999</ele>
        <time>2013-09-01T08:05:59Z</time>
      </trkpt>
      <trkpt lat="45.806162813678384" lon="6.983820246532559">
        <ele>1674.75</ele>
        <time>2013-09-01T08:06:10Z</time>
      </trkpt>
      <trkpt lat="45.8062051422894" lon="6.983880931511521">
        <ele>1676.2</ele>
        <time>2013-09-01T08:06:16Z</time>
      </trkpt>
      <trkpt lat="45.806286530569196" lon="6.983942287042737">
        <ele>1678.5999999999999</ele>
        <time>2013-09-01T08:06:29Z</time>
      </trkpt>
      <trkpt lat="45.806388538330793" lon="6.983988722786307">
        <ele>1681.96</ele>
        <time>2013-09-01T08:06:44Z</time>
      </trkpt>
      <trkpt lat="45.806488702073693" lon="6.984082767739892">
        <ele>1684.8499999999999</ele>
        <time>2013-09-01T08:06:59Z</time>
      </trkpt>
      <trkpt lat="45.806525079533458" lon="6.984086120501161">
        <ele>1687.73</ele>
        <time>2013-09-01T08:07:13Z</time>
      </trkpt>
      <trkpt lat="45.806489624083042" lon="6.983954692259431">
        <ele>1690.1400000000001</ele>
        <time>2013-09-01T08:07:27Z</time>
      </trkpt>
      <trkpt lat="45.806467160582542" lon="6.983861904591322">
        <ele>1692.0599999999999</ele>
        <time>2013-09-01T08:07:37Z</time>
      </trkpt>
      <trkpt lat="45.806469591334462" lon="6.983695439994335">
        <ele>1693.98</ele>
        <time>2013-09-01T08:07:49Z</time>
      </trkpt>
      <trkpt lat="45.806489456444979" lon="6.983604244887829">
        <ele>1696.3800000000001</ele>
        <time>2013-09-01T08:08:00Z</time>
      </trkpt>
      <trkpt lat="45.80655843950808" lon="6.98367758654058">
        <ele>1699.27</ele>
        <time>2013-09-01T08:08:14Z</time>
      </trkpt>
      <trkpt lat="45.806635720655322" lon="6.983734332025051">
        <ele>1701.6700000000001</ele>
        <time>2013-09-01T08:08:27Z</time>
      </trkpt>
      <trkpt lat="45.806625997647643" lon="6.983595611527562">
        <ele>1703.5899999999999</ele>
        <time>2013-09-01T08:08:40Z</time>
      </trkpt>
      <trkpt lat="45.806625159457326" lon="6.983460914343596">
        <ele>1706</ele>
        <time>2013-09-01T08:08:52Z</time>
      </trkpt>
      <trkpt lat="45.806628009304404" lon="6.983451023697853">
        <ele>1706</ele>
        <time>2013-09-01T08:08:53Z</time>
      </trkpt>
      <trkpt lat="45.806659692898393" lon="6.98334189131856">
        <ele>1708.4000000000001</ele>
        <time>2013-09-01T08:09:06Z</time>
      </trkpt>
      <trkpt lat="45.806740075349808" lon="6.983433673158288">
        <ele>1710.8</ele>
        <time>2013-09-01T08:09:19Z</time>
      </trkpt>
      <trkpt lat="45.806803023442626" lon="6.983526879921556">
        <ele>1712.73</ele>
        <time>2013-09-01T08:09:32Z</time>
      </trkpt>
      <trkpt lat="45.80685549415648" lon="6.983562670648098">
        <ele>1715.6099999999999</ele>
        <time>2013-09-01T08:09:46Z</time>
      </trkpt>
      <trkpt lat="45.806860104203224" lon="6.983448592945933">
        <ele>1718.49</ele>
        <time>2013-09-01T08:09:59Z</time>
      </trkpt>
      <trkpt lat="45.806852811947465" lon="6.983316242694855">
        <ele>1719.9400000000001</ele>
        <time>2013-09-01T08:10:11Z</time>
      </trkpt>
      <trkpt lat="45.806800425052643" lon="6.983211888000369">
        <ele>1722.3399999999999</ele>
        <time>2013-09-01T08:10:24Z</time>
      </trkpt>
      <trkpt lat="45.806734291836619" lon="6.983084063977003">
        <ele>1723.3</ele>
        <time>2013-09-01T08:10:36Z</time>
      </trkpt>
      <trkpt lat="45.806645611301064" lon="6.982951210811734">
        <ele>1723.3</ele>
        <time>2013-09-01T08:10:48Z</time>
      </trkpt>
      <trkpt lat="45.806623650714755" lon="6.982898153364658">
        <ele>1724.74</ele>
        <time>2013-09-01T08:10:52Z</time>
      </trkpt>
      <trkpt lat="45.806551733985543" lon="6.982739735394716">
        <ele>1727.1500000000001</ele>
        <time>2013-09-01T08:11:09Z</time>
      </trkpt>
      <trkpt lat="45.806471183896065" lon="6.98257134296">
        <ele>1729.55</ele>
        <time>2013-09-01T08:11:23Z</time>
      </trkpt>
      <trkpt lat="45.806464981287718" lon="6.982399681583047">
        <ele>1732.4300000000001</ele>
        <time>2013-09-01T08:11:36Z</time>
      </trkpt>
      <trkpt lat="45.806455677375197" lon="6.982317706570029">
        <ele>1734.8399999999999</ele>
        <time>2013-09-01T08:11:49Z</time>
      </trkpt>
      <trkpt lat="45.806476715952158" lon="6.982230870053172">
        <ele>1737.24</ele>
        <time>2013-09-01T08:12:03Z</time>
      </trkpt>
      <trkpt lat="45.806488366797566" lon="6.982124922797084">
        <ele>1740.1199999999999</ele>
        <time>2013-09-01T08:12:17Z</time>
      </trkpt>
      <trkpt lat="45.806503621861339" lon="6.982047893106937">
        <ele>1743.01</ele>
        <time>2013-09-01T08:12:32Z</time>
      </trkpt>
      <trkpt lat="45.806503370404243" lon="6.981958039104939">
        <ele>1745.4100000000001</ele>
        <time>2013-09-01T08:12:44Z</time>
      </trkpt>
      <trkpt lat="45.806528013199568" lon="6.981956027448177">
        <ele>1746.3699999999999</ele>
        <time>2013-09-01T08:12:51Z</time>
      </trkpt>
      <trkpt lat="45.806584339588881" lon="6.982050156220794">
        <ele>1747.8099999999999</ele>
        <time>2013-09-01T08:13:04Z</time>
      </trkpt>
      <trkpt lat="45.806639073416591" lon="6.982130454853177">
        <ele>1750.7</ele>
        <time>2013-09-01T08:13:19Z</time>
      </trkpt>
      <trkpt lat="45.806692885234952" lon="6.982212848961353">
        <ele>1753.0999999999999</ele>
        <time>2013-09-01T08:13:34Z</time>
      </trkpt>
      <trkpt lat="45.80675189383328" lon="6.982315862551332">
        <ele>1754.54</ele>
        <time>2013-09-01T08:13:48Z</time>
      </trkpt>
      <trkpt lat="45.806783158332109" lon="6.982304379343987">
        <ele>1756.47</ele>
        <time>2013-09-01T08:14:02Z</time>
      </trkpt>
      <trkpt lat="45.806767148897052" lon="6.982198599725962">
        <ele>1758.8699999999999</ele>
        <time>2013-09-01T08:14:14Z</time>
      </trkpt>
      <trkpt lat="45.806798581033945" lon="6.982138250023127">
        <ele>1761.27</ele>
        <time>2013-09-01T08:14:28Z</time>
      </trkpt>
      <trkpt lat="45.806860523298383" lon="6.98218921199441">
        <ele>1763.6800000000001</ele>
        <time>2013-09-01T08:14:41Z</time>
      </trkpt>
      <trkpt lat="45.806906539946795" lon="6.982271606102586">
        <ele>1766.5599999999999</ele>
        <time>2013-09-01T08:14:57Z</time>
      </trkpt>
      <trkpt lat="45.806900672614574" lon="6.982292728498578">
        <ele>1766.5599999999999</ele>
        <time>2013-09-01T08:15:11Z</time>
      </trkpt>
      <trkpt lat="45.806877706199884" lon="6.982287196442485">
        <ele>1766.0799999999999</ele>
        <time>2013-09-01T08:15:41Z</time>
      </trkpt>
      <trkpt lat="45.806935792788863" lon="6.982295410707593">
        <ele>1767.04</ele>
        <time>2013-09-01T08:16:01Z</time>
      </trkpt>
      <trkpt lat="45.807015253230929" lon="6.982356933876872">
        <ele>1769.9200000000001</ele>
        <time>2013-09-01T08:16:16Z</time>
      </trkpt>
      <trkpt lat="45.807084487751126" lon="6.982382917776704">
        <ele>1773.29</ele>
        <time>2013-09-01T08:16:31Z</time>
      </trkpt>
      <trkpt lat="45.807065879926085" lon="6.982305468991399">
        <ele>1776.1700000000001</ele>
        <time>2013-09-01T08:16:46Z</time>
      </trkpt>
      <trkpt lat="45.807082895189524" lon="6.982241682708263">
        <ele>1778.5799999999999</ele>
        <time>2013-09-01T08:17:01Z</time>
      </trkpt>
      <trkpt lat="45.807092366740108" lon="6.982192564755678">
        <ele>1780.5</ele>
        <time>2013-09-01T08:17:13Z</time>
      </trkpt>
      <trkpt lat="45.807083817198873" lon="6.982088377699256">
        <ele>1782.9000000000001</ele>
        <time>2013-09-01T08:17:29Z</time>
      </trkpt>
      <trkpt lat="45.807084823027253" lon="6.982019143179059">
        <ele>1784.8199999999999</ele>
        <time>2013-09-01T08:17:44Z</time>
      </trkpt>
      <trkpt lat="45.807055402547121" lon="6.98190238326788">
        <ele>1786.27</ele>
        <time>2013-09-01T08:18:08Z</time>
      </trkpt>
      <trkpt lat="45.807093624025583" lon="6.981848319992423">
        <ele>1788.6700000000001</ele>
        <time>2013-09-01T08:18:21Z</time>
      </trkpt>
      <trkpt lat="45.807139473035932" lon="6.981897186487913">
        <ele>1790.1099999999999</ele>
        <time>2013-09-01T08:18:34Z</time>
      </trkpt>
      <trkpt lat="45.807140227407217" lon="6.981849409639835">
        <ele>1791.55</ele>
        <time>2013-09-01T08:18:48Z</time>
      </trkpt>
      <trkpt lat="45.807102844119072" lon="6.981724184006453">
        <ele>1793.96</ele>
        <time>2013-09-01T08:19:01Z</time>
      </trkpt>
      <trkpt lat="45.807120194658637" lon="6.981695769354701">
        <ele>1793.96</ele>
        <time>2013-09-01T08:19:11Z</time>
      </trkpt>
      <trkpt lat="45.807122457772493" lon="6.981695769354701">
        <ele>1793.96</ele>
        <time>2013-09-01T08:19:29Z</time>
      </trkpt>
      <trkpt lat="45.807098653167486" lon="6.98174606077373">
        <ele>1794.4400000000001</ele>
        <time>2013-09-01T08:19:55Z</time>
      </trkpt>
      <trkpt lat="45.80708172172308" lon="6.981708677485585">
        <ele>1794.4400000000001</ele>
        <time>2013-09-01T08:20:14Z</time>
      </trkpt>
      <trkpt lat="45.807132935151458" lon="6.981719825416803">
        <ele>1794.9200000000001</ele>
        <time>2013-09-01T08:20:36Z</time>
      </trkpt>
      <trkpt lat="45.807098988443613" lon="6.98171085678041">
        <ele>1795.4000000000001</ele>
        <time>2013-09-01T08:20:49Z</time>
      </trkpt>
      <trkpt lat="45.807081554085016" lon="6.981677832081914">
        <ele>1795.4000000000001</ele>
        <time>2013-09-01T08:21:12Z</time>
      </trkpt>
      <trkpt lat="45.807081637904048" lon="6.981676993891597">
        <ele>1795.8800000000001</ele>
        <time>2013-09-01T08:21:33Z</time>
      </trkpt>
      <trkpt lat="45.807089013978839" lon="6.981726950034499">
        <ele>1796.3599999999999</ele>
        <time>2013-09-01T08:21:55Z</time>
      </trkpt>
      <trkpt lat="45.807086331769824" lon="6.981721417978406">
        <ele>1796.3599999999999</ele>
        <time>2013-09-01T08:22:05Z</time>
      </trkpt>
      <trkpt lat="45.807112902402878" lon="6.98172208853066">
        <ele>1796.8399999999999</ele>
        <time>2013-09-01T08:22:17Z</time>
      </trkpt>
      <trkpt lat="45.8070875890553" lon="6.98169132694602">
        <ele>1797.8</ele>
        <time>2013-09-01T08:22:20Z</time>
      </trkpt>
      <trkpt lat="45.807113321498036" lon="6.981603149324656">
        <ele>1799.24</ele>
        <time>2013-09-01T08:22:33Z</time>
      </trkpt>
      <trkpt lat="45.807126564905047" lon="6.981599126011133">
        <ele>1799.73</ele>
        <time>2013-09-01T08:22:52Z</time>
      </trkpt>
      <trkpt lat="45.807141987606883" lon="6.981583451852202">
        <ele>1799.24</ele>
        <time>2013-09-01T08:23:19Z</time>
      </trkpt>
      <trkpt lat="45.807161936536431" lon="6.981614800170064">
        <ele>1800.21</ele>
        <time>2013-09-01T08:23:58Z</time>
      </trkpt>
      <trkpt lat="45.807128073647618" lon="6.981614213436842">
        <ele>1800.21</ele>
        <time>2013-09-01T08:24:21Z</time>
      </trkpt>
      <trkpt lat="45.807111226022243" lon="6.981648243963718">
        <ele>1800.6900000000001</ele>
        <time>2013-09-01T08:24:50Z</time>
      </trkpt>
      <trkpt lat="45.807147100567818" lon="6.981691662222147">
        <ele>1801.1700000000001</ele>
        <time>2013-09-01T08:25:19Z</time>
      </trkpt>
      <trkpt lat="45.807159589603543" lon="6.981659978628159">
        <ele>1801.6500000000001</ele>
        <time>2013-09-01T08:25:39Z</time>
      </trkpt>
      <trkpt lat="45.807130252942443" lon="6.981660816818476">
        <ele>1801.6500000000001</ele>
        <time>2013-09-01T08:26:08Z</time>
      </trkpt>
      <trkpt lat="45.807148106396198" lon="6.981646986678243">
        <ele>1802.1300000000001</ele>
        <time>2013-09-01T08:26:35Z</time>
      </trkpt>
      <trkpt lat="45.807134276255965" lon="6.981634916737676">
        <ele>1802.1300000000001</ele>
        <time>2013-09-01T08:27:01Z</time>
      </trkpt>
      <trkpt lat="45.807131258770823" lon="6.981631731614471">
        <ele>1802.1300000000001</ele>
        <time>2013-09-01T08:27:03Z</time>
      </trkpt>
      <trkpt lat="45.807152548804879" lon="6.981619326397777">
        <ele>1803.0899999999999</ele>
        <time>2013-09-01T08:27:14Z</time>
      </trkpt>
      <trkpt lat="45.807159254327416" lon="6.981655620038509">
        <ele>1802.6099999999999</ele>
        <time>2013-09-01T08:27:36Z</time>
      </trkpt>
      <trkpt lat="45.807116841897368" lon="6.981562497094274">
        <ele>1803.5699999999999</ele>
        <time>2013-09-01T08:27:49Z</time>
      </trkpt>
      <trkpt lat="45.807102341204882" lon="6.981445653364062">
        <ele>1806.45</ele>
        <time>2013-09-01T08:28:02Z</time>
      </trkpt>
      <trkpt lat="45.807098569348454" lon="6.981331072747707">
        <ele>1808.3800000000001</ele>
        <time>2013-09-01T08:28:17Z</time>
      </trkpt>
      <trkpt lat="45.807109046727419" lon="6.981253707781434">
        <ele>1811.74</ele>
        <time>2013-09-01T08:28:30Z</time>
      </trkpt>
      <trkpt lat="45.807110471650958" lon="6.981190172955394">
        <ele>1813.6600000000001</ele>
        <time>2013-09-01T08:28:40Z</time>
      </trkpt>
      <trkpt lat="45.807127989828587" lon="6.981097972020507">
        <ele>1816.0699999999999</ele>
        <time>2013-09-01T08:28:54Z</time>
      </trkpt>
      <trkpt lat="45.807085409760475" lon="6.981034185737371">
        <ele>1818.95</ele>
        <time>2013-09-01T08:29:06Z</time>
      </trkpt>
      <trkpt lat="45.807047104462981" lon="6.980934692546725">
        <ele>1820.8699999999999</ele>
        <time>2013-09-01T08:29:19Z</time>
      </trkpt>
      <trkpt lat="45.806997567415237" lon="6.980835115537047">
        <ele>1822.8</ele>
        <time>2013-09-01T08:29:32Z</time>
      </trkpt>
      <trkpt lat="45.80699622631073" lon="6.980675775557756">
        <ele>1823.76</ele>
        <time>2013-09-01T08:29:45Z</time>
      </trkpt>
      <trkpt lat="45.806960267946124" lon="6.980516351759434">
        <ele>1825.2</ele>
        <time>2013-09-01T08:30:00Z</time>
      </trkpt>
      <trkpt lat="45.806931518018246" lon="6.980355838313699">
        <ele>1827.1199999999999</ele>
        <time>2013-09-01T08:30:14Z</time>
      </trkpt>
      <trkpt lat="45.806941073387861" lon="6.98020881973207">
        <ele>1830.01</ele>
        <time>2013-09-01T08:30:30Z</time>
      </trkpt>
      <trkpt lat="45.807006284594536" lon="6.980271516367793">
        <ele>1832.4100000000001</ele>
        <time>2013-09-01T08:30:44Z</time>
      </trkpt>
      <trkpt lat="45.807027071714401" lon="6.980213094502688">
        <ele>1834.8099999999999</ele>
        <time>2013-09-01T08:30:58Z</time>
      </trkpt>
      <trkpt lat="45.80700553022325" lon="6.980121480301023">
        <ele>1837.22</ele>
        <time>2013-09-01T08:31:12Z</time>
      </trkpt>
      <trkpt lat="45.807001842185855" lon="6.980068506672978">
        <ele>1839.1400000000001</ele>
        <time>2013-09-01T08:31:27Z</time>
      </trkpt>
      <trkpt lat="45.806987006217241" lon="6.979972198605537">
        <ele>1841.0599999999999</ele>
        <time>2013-09-01T08:31:42Z</time>
      </trkpt>
      <trkpt lat="45.806983234360814" lon="6.979933809489012">
        <ele>1841.54</ele>
        <time>2013-09-01T08:31:56Z</time>
      </trkpt>
      <trkpt lat="45.807011565193534" lon="6.979925762861967">
        <ele>1842.02</ele>
        <time>2013-09-01T08:32:16Z</time>
      </trkpt>
      <trkpt lat="45.807056576013565" lon="6.97992785833776">
        <ele>1843.95</ele>
        <time>2013-09-01T08:32:29Z</time>
      </trkpt>
      <trkpt lat="45.807042410597205" lon="6.97983113117516">
        <ele>1846.8299999999999</ele>
        <time>2013-09-01T08:32:42Z</time>
      </trkpt>
      <trkpt lat="45.807030675932765" lon="6.9797651655972">
        <ele>1848.75</ele>
        <time>2013-09-01T08:32:53Z</time>
      </trkpt>
      <trkpt lat="45.807030675932765" lon="6.979625523090363">
        <ele>1850.6800000000001</ele>
        <time>2013-09-01T08:33:08Z</time>
      </trkpt>
      <trkpt lat="45.807021791115403" lon="6.979501722380519">
        <ele>1853.0799999999999</ele>
        <time>2013-09-01T08:33:22Z</time>
      </trkpt>
      <trkpt lat="45.807018605992198" lon="6.979366522282362">
        <ele>1855.48</ele>
        <time>2013-09-01T08:33:36Z</time>
      </trkpt>
      <trkpt lat="45.807006536051631" lon="6.979248253628612">
        <ele>1857.8900000000001</ele>
        <time>2013-09-01T08:33:50Z</time>
      </trkpt>
      <trkpt lat="45.806983401998878" lon="6.979146748781204">
        <ele>1861.25</ele>
        <time>2013-09-01T08:34:06Z</time>
      </trkpt>
      <trkpt lat="45.806942163035274" lon="6.979000652208924">
        <ele>1863.6500000000001</ele>
        <time>2013-09-01T08:34:21Z</time>
      </trkpt>
      <trkpt lat="45.806938391178846" lon="6.978875175118446">
        <ele>1866.54</ele>
        <time>2013-09-01T08:34:36Z</time>
      </trkpt>
      <trkpt lat="45.80694149248302" lon="6.978808119893074">
        <ele>1867.98</ele>
        <time>2013-09-01T08:34:49Z</time>
      </trkpt>
      <trkpt lat="45.806990610435605" lon="6.978791691362858">
        <ele>1869.9000000000001</ele>
        <time>2013-09-01T08:35:02Z</time>
      </trkpt>
      <trkpt lat="45.80705096013844" lon="6.978855645284057">
        <ele>1872.3</ele>
        <time>2013-09-01T08:35:16Z</time>
      </trkpt>
      <trkpt lat="45.807038387283683" lon="6.978763109073043">
        <ele>1874.71</ele>
        <time>2013-09-01T08:35:32Z</time>
      </trkpt>
      <trkpt lat="45.80701575614512" lon="6.978729413822293">
        <ele>1875.1900000000001</ele>
        <time>2013-09-01T08:35:39Z</time>
      </trkpt>
      <trkpt lat="45.806994047015905" lon="6.978599997237325">
        <ele>1877.1099999999999</ele>
        <time>2013-09-01T08:35:52Z</time>
      </trkpt>
      <trkpt lat="45.807025730609894" lon="6.978527493774891">
        <ele>1880</ele>
        <time>2013-09-01T08:36:05Z</time>
      </trkpt>
      <trkpt lat="45.807054229080677" lon="6.978538641706109">
        <ele>1881.9200000000001</ele>
        <time>2013-09-01T08:36:18Z</time>
      </trkpt>
      <trkpt lat="45.807058922946453" lon="6.9785201177001">
        <ele>1882.8800000000001</ele>
        <time>2013-09-01T08:36:33Z</time>
      </trkpt>
      <trkpt lat="45.807048110291362" lon="6.978402268141508">
        <ele>1885.28</ele>
        <time>2013-09-01T08:36:46Z</time>
      </trkpt>
      <trkpt lat="45.807062527164817" lon="6.978348791599274">
        <ele>1886.24</ele>
        <time>2013-09-01T08:37:05Z</time>
      </trkpt>
      <trkpt lat="45.807061772793531" lon="6.978281401097775">
        <ele>1886.72</ele>
        <time>2013-09-01T08:37:22Z</time>
      </trkpt>
      <trkpt lat="45.807078285142779" lon="6.978172855451703">
        <ele>1887.21</ele>
        <time>2013-09-01T08:37:41Z</time>
      </trkpt>
      <trkpt lat="45.807137209922075" lon="6.9780158624053">
        <ele>1890.0899999999999</ele>
        <time>2013-09-01T08:37:57Z</time>
      </trkpt>
      <trkpt lat="45.807187920436263" lon="6.977977976202965">
        <ele>1892.49</ele>
        <time>2013-09-01T08:38:08Z</time>
      </trkpt>
      <trkpt lat="45.807227902114391" lon="6.978113176301122">
        <ele>1894.4200000000001</ele>
        <time>2013-09-01T08:38:23Z</time>
      </trkpt>
      <trkpt lat="45.807250700891018" lon="6.978246448561549">
        <ele>1896.3399999999999</ele>
        <time>2013-09-01T08:38:38Z</time>
      </trkpt>
      <trkpt lat="45.807289592921734" lon="6.978343846276403">
        <ele>1898.74</ele>
        <time>2013-09-01T08:38:51Z</time>
      </trkpt>
      <trkpt lat="45.807308703660965" lon="6.978226751089096">
        <ele>1900.6600000000001</ele>
        <time>2013-09-01T08:39:08Z</time>
      </trkpt>
      <trkpt lat="45.807324294000864" lon="6.978101609274745">
        <ele>1903.0699999999999</ele>
        <time>2013-09-01T08:39:21Z</time>
      </trkpt>
      <trkpt lat="45.807335525751114" lon="6.978054083883762">
        <ele>1903.0699999999999</ele>
        <time>2013-09-01T08:39:26Z</time>
      </trkpt>
      <trkpt lat="45.807399228215218" lon="6.977983256801963">
        <ele>1905.47</ele>
        <time>2013-09-01T08:39:38Z</time>
      </trkpt>
      <trkpt lat="45.807426888495684" lon="6.977913100272417">
        <ele>1907.8699999999999</ele>
        <time>2013-09-01T08:39:51Z</time>
      </trkpt>
      <trkpt lat="45.807482125237584" lon="6.977934557944536">
        <ele>1909.8</ele>
        <time>2013-09-01T08:40:04Z</time>
      </trkpt>
      <trkpt lat="45.807497212663293" lon="6.978017035871744">
        <ele>1911.24</ele>
        <time>2013-09-01T08:40:19Z</time>
      </trkpt>
      <trkpt lat="45.807542558759451" lon="6.978169251233339">
        <ele>1913.1600000000001</ele>
        <time>2013-09-01T08:40:32Z</time>
      </trkpt>
      <trkpt lat="45.807552197948098" lon="6.978316688910127">
        <ele>1915.5599999999999</ele>
        <time>2013-09-01T08:40:47Z</time>
      </trkpt>
      <trkpt lat="45.807604752480984" lon="6.978477537631989">
        <ele>1917.49</ele>
        <time>2013-09-01T08:41:02Z</time>
      </trkpt>
      <trkpt lat="45.807624533772469" lon="6.978530008345842">
        <ele>1918.45</ele>
        <time>2013-09-01T08:41:10Z</time>
      </trkpt>
      <trkpt lat="45.807647164911032" lon="6.97841752320528">
        <ele>1920.8499999999999</ele>
        <time>2013-09-01T08:41:24Z</time>
      </trkpt>
      <trkpt lat="45.807699467986822" lon="6.97830562479794">
        <ele>1922.77</ele>
        <time>2013-09-01T08:41:39Z</time>
      </trkpt>
      <trkpt lat="45.807773312553763" lon="6.978222895413637">
        <ele>1925.1800000000001</ele>
        <time>2013-09-01T08:41:54Z</time>
      </trkpt>
      <trkpt lat="45.807814048603177" lon="6.978118373081088">
        <ele>1927.0999999999999</ele>
        <time>2013-09-01T08:42:07Z</time>
      </trkpt>
      <trkpt lat="45.807863250374794" lon="6.97801535949111">
        <ele>1929.02</ele>
        <time>2013-09-01T08:42:21Z</time>
      </trkpt>
      <trkpt lat="45.807845732197165" lon="6.977927014231682">
        <ele>1930.46</ele>
        <time>2013-09-01T08:42:33Z</time>
      </trkpt>
      <trkpt lat="45.807811701670289" lon="6.977823078632355">
        <ele>1932.8699999999999</ele>
        <time>2013-09-01T08:42:48Z</time>
      </trkpt>
      <trkpt lat="45.807789908722043" lon="6.977708917111158">
        <ele>1934.79</ele>
        <time>2013-09-01T08:43:03Z</time>
      </trkpt>
      <trkpt lat="45.807762667536736" lon="6.977663403376937">
        <ele>1935.27</ele>
        <time>2013-09-01T08:43:21Z</time>
      </trkpt>
      <trkpt lat="45.807766187936068" lon="6.977521078661084">
        <ele>1937.6700000000001</ele>
        <time>2013-09-01T08:43:34Z</time>
      </trkpt>
      <trkpt lat="45.80780684016645" lon="6.977484617382288">
        <ele>1940.0799999999999</ele>
        <time>2013-09-01T08:43:47Z</time>
      </trkpt>
      <trkpt lat="45.807819496840239" lon="6.977429632097483">
        <ele>1941.04</ele>
        <time>2013-09-01T08:44:06Z</time>
      </trkpt>
      <trkpt lat="45.807826370000839" lon="6.977376658469439">
        <ele>1941.52</ele>
        <time>2013-09-01T08:44:25Z</time>
      </trkpt>
      <trkpt lat="45.807857550680637" lon="6.97725310921669">
        <ele>1942.48</ele>
        <time>2013-09-01T08:44:38Z</time>
      </trkpt>
      <trkpt lat="45.807875068858266" lon="6.977183371782303">
        <ele>1944.8800000000001</ele>
        <time>2013-09-01T08:44:48Z</time>
      </trkpt>
      <trkpt lat="45.807868782430887" lon="6.977189239114523">
        <ele>1945.3599999999999</ele>
        <time>2013-09-01T08:45:00Z</time>
      </trkpt>
      <trkpt lat="45.807868698611856" lon="6.977175073698163">
        <ele>1945.8499999999999</ele>
        <time>2013-09-01T08:45:19Z</time>
      </trkpt>
      <trkpt lat="45.807854784652591" lon="6.977190999314189">
        <ele>1946.3299999999999</ele>
        <time>2013-09-01T08:45:43Z</time>
      </trkpt>
      <trkpt lat="45.807885210961103" lon="6.977179767563939">
        <ele>1945.3599999999999</ele>
        <time>2013-09-01T08:46:04Z</time>
      </trkpt>
      <trkpt lat="45.807883953675628" lon="6.977204661816359">
        <ele>1945.3599999999999</ele>
        <time>2013-09-01T08:46:15Z</time>
      </trkpt>
      <trkpt lat="45.807858975604177" lon="6.977214887738228">
        <ele>1945.8499999999999</ele>
        <time>2013-09-01T08:46:39Z</time>
      </trkpt>
      <trkpt lat="45.807869201526046" lon="6.977202147245407">
        <ele>1945.8499999999999</ele>
        <time>2013-09-01T08:47:06Z</time>
      </trkpt>
      <trkpt lat="45.807888563722372" lon="6.97719837538898">
        <ele>1946.3299999999999</ele>
        <time>2013-09-01T08:47:22Z</time>
      </trkpt>
      <trkpt lat="45.807882947847247" lon="6.977198123931885">
        <ele>1946.3299999999999</ele>
        <time>2013-09-01T08:47:40Z</time>
      </trkpt>
      <trkpt lat="45.807888982817531" lon="6.9772042427212">
        <ele>1946.3299999999999</ele>
        <time>2013-09-01T08:48:08Z</time>
      </trkpt>
      <trkpt lat="45.807885713875294" lon="6.977219330146909">
        <ele>1946.8099999999999</ele>
        <time>2013-09-01T08:48:36Z</time>
      </trkpt>
      <trkpt lat="45.807878337800503" lon="6.97719544172287">
        <ele>1946.3299999999999</ele>
        <time>2013-09-01T08:48:54Z</time>
      </trkpt>
      <trkpt lat="45.807890743017197" lon="6.977247577160597">
        <ele>1945.8499999999999</ele>
        <time>2013-09-01T08:49:06Z</time>
      </trkpt>
      <trkpt lat="45.807901220396161" lon="6.977257551625371">
        <ele>1945.8499999999999</ele>
        <time>2013-09-01T08:49:22Z</time>
      </trkpt>
      <trkpt lat="45.807898035272956" lon="6.977270795032382">
        <ele>1945.3599999999999</ele>
        <time>2013-09-01T08:49:33Z</time>
      </trkpt>
      <trkpt lat="45.807831063866615" lon="6.977273561060429">
        <ele>1944.4000000000001</ele>
        <time>2013-09-01T08:49:48Z</time>
      </trkpt>
      <trkpt lat="45.807815222069621" lon="6.977265933528543">
        <ele>1944.4000000000001</ele>
        <time>2013-09-01T08:50:00Z</time>
      </trkpt>
      <trkpt lat="45.807794099673629" lon="6.977271968498826">
        <ele>1943.4400000000001</ele>
        <time>2013-09-01T08:50:12Z</time>
      </trkpt>
      <trkpt lat="45.807793093845248" lon="6.977261826395989">
        <ele>1943.9200000000001</ele>
        <time>2013-09-01T08:50:30Z</time>
      </trkpt>
      <trkpt lat="45.807792255654931" lon="6.977262748405337">
        <ele>1943.9200000000001</ele>
        <time>2013-09-01T08:50:56Z</time>
      </trkpt>
      <trkpt lat="45.80779267475009" lon="6.977264005690813">
        <ele>1943.9200000000001</ele>
        <time>2013-09-01T08:51:11Z</time>
      </trkpt>
      <trkpt lat="45.807790411636233" lon="6.977268531918526">
        <ele>1944.4000000000001</ele>
        <time>2013-09-01T08:51:37Z</time>
      </trkpt>
      <trkpt lat="45.807799715548754" lon="6.977243889123201">
        <ele>1944.8800000000001</ele>
        <time>2013-09-01T08:51:59Z</time>
      </trkpt>
      <trkpt lat="45.807884205132723" lon="6.977299125865102">
        <ele>1944.8800000000001</ele>
        <time>2013-09-01T08:52:13Z</time>
      </trkpt>
      <trkpt lat="45.807892503216863" lon="6.977304238826037">
        <ele>1944.8800000000001</ele>
        <time>2013-09-01T08:52:14Z</time>
      </trkpt>
      <trkpt lat="45.807989230379462" lon="6.977368360385299">
        <ele>1946.3299999999999</ele>
        <time>2013-09-01T08:52:28Z</time>
      </trkpt>
      <trkpt lat="45.808089226484299" lon="6.977452347055078">
        <ele>1947.77</ele>
        <time>2013-09-01T08:52:41Z</time>
      </trkpt>
      <trkpt lat="45.808199448511004" lon="6.977528454735875">
        <ele>1948.25</ele>
        <time>2013-09-01T08:52:55Z</time>
      </trkpt>
      <trkpt lat="45.808293409645557" lon="6.977556617930532">
        <ele>1950.1700000000001</ele>
        <time>2013-09-01T08:53:08Z</time>
      </trkpt>
      <trkpt lat="45.808347808197141" lon="6.977667175233364">
        <ele>1952.5699999999999</ele>
        <time>2013-09-01T08:53:22Z</time>
      </trkpt>
      <trkpt lat="45.808399943634868" lon="6.97778083384037">
        <ele>1955.46</ele>
        <time>2013-09-01T08:53:36Z</time>
      </trkpt>
      <trkpt lat="45.808424251154065" lon="6.977901449427009">
        <ele>1957.8599999999999</ele>
        <time>2013-09-01T08:53:52Z</time>
      </trkpt>
      <trkpt lat="45.808447552844882" lon="6.978022065013647">
        <ele>1960.27</ele>
        <time>2013-09-01T08:54:05Z</time>
      </trkpt>
      <trkpt lat="45.808476889505982" lon="6.978154331445694">
        <ele>1962.6700000000001</ele>
        <time>2013-09-01T08:54:21Z</time>
      </trkpt>
      <trkpt lat="45.808513266965747" lon="6.978258937597275">
        <ele>1965.55</ele>
        <time>2013-09-01T08:54:35Z</time>
      </trkpt>
      <trkpt lat="45.808599935844541" lon="6.978337895125151">
        <ele>1966.99</ele>
        <time>2013-09-01T08:54:49Z</time>
      </trkpt>
      <trkpt lat="45.808633379638195" lon="6.978291962295771">
        <ele>1969.4000000000001</ele>
        <time>2013-09-01T08:55:04Z</time>
      </trkpt>
      <trkpt lat="45.808687694370747" lon="6.978238737210631">
        <ele>1971.8</ele>
        <time>2013-09-01T08:55:20Z</time>
      </trkpt>
      <trkpt lat="45.808762544766068" lon="6.97825432755053">
        <ele>1974.2</ele>
        <time>2013-09-01T08:55:34Z</time>
      </trkpt>
      <trkpt lat="45.808738321065903" lon="6.978212334215641">
        <ele>1975.1700000000001</ele>
        <time>2013-09-01T08:55:45Z</time>
      </trkpt>
      <trkpt lat="45.808727759867907" lon="6.978196827694774">
        <ele>1975.6500000000001</ele>
        <time>2013-09-01T08:56:05Z</time>
      </trkpt>
      <trkpt lat="45.808739913627505" lon="6.978163719177246">
        <ele>1976.1300000000001</ele>
        <time>2013-09-01T08:56:17Z</time>
      </trkpt>
      <trkpt lat="45.808699764311314" lon="6.978164808824658">
        <ele>1976.1300000000001</ele>
        <time>2013-09-01T08:56:32Z</time>
      </trkpt>
      <trkpt lat="45.808703117072582" lon="6.978161204606295">
        <ele>1976.1300000000001</ele>
        <time>2013-09-01T08:56:55Z</time>
      </trkpt>
      <trkpt lat="45.808703200891614" lon="6.97817369364202">
        <ele>1975.6500000000001</ele>
        <time>2013-09-01T08:57:10Z</time>
      </trkpt>
      <trkpt lat="45.808717701584101" lon="6.978155756369233">
        <ele>1976.1300000000001</ele>
        <time>2013-09-01T08:57:48Z</time>
      </trkpt>
      <trkpt lat="45.808737399056554" lon="6.978124240413308">
        <ele>1976.6099999999999</ele>
        <time>2013-09-01T08:57:51Z</time>
      </trkpt>
      <trkpt lat="45.808729352429509" lon="6.977993650361896">
        <ele>1977.5699999999999</ele>
        <time>2013-09-01T08:58:06Z</time>
      </trkpt>
      <trkpt lat="45.808715019375086" lon="6.978019382804632">
        <ele>1977.5699999999999</ele>
        <time>2013-09-01T08:58:18Z</time>
      </trkpt>
      <trkpt lat="45.808748044073582" lon="6.978098591789603">
        <ele>1976.6099999999999</ele>
        <time>2013-09-01T08:58:29Z</time>
      </trkpt>
      <trkpt lat="45.808825828135014" lon="6.978183835744858">
        <ele>1978.05</ele>
        <time>2013-09-01T08:58:41Z</time>
      </trkpt>
      <trkpt lat="45.808849465101957" lon="6.978338230401278">
        <ele>1977.0899999999999</ele>
        <time>2013-09-01T08:58:55Z</time>
      </trkpt>
      <trkpt lat="45.808826331049204" lon="6.978361699730158">
        <ele>1977.5699999999999</ele>
        <time>2013-09-01T08:59:05Z</time>
      </trkpt>
      <trkpt lat="45.808812081813812" lon="6.978358430787921">
        <ele>1977.5699999999999</ele>
        <time>2013-09-01T08:59:23Z</time>
      </trkpt>
      <trkpt lat="45.80883982591331" lon="6.978370416909456">
        <ele>1978.05</ele>
        <time>2013-09-01T08:59:44Z</time>
      </trkpt>
      <trkpt lat="45.80885742790997" lon="6.978356502950192">
        <ele>1978.53</ele>
        <time>2013-09-01T08:59:57Z</time>
      </trkpt>
      <trkpt lat="45.808873437345028" lon="6.978346947580576">
        <ele>1978.05</ele>
        <time>2013-09-01T09:00:13Z</time>
      </trkpt>
      <trkpt lat="45.808864049613476" lon="6.978345941752195">
        <ele>1978.05</ele>
        <time>2013-09-01T09:00:39Z</time>
      </trkpt>
      <trkpt lat="45.80884569324553" lon="6.978358766064048">
        <ele>1978.05</ele>
        <time>2013-09-01T09:00:54Z</time>
      </trkpt>
      <trkpt lat="45.808854997158051" lon="6.978378966450691">
        <ele>1977.5699999999999</ele>
        <time>2013-09-01T09:01:11Z</time>
      </trkpt>
      <trkpt lat="45.808851309120655" lon="6.978395227342844">
        <ele>1978.53</ele>
        <time>2013-09-01T09:01:44Z</time>
      </trkpt>
      <trkpt lat="45.808849632740021" lon="6.97839455679059">
        <ele>1978.53</ele>
        <time>2013-09-01T09:02:09Z</time>
      </trkpt>
      <trkpt lat="45.808856505900621" lon="6.978359101340175">
        <ele>1979.01</ele>
        <time>2013-09-01T09:02:29Z</time>
      </trkpt>
      <trkpt lat="45.808850051835179" lon="6.978381229564548">
        <ele>1979.49</ele>
        <time>2013-09-01T09:02:55Z</time>
      </trkpt>
      <trkpt lat="45.808833874762058" lon="6.97840478271246">
        <ele>1979.97</ele>
        <time>2013-09-01T09:03:08Z</time>
      </trkpt>
      <trkpt lat="45.808818619698286" lon="6.978396149352193">
        <ele>1979.97</ele>
        <time>2013-09-01T09:03:27Z</time>
      </trkpt>
      <trkpt lat="45.808830270543694" lon="6.978365639224649">
        <ele>1979.97</ele>
        <time>2013-09-01T09:03:53Z</time>
      </trkpt>
      <trkpt lat="45.808861367404461" lon="6.97850645519793">
        <ele>1978.53</ele>
        <time>2013-09-01T09:04:07Z</time>
      </trkpt>
      <trkpt lat="45.808884082362056" lon="6.978526739403606">
        <ele>1978.53</ele>
        <time>2013-09-01T09:04:19Z</time>
      </trkpt>
      <trkpt lat="45.808932110667229" lon="6.978643080219626">
        <ele>1980.9300000000001</ele>
        <time>2013-09-01T09:04:36Z</time>
      </trkpt>
      <trkpt lat="45.808963878080249" lon="6.978574432432652">
        <ele>1983.3399999999999</ele>
        <time>2013-09-01T09:04:49Z</time>
      </trkpt>
      <trkpt lat="45.808994472026825" lon="6.978467646986246">
        <ele>1985.26</ele>
        <time>2013-09-01T09:05:02Z</time>
      </trkpt>
      <trkpt lat="45.809009140357375" lon="6.978444596752524">
        <ele>1986.7</ele>
        <time>2013-09-01T09:05:17Z</time>
      </trkpt>
      <trkpt lat="45.809044847264886" lon="6.978494552895427">
        <ele>1988.1400000000001</ele>
        <time>2013-09-01T09:05:28Z</time>
      </trkpt>
      <trkpt lat="45.809137634932995" lon="6.978589352220297">
        <ele>1990.55</ele>
        <time>2013-09-01T09:05:44Z</time>
      </trkpt>
      <trkpt lat="45.809153560549021" lon="6.978579293936491">
        <ele>1991.51</ele>
        <time>2013-09-01T09:05:46Z</time>
      </trkpt>
      <trkpt lat="45.809212317690253" lon="6.978592621162534">
        <ele>1993.4300000000001</ele>
        <time>2013-09-01T09:05:57Z</time>
      </trkpt>
      <trkpt lat="45.809236960485578" lon="6.97860904969275">
        <ele>1993.9100000000001</ele>
        <time>2013-09-01T09:06:01Z</time>
      </trkpt>
      <trkpt lat="45.80930451862514" lon="6.978697730228305">
        <ele>1995.8299999999999</ele>
        <time>2013-09-01T09:06:14Z</time>
      </trkpt>
      <trkpt lat="45.80936067737639" lon="6.978788338601589">
        <ele>1997.28</ele>
        <time>2013-09-01T09:06:28Z</time>
      </trkpt>
      <trkpt lat="45.809421362355351" lon="6.978838965296745">
        <ele>2000.1600000000001</ele>
        <time>2013-09-01T09:06:43Z</time>
      </trkpt>
      <trkpt lat="45.809486992657185" lon="6.978869726881385">
        <ele>2002.0799999999999</ele>
        <time>2013-09-01T09:06:56Z</time>
      </trkpt>
      <trkpt lat="45.809487830847502" lon="6.978905936703086">
        <ele>2002.0799999999999</ele>
        <time>2013-09-01T09:07:06Z</time>
      </trkpt>
      <trkpt lat="45.809502834454179" lon="6.978913983330131">
        <ele>2002.0799999999999</ele>
        <time>2013-09-01T09:07:14Z</time>
      </trkpt>
      <trkpt lat="45.809573074802756" lon="6.979064522311091">
        <ele>2003.52</ele>
        <time>2013-09-01T09:07:27Z</time>
      </trkpt>
      <trkpt lat="45.809578942134976" lon="6.979123614728451">
        <ele>2004.49</ele>
        <time>2013-09-01T09:07:32Z</time>
      </trkpt>
      <trkpt lat="45.809610206633806" lon="6.979196118190885">
        <ele>2005.9300000000001</ele>
        <time>2013-09-01T09:07:45Z</time>
      </trkpt>
      <trkpt lat="45.809637531638145" lon="6.979303909465671">
        <ele>2007.8499999999999</ele>
        <time>2013-09-01T09:07:57Z</time>
      </trkpt>
      <trkpt lat="45.809651864692569" lon="6.97940357029438">
        <ele>2009.77</ele>
        <time>2013-09-01T09:08:07Z</time>
      </trkpt>
      <trkpt lat="45.809664102271199" lon="6.979506500065327">
        <ele>2012.1800000000001</ele>
        <time>2013-09-01T09:08:20Z</time>
      </trkpt>
      <trkpt lat="45.809669550508261" lon="6.979506500065327">
        <ele>2012.1800000000001</ele>
        <time>2013-09-01T09:08:21Z</time>
      </trkpt>
      <trkpt lat="45.809699725359678" lon="6.979557294398546">
        <ele>2014.0999999999999</ele>
        <time>2013-09-01T09:08:28Z</time>
      </trkpt>
      <trkpt lat="45.809743562713265" lon="6.979664666578174">
        <ele>2015.54</ele>
        <time>2013-09-01T09:08:40Z</time>
      </trkpt>
      <trkpt lat="45.809796284884214" lon="6.979727111756802">
        <ele>2017.9400000000001</ele>
        <time>2013-09-01T09:08:52Z</time>
      </trkpt>
      <trkpt lat="45.80986300483346" lon="6.979752844199538">
        <ele>2019.8699999999999</ele>
        <time>2013-09-01T09:09:03Z</time>
      </trkpt>
      <trkpt lat="45.809918828308582" lon="6.979864491149783">
        <ele>2022.75</ele>
        <time>2013-09-01T09:09:18Z</time>
      </trkpt>
      <trkpt lat="45.809958055615425" lon="6.979932216927409">
        <ele>2023.71</ele>
        <time>2013-09-01T09:09:30Z</time>
      </trkpt>
      <trkpt lat="45.810019327327609" lon="6.979989884421229">
        <ele>2026.1199999999999</ele>
        <time>2013-09-01T09:09:43Z</time>
      </trkpt>
      <trkpt lat="45.810095015913248" lon="6.980015281587839">
        <ele>2029</ele>
        <time>2013-09-01T09:09:59Z</time>
      </trkpt>
      <trkpt lat="45.810089902952313" lon="6.980024836957455">
        <ele>2029.48</ele>
        <time>2013-09-01T09:10:17Z</time>
      </trkpt>
      <trkpt lat="45.810190150514245" lon="6.980033135041595">
        <ele>2031.8800000000001</ele>
        <time>2013-09-01T09:10:32Z</time>
      </trkpt>
      <trkpt lat="45.810244381427765" lon="6.979964571073651">
        <ele>2035.25</ele>
        <time>2013-09-01T09:10:45Z</time>
      </trkpt>
      <trkpt lat="45.81029836088419" lon="6.979892989620566">
        <ele>2037.6500000000001</ele>
        <time>2013-09-01T09:10:57Z</time>
      </trkpt>
      <trkpt lat="45.810360135510564" lon="6.979868179187179">
        <ele>2039.5699999999999</ele>
        <time>2013-09-01T09:11:07Z</time>
      </trkpt>
      <trkpt lat="45.810411432757974" lon="6.979783857241273">
        <ele>2041.02</ele>
        <time>2013-09-01T09:11:18Z</time>
      </trkpt>
      <trkpt lat="45.810416294261813" lon="6.979773715138435">
        <ele>2041.02</ele>
        <time>2013-09-01T09:11:19Z</time>
      </trkpt>
      <trkpt lat="45.810473626479506" lon="6.979673635214567">
        <ele>2042.46</ele>
        <time>2013-09-01T09:11:32Z</time>
      </trkpt>
      <trkpt lat="45.810455605387688" lon="6.979662403464317">
        <ele>2041.98</ele>
        <time>2013-09-01T09:11:54Z</time>
      </trkpt>
      <trkpt lat="45.810493156313896" lon="6.979650584980846">
        <ele>2041.98</ele>
        <time>2013-09-01T09:12:06Z</time>
      </trkpt>
      <trkpt lat="45.81050262786448" lon="6.979665504768491">
        <ele>2042.46</ele>
        <time>2013-09-01T09:12:25Z</time>
      </trkpt>
      <trkpt lat="45.81049726344645" lon="6.979703307151794">
        <ele>2042.9400000000001</ele>
        <time>2013-09-01T09:12:41Z</time>
      </trkpt>
      <trkpt lat="45.810507321730256" lon="6.979708587750793">
        <ele>2043.4200000000001</ele>
        <time>2013-09-01T09:12:55Z</time>
      </trkpt>
      <trkpt lat="45.810495419427752" lon="6.979737002402544">
        <ele>2043.9000000000001</ele>
        <time>2013-09-01T09:13:15Z</time>
      </trkpt>
      <trkpt lat="45.810504136607051" lon="6.979731973260641">
        <ele>2043.4200000000001</ele>
        <time>2013-09-01T09:13:34Z</time>
      </trkpt>
      <trkpt lat="45.810508327558637" lon="6.979732979089022">
        <ele>2043.9000000000001</ele>
        <time>2013-09-01T09:13:55Z</time>
      </trkpt>
      <trkpt lat="45.810516877099872" lon="6.97976365685463">
        <ele>2044.8599999999999</ele>
        <time>2013-09-01T09:14:13Z</time>
      </trkpt>
      <trkpt lat="45.810558618977666" lon="6.979860803112388">
        <ele>2045.3399999999999</ele>
        <time>2013-09-01T09:14:27Z</time>
      </trkpt>
      <trkpt lat="45.810567252337933" lon="6.97987848892808">
        <ele>2046.3</ele>
        <time>2013-09-01T09:14:29Z</time>
      </trkpt>
      <trkpt lat="45.810616873204708" lon="6.980011006817222">
        <ele>2048.23</ele>
        <time>2013-09-01T09:14:43Z</time>
      </trkpt>
      <trkpt lat="45.810654424130917" lon="6.980094658210874">
        <ele>2050.6300000000001</ele>
        <time>2013-09-01T09:14:57Z</time>
      </trkpt>
      <trkpt lat="45.810663979500532" lon="6.980196079239249">
        <ele>2053.0300000000002</ele>
        <time>2013-09-01T09:15:10Z</time>
      </trkpt>
      <trkpt lat="45.810655346140265" lon="6.980290543287993">
        <ele>2055.4400000000001</ele>
        <time>2013-09-01T09:15:23Z</time>
      </trkpt>
      <trkpt lat="45.810723155736923" lon="6.980273863300681">
        <ele>2057.8400000000001</ele>
        <time>2013-09-01T09:15:37Z</time>
      </trkpt>
      <trkpt lat="45.810778476297855" lon="6.980322813615203">
        <ele>2059.7600000000002</ele>
        <time>2013-09-01T09:15:50Z</time>
      </trkpt>
      <trkpt lat="45.810779063031077" lon="6.980375535786152">
        <ele>2062.1700000000001</ele>
        <time>2013-09-01T09:16:01Z</time>
      </trkpt>
      <trkpt lat="45.81080068834126" lon="6.980467569082975">
        <ele>2064.0900000000001</ele>
        <time>2013-09-01T09:16:15Z</time>
      </trkpt>
      <trkpt lat="45.810819296166301" lon="6.980542000383139">
        <ele>2066.9699999999998</ele>
        <time>2013-09-01T09:16:28Z</time>
      </trkpt>
      <trkpt lat="45.810835640877485" lon="6.980614755302668">
        <ele>2069.3800000000001</ele>
        <time>2013-09-01T09:16:41Z</time>
      </trkpt>
      <trkpt lat="45.810873862355947" lon="6.980581898242235">
        <ele>2071.7800000000002</ele>
        <time>2013-09-01T09:16:56Z</time>
      </trkpt>
      <trkpt lat="45.810889955610037" lon="6.980682732537389">
        <ele>2073.6999999999998</ele>
        <time>2013-09-01T09:17:11Z</time>
      </trkpt>
      <trkpt lat="45.81091895699501" lon="6.980733359232545">
        <ele>2076.0999999999999</ele>
        <time>2013-09-01T09:17:26Z</time>
      </trkpt>
      <trkpt lat="45.810945024713874" lon="6.980789434164763">
        <ele>2078.5100000000002</ele>
        <time>2013-09-01T09:17:41Z</time>
      </trkpt>
      <trkpt lat="45.810970421880484" lon="6.980841988697648">
        <ele>2080.4299999999998</ele>
        <time>2013-09-01T09:17:57Z</time>
      </trkpt>
      <trkpt lat="45.811007805168629" lon="6.980896219611168">
        <ele>2083.79</ele>
        <time>2013-09-01T09:18:10Z</time>
      </trkpt>
      <trkpt lat="45.811036722734571" lon="6.980940727517009">
        <ele>2087.1599999999999</ele>
        <time>2013-09-01T09:18:23Z</time>
      </trkpt>
      <trkpt lat="45.811046697199345" lon="6.98103804141283">
        <ele>2089.5599999999999</ele>
        <time>2013-09-01T09:18:36Z</time>
      </trkpt>
      <trkpt lat="45.811086343601346" lon="6.981058996170759">
        <ele>2091.4899999999998</ele>
        <time>2013-09-01T09:18:49Z</time>
      </trkpt>
      <trkpt lat="45.81111878156662" lon="6.981132840737701">
        <ele>2093.8899999999999</ele>
        <time>2013-09-01T09:19:02Z</time>
      </trkpt>
      <trkpt lat="45.811183908954263" lon="6.98121196590364">
        <ele>2097.25</ele>
        <time>2013-09-01T09:19:19Z</time>
      </trkpt>
      <trkpt lat="45.811217855662107" lon="6.981289917603135">
        <ele>2099.1799999999998</ele>
        <time>2013-09-01T09:19:30Z</time>
      </trkpt>
      <trkpt lat="45.811256496235728" lon="6.981371305882931">
        <ele>2101.0999999999999</ele>
        <time>2013-09-01T09:19:45Z</time>
      </trkpt>
      <trkpt lat="45.811319276690483" lon="6.98147683404386">
        <ele>2103.5</ele>
        <time>2013-09-01T09:20:00Z</time>
      </trkpt>
      <trkpt lat="45.811396222561598" lon="6.981578338891268">
        <ele>2105.9099999999999</ele>
        <time>2013-09-01T09:20:16Z</time>
      </trkpt>
      <trkpt lat="45.811388259753585" lon="6.981516480445862">
        <ele>2107.3499999999999</ele>
        <time>2013-09-01T09:20:29Z</time>
      </trkpt>
      <trkpt lat="45.81138901412487" lon="6.98143576271832">
        <ele>2109.75</ele>
        <time>2013-09-01T09:20:44Z</time>
      </trkpt>
      <trkpt lat="45.81139974296093" lon="6.98136149905622">
        <ele>2111.6700000000001</ele>
        <time>2013-09-01T09:20:56Z</time>
      </trkpt>
      <trkpt lat="45.811411309987307" lon="6.981249181553721">
        <ele>2113.5999999999999</ele>
        <time>2013-09-01T09:21:09Z</time>
      </trkpt>
      <trkpt lat="45.811430588364601" lon="6.981140552088618">
        <ele>2116</ele>
        <time>2013-09-01T09:21:23Z</time>
      </trkpt>
      <trkpt lat="45.811455566436052" lon="6.981046926230192">
        <ele>2118.8800000000001</ele>
        <time>2013-09-01T09:21:36Z</time>
      </trkpt>
      <trkpt lat="45.811501163989305" lon="6.9809705670923">
        <ele>2121.29</ele>
        <time>2013-09-01T09:21:49Z</time>
      </trkpt>
      <trkpt lat="45.811529913917184" lon="6.980998981744051">
        <ele>2123.21</ele>
        <time>2013-09-01T09:22:01Z</time>
      </trkpt>
      <trkpt lat="45.811560340225697" lon="6.981037957593799">
        <ele>2124.1700000000001</ele>
        <time>2013-09-01T09:22:18Z</time>
      </trkpt>
      <trkpt lat="45.811609541997313" lon="6.981109203770757">
        <ele>2127.0500000000002</ele>
        <time>2013-09-01T09:22:33Z</time>
      </trkpt>
      <trkpt lat="45.811661928892136" lon="6.981105012819171">
        <ele>2129.9400000000001</ele>
        <time>2013-09-01T09:22:47Z</time>
      </trkpt>
      <trkpt lat="45.81172026693821" lon="6.981030832976103">
        <ele>2131.8600000000001</ele>
        <time>2013-09-01T09:23:02Z</time>
      </trkpt>
      <trkpt lat="45.8117691334337" lon="6.980956150218844">
        <ele>2134.7399999999998</ele>
        <time>2013-09-01T09:23:16Z</time>
      </trkpt>
      <trkpt lat="45.811805929988623" lon="6.980904936790466">
        <ele>2136.6700000000001</ele>
        <time>2013-09-01T09:23:27Z</time>
      </trkpt>
      <trkpt lat="45.811855886131525" lon="6.980839557945728">
        <ele>2139.0700000000002</ele>
        <time>2013-09-01T09:23:43Z</time>
      </trkpt>
      <trkpt lat="45.811923444271088" lon="6.980840731412172">
        <ele>2140.9899999999998</ele>
        <time>2013-09-01T09:23:56Z</time>
      </trkpt>
      <trkpt lat="45.811922522261739" lon="6.980850538238883">
        <ele>2140.9899999999998</ele>
        <time>2013-09-01T09:24:13Z</time>
      </trkpt>
      <trkpt lat="45.811927886679769" lon="6.980854896828532">
        <ele>2140.9899999999998</ele>
        <time>2013-09-01T09:24:35Z</time>
      </trkpt>
      <trkpt lat="45.811936184763908" lon="6.980843916535378">
        <ele>2140.9899999999998</ele>
        <time>2013-09-01T09:24:55Z</time>
      </trkpt>
      <trkpt lat="45.811954624950886" lon="6.9809031765908">
        <ele>2143.4000000000001</ele>
        <time>2013-09-01T09:25:08Z</time>
      </trkpt>
      <trkpt lat="45.812006341293454" lon="6.980945505201817">
        <ele>2146.7600000000002</ele>
        <time>2013-09-01T09:25:22Z</time>
      </trkpt>
      <trkpt lat="45.812088064849377" lon="6.980950366705656">
        <ele>2149.1599999999999</ele>
        <time>2013-09-01T09:25:36Z</time>
      </trkpt>
      <trkpt lat="45.812038443982601" lon="6.981074586510658">
        <ele>2151.5700000000002</ele>
        <time>2013-09-01T09:25:49Z</time>
      </trkpt>
      <trkpt lat="45.812081191688776" lon="6.981138708069921">
        <ele>2153.9699999999998</ele>
        <time>2013-09-01T09:26:05Z</time>
      </trkpt>
      <trkpt lat="45.812145648524165" lon="6.981163183227181">
        <ele>2156.3699999999999</ele>
        <time>2013-09-01T09:26:18Z</time>
      </trkpt>
      <trkpt lat="45.812197364866734" lon="6.981204086914659">
        <ele>2158.7800000000002</ele>
        <time>2013-09-01T09:26:30Z</time>
      </trkpt>
      <trkpt lat="45.812212787568569" lon="6.98131020180881">
        <ele>2161.6599999999999</ele>
        <time>2013-09-01T09:26:44Z</time>
      </trkpt>
      <trkpt lat="45.812248913571239" lon="6.98136736638844">
        <ele>2163.5799999999999</ele>
        <time>2013-09-01T09:26:56Z</time>
      </trkpt>
      <trkpt lat="45.812276657670736" lon="6.981456466019154">
        <ele>2166.9499999999998</ele>
        <time>2013-09-01T09:27:10Z</time>
      </trkpt>
      <trkpt lat="45.812239274382591" lon="6.981537435203791">
        <ele>2169.3499999999999</ele>
        <time>2013-09-01T09:27:23Z</time>
      </trkpt>
      <trkpt lat="45.812272215262055" lon="6.981592420488596">
        <ele>2170.79</ele>
        <time>2013-09-01T09:27:34Z</time>
      </trkpt>
      <trkpt lat="45.812322087585926" lon="6.981669617816806">
        <ele>2172.7199999999998</ele>
        <time>2013-09-01T09:27:48Z</time>
      </trkpt>
      <trkpt lat="45.812317812815309" lon="6.981675988063216">
        <ele>2173.1999999999998</ele>
        <time>2013-09-01T09:28:02Z</time>
      </trkpt>
      <trkpt lat="45.812319321557879" lon="6.981687052175403">
        <ele>2173.6799999999998</ele>
        <time>2013-09-01T09:28:18Z</time>
      </trkpt>
      <trkpt lat="45.812325021252036" lon="6.981676910072565">
        <ele>2174.1599999999999</ele>
        <time>2013-09-01T09:28:33Z</time>
      </trkpt>
      <trkpt lat="45.812328793108463" lon="6.981696439906955">
        <ele>2174.6399999999999</ele>
        <time>2013-09-01T09:28:53Z</time>
      </trkpt>
      <trkpt lat="45.812309347093105" lon="6.981712365522981">
        <ele>2174.6399999999999</ele>
        <time>2013-09-01T09:29:13Z</time>
      </trkpt>
      <trkpt lat="45.812323680147529" lon="6.981680681928992">
        <ele>2174.1599999999999</ele>
        <time>2013-09-01T09:29:33Z</time>
      </trkpt>
      <trkpt lat="45.812338264659047" lon="6.981724686920643">
        <ele>2174.6399999999999</ele>
        <time>2013-09-01T09:29:53Z</time>
      </trkpt>
      <trkpt lat="45.812383526936173" lon="6.981789227575064">
        <ele>2177.04</ele>
        <time>2013-09-01T09:30:05Z</time>
      </trkpt>
      <trkpt lat="45.812440272420645" lon="6.981852259486914">
        <ele>2180.4099999999999</ele>
        <time>2013-09-01T09:30:18Z</time>
      </trkpt>
      <trkpt lat="45.812502885237336" lon="6.981922751292586">
        <ele>2182.8099999999999</ele>
        <time>2013-09-01T09:30:33Z</time>
      </trkpt>
      <trkpt lat="45.81254705786705" lon="6.981985447928309">
        <ele>2184.73</ele>
        <time>2013-09-01T09:30:45Z</time>
      </trkpt>
      <trkpt lat="45.812570191919804" lon="6.982058957219124">
        <ele>2186.1799999999998</ele>
        <time>2013-09-01T09:30:56Z</time>
      </trkpt>
      <trkpt lat="45.812578154727817" lon="6.982168676331639">
        <ele>2189.0599999999999</ele>
        <time>2013-09-01T09:31:11Z</time>
      </trkpt>
      <trkpt lat="45.812614280730486" lon="6.982245873659849">
        <ele>2191.46</ele>
        <time>2013-09-01T09:31:24Z</time>
      </trkpt>
      <trkpt lat="45.812653508037329" lon="6.982301445677877">
        <ele>2193.8699999999999</ele>
        <time>2013-09-01T09:31:38Z</time>
      </trkpt>
      <trkpt lat="45.812692567706108" lon="6.982383336871862">
        <ele>2195.79</ele>
        <time>2013-09-01T09:31:55Z</time>
      </trkpt>
      <trkpt lat="45.81272098235786" lon="6.982420803979039">
        <ele>2197.23</ele>
        <time>2013-09-01T09:32:04Z</time>
      </trkpt>
      <trkpt lat="45.812746295705438" lon="6.982453996315599">
        <ele>2198.6700000000001</ele>
        <time>2013-09-01T09:32:10Z</time>
      </trkpt>
      <trkpt lat="45.812825756147504" lon="6.982532367110252">
        <ele>2201.0799999999999</ele>
        <time>2013-09-01T09:32:28Z</time>
      </trkpt>
      <trkpt lat="45.812898511067033" lon="6.982589783146977">
        <ele>2203</ele>
        <time>2013-09-01T09:32:42Z</time>
      </trkpt>
      <trkpt lat="45.812966153025627" lon="6.982661364600062">
        <ele>2205.4000000000001</ele>
        <time>2013-09-01T09:32:57Z</time>
      </trkpt>
      <trkpt lat="45.813006721436977" lon="6.982750715687871">
        <ele>2208.29</ele>
        <time>2013-09-01T09:33:11Z</time>
      </trkpt>
      <trkpt lat="45.8130625449121" lon="6.982820956036449">
        <ele>2210.6900000000001</ele>
        <time>2013-09-01T09:33:25Z</time>
      </trkpt>
      <trkpt lat="45.813136138021946" lon="6.982864206656814">
        <ele>2212.1300000000001</ele>
        <time>2013-09-01T09:33:38Z</time>
      </trkpt>
      <trkpt lat="45.813198918476701" lon="6.982918940484524">
        <ele>2215.0100000000002</ele>
        <time>2013-09-01T09:33:53Z</time>
      </trkpt>
      <trkpt lat="45.81325164064765" lon="6.9829788710922">
        <ele>2216.9400000000001</ele>
        <time>2013-09-01T09:34:06Z</time>
      </trkpt>
      <trkpt lat="45.813289023935795" lon="6.983000496402383">
        <ele>2219.8200000000002</ele>
        <time>2013-09-01T09:34:21Z</time>
      </trkpt>
      <trkpt lat="45.813302854076028" lon="6.983009045943618">
        <ele>2220.3000000000002</ele>
        <time>2013-09-01T09:34:41Z</time>
      </trkpt>
      <trkpt lat="45.813386421650648" lon="6.983090937137604">
        <ele>2222.71</ele>
        <time>2013-09-01T09:34:57Z</time>
      </trkpt>
      <trkpt lat="45.813441323116422" lon="6.983138462528586">
        <ele>2225.1100000000001</ele>
        <time>2013-09-01T09:35:12Z</time>
      </trkpt>
      <trkpt lat="45.813458086922765" lon="6.983172409236431">
        <ele>2225.5900000000001</ele>
        <time>2013-09-01T09:35:36Z</time>
      </trkpt>
      <trkpt lat="45.813539307564497" lon="6.983207864686847">
        <ele>2227.9899999999998</ele>
        <time>2013-09-01T09:35:52Z</time>
      </trkpt>
      <trkpt lat="45.81358440220356" lon="6.983242314308882">
        <ele>2229.9200000000001</ele>
        <time>2013-09-01T09:36:07Z</time>
      </trkpt>
      <trkpt lat="45.813588174059987" lon="6.983247175812721">
        <ele>2229.9200000000001</ele>
        <time>2013-09-01T09:36:26Z</time>
      </trkpt>
      <trkpt lat="45.813621282577515" lon="6.983265364542604">
        <ele>2230.4000000000001</ele>
        <time>2013-09-01T09:36:40Z</time>
      </trkpt>
      <trkpt lat="45.813661431893706" lon="6.983306603506208">
        <ele>2231.3600000000001</ele>
        <time>2013-09-01T09:36:58Z</time>
      </trkpt>
      <trkpt lat="45.813661096617579" lon="6.983354212716222">
        <ele>2232.3200000000002</ele>
        <time>2013-09-01T09:37:02Z</time>
      </trkpt>
      <trkpt lat="45.813658414408565" lon="6.983400899916887">
        <ele>2233.7600000000002</ele>
        <time>2013-09-01T09:37:14Z</time>
      </trkpt>
      <trkpt lat="45.813669478520751" lon="6.983400480821729">
        <ele>2234.2399999999998</ele>
        <time>2013-09-01T09:37:39Z</time>
      </trkpt>
      <trkpt lat="45.813667885959148" lon="6.983402073383331">
        <ele>2233.7600000000002</ele>
        <time>2013-09-01T09:38:02Z</time>
      </trkpt>
      <trkpt lat="45.813687415793538" lon="6.983394613489509">
        <ele>2234.2399999999998</ele>
        <time>2013-09-01T09:38:15Z</time>
      </trkpt>
      <trkpt lat="45.813723206520081" lon="6.983425291255117">
        <ele>2234.7199999999998</ele>
        <time>2013-09-01T09:38:30Z</time>
      </trkpt>
      <trkpt lat="45.813749777153134" lon="6.983448173850775">
        <ele>2235.1999999999998</ele>
        <time>2013-09-01T09:38:48Z</time>
      </trkpt>
      <trkpt lat="45.813855808228254" lon="6.983546074479818">
        <ele>2236.6399999999999</ele>
        <time>2013-09-01T09:39:03Z</time>
      </trkpt>
      <trkpt lat="45.813918840140104" lon="6.983594186604023">
        <ele>2237.1300000000001</ele>
        <time>2013-09-01T09:39:12Z</time>
      </trkpt>
      <trkpt lat="45.814001485705376" lon="6.983644058927894">
        <ele>2238.0900000000001</ele>
        <time>2013-09-01T09:39:24Z</time>
      </trkpt>
      <trkpt lat="45.814080443233252" lon="6.983716981485486">
        <ele>2240.9699999999998</ele>
        <time>2013-09-01T09:39:38Z</time>
      </trkpt>
      <trkpt lat="45.814145738258958" lon="6.983828125521541">
        <ele>2243.3699999999999</ele>
        <time>2013-09-01T09:39:52Z</time>
      </trkpt>
      <trkpt lat="45.814177421852946" lon="6.983883446082473">
        <ele>2244.3299999999999</ele>
        <time>2013-09-01T09:39:59Z</time>
      </trkpt>
      <trkpt lat="45.814247410744429" lon="6.984023340046406">
        <ele>2246.2600000000002</ele>
        <time>2013-09-01T09:40:15Z</time>
      </trkpt>
      <trkpt lat="45.814309939742088" lon="6.984135322272778">
        <ele>2248.1799999999998</ele>
        <time>2013-09-01T09:40:30Z</time>
      </trkpt>
      <trkpt lat="45.814379844814539" lon="6.984201036393642">
        <ele>2249.1399999999999</ele>
        <time>2013-09-01T09:40:42Z</time>
      </trkpt>
      <trkpt lat="45.814380012452602" lon="6.984210424125195">
        <ele>2250.0999999999999</ele>
        <time>2013-09-01T09:40:44Z</time>
      </trkpt>
      <trkpt lat="45.814373977482319" lon="6.984219057485461">
        <ele>2249.1399999999999</ele>
        <time>2013-09-01T09:40:51Z</time>
      </trkpt>
      <trkpt lat="45.814388561993837" lon="6.984233139082789">
        <ele>2249.1399999999999</ele>
        <time>2013-09-01T09:40:53Z</time>
      </trkpt>
      <trkpt lat="45.814479673281312" lon="6.984310336410999">
        <ele>2251.0599999999999</ele>
        <time>2013-09-01T09:41:07Z</time>
      </trkpt>
      <trkpt lat="45.814564414322376" lon="6.984352329745889">
        <ele>2254.4299999999998</ele>
        <time>2013-09-01T09:41:21Z</time>
      </trkpt>
      <trkpt lat="45.814617723226547" lon="6.984387952834368">
        <ele>2254.9099999999999</ele>
        <time>2013-09-01T09:41:35Z</time>
      </trkpt>
      <trkpt lat="45.814601462334394" lon="6.98442324064672">
        <ele>2254.9099999999999</ele>
        <time>2013-09-01T09:41:49Z</time>
      </trkpt>
      <trkpt lat="45.814620740711689" lon="6.984443189576268">
        <ele>2255.8699999999999</ele>
        <time>2013-09-01T09:41:59Z</time>
      </trkpt>
      <trkpt lat="45.814647562801838" lon="6.984423911198974">
        <ele>2255.8699999999999</ele>
        <time>2013-09-01T09:42:17Z</time>
      </trkpt>
      <trkpt lat="45.814653094857931" lon="6.984423492103815">
        <ele>2255.3899999999999</ele>
        <time>2013-09-01T09:42:44Z</time>
      </trkpt>
      <trkpt lat="45.814657369628549" lon="6.984422150999308">
        <ele>2254.9099999999999</ele>
        <time>2013-09-01T09:43:19Z</time>
      </trkpt>
      <trkpt lat="45.814633145928383" lon="6.984436735510826">
        <ele>2255.3899999999999</ele>
        <time>2013-09-01T09:43:46Z</time>
      </trkpt>
      <trkpt lat="45.814610766246915" lon="6.984424246475101">
        <ele>2254.9099999999999</ele>
        <time>2013-09-01T09:44:06Z</time>
      </trkpt>
      <trkpt lat="45.814604731276631" lon="6.984417792409658">
        <ele>2255.3899999999999</ele>
        <time>2013-09-01T09:44:43Z</time>
      </trkpt>
      <trkpt lat="45.814611939713359" lon="6.984421061351895">
        <ele>2255.3899999999999</ele>
        <time>2013-09-01T09:45:18Z</time>
      </trkpt>
      <trkpt lat="45.814614202827215" lon="6.984413685277104">
        <ele>2255.3899999999999</ele>
        <time>2013-09-01T09:45:56Z</time>
      </trkpt>
      <trkpt lat="45.814608670771122" lon="6.984415696933866">
        <ele>2255.8699999999999</ele>
        <time>2013-09-01T09:46:41Z</time>
      </trkpt>
      <trkpt lat="45.814607329666615" lon="6.984417205676436">
        <ele>2255.8699999999999</ele>
        <time>2013-09-01T09:47:26Z</time>
      </trkpt>
      <trkpt lat="45.814599450677633" lon="6.984420558437705">
        <ele>2255.3899999999999</ele>
        <time>2013-09-01T09:47:45Z</time>
      </trkpt>
      <trkpt lat="45.814604479819536" lon="6.984428018331528">
        <ele>2255.8699999999999</ele>
        <time>2013-09-01T09:48:10Z</time>
      </trkpt>
      <trkpt lat="45.814611436799169" lon="6.984426341950893">
        <ele>2255.8699999999999</ele>
        <time>2013-09-01T09:48:38Z</time>
      </trkpt>
      <trkpt lat="45.814603893086314" lon="6.984429191797972">
        <ele>2256.3499999999999</ele>
        <time>2013-09-01T09:49:12Z</time>
      </trkpt>
      <trkpt lat="45.81460515037179" lon="6.984433298930526">
        <ele>2255.8699999999999</ele>
        <time>2013-09-01T09:49:39Z</time>
      </trkpt>
      <trkpt lat="45.814610850065947" lon="6.984432796016336">
        <ele>2255.8699999999999</ele>
        <time>2013-09-01T09:50:09Z</time>
      </trkpt>
      <trkpt lat="45.814613196998835" lon="6.984428269788623">
        <ele>2255.8699999999999</ele>
        <time>2013-09-01T09:50:33Z</time>
      </trkpt>
      <trkpt lat="45.81460758112371" lon="6.984434220939875">
        <ele>2255.8699999999999</ele>
        <time>2013-09-01T09:51:00Z</time>
      </trkpt>
      <trkpt lat="45.814609425142407" lon="6.984430784359574">
        <ele>2255.3899999999999</ele>
        <time>2013-09-01T09:51:26Z</time>
      </trkpt>
      <trkpt lat="45.814617723226547" lon="6.984434723854065">
        <ele>2255.8699999999999</ele>
        <time>2013-09-01T09:51:49Z</time>
      </trkpt>
      <trkpt lat="45.814606910571456" lon="6.984433298930526">
        <ele>2255.8699999999999</ele>
        <time>2013-09-01T09:52:12Z</time>
      </trkpt>
      <trkpt lat="45.814612107351422" lon="6.984428940340877">
        <ele>2256.3499999999999</ele>
        <time>2013-09-01T09:52:40Z</time>
      </trkpt>
      <trkpt lat="45.814603306353092" lon="6.984439752995968">
        <ele>2256.3499999999999</ele>
        <time>2013-09-01T09:53:05Z</time>
      </trkpt>
      <trkpt lat="45.814606240019202" lon="6.984438328072429">
        <ele>2256.8299999999999</ele>
        <time>2013-09-01T09:53:30Z</time>
      </trkpt>
      <trkpt lat="45.814606742933393" lon="6.98443740606308">
        <ele>2256.8299999999999</ele>
        <time>2013-09-01T09:53:50Z</time>
      </trkpt>
      <trkpt lat="45.814598025754094" lon="6.984416786581278">
        <ele>2258.27</ele>
        <time>2013-09-01T09:54:14Z</time>
      </trkpt>
      <trkpt lat="45.814611855894327" lon="6.984408488497138">
        <ele>2258.75</ele>
        <time>2013-09-01T09:54:30Z</time>
      </trkpt>
      <trkpt lat="45.814615292474627" lon="6.984433466568589">
        <ele>2256.8299999999999</ele>
        <time>2013-09-01T09:54:45Z</time>
      </trkpt>
      <trkpt lat="45.814616130664945" lon="6.984429443255067">
        <ele>2256.8299999999999</ele>
        <time>2013-09-01T09:55:04Z</time>
      </trkpt>
      <trkpt lat="45.814614370465279" lon="6.984421312808991">
        <ele>2257.3099999999999</ele>
        <time>2013-09-01T09:55:20Z</time>
      </trkpt>
      <trkpt lat="45.814622500911355" lon="6.984419468790293">
        <ele>2257.3099999999999</ele>
        <time>2013-09-01T09:55:50Z</time>
      </trkpt>
      <trkpt lat="45.814618142321706" lon="6.984425252303481">
        <ele>2257.3099999999999</ele>
        <time>2013-09-01T09:56:15Z</time>
      </trkpt>
      <trkpt lat="45.814643371850252" lon="6.984492223709822">
        <ele>2260.6799999999998</ele>
        <time>2013-09-01T09:56:24Z</time>
      </trkpt>
      <trkpt lat="45.814650412648916" lon="6.9844985101372">
        <ele>2260.6799999999998</ele>
        <time>2013-09-01T09:56:25Z</time>
      </trkpt>
      <trkpt lat="45.814689556136727" lon="6.984563134610653">
        <ele>2262.1199999999999</ele>
        <time>2013-09-01T09:56:32Z</time>
      </trkpt>
      <trkpt lat="45.81469165161252" lon="6.984573444351554">
        <ele>2262.1199999999999</ele>
        <time>2013-09-01T09:56:33Z</time>
      </trkpt>
      <trkpt lat="45.814753007143736" lon="6.984708476811647">
        <ele>2258.27</ele>
        <time>2013-09-01T09:56:45Z</time>
      </trkpt>
      <trkpt lat="45.814797431230545" lon="6.984763629734516">
        <ele>2258.75</ele>
        <time>2013-09-01T09:56:51Z</time>
      </trkpt>
      <trkpt lat="45.814838334918022" lon="6.984811993315816">
        <ele>2259.2399999999998</ele>
        <time>2013-09-01T09:56:57Z</time>
      </trkpt>
      <trkpt lat="45.814913017675281" lon="6.984900590032339">
        <ele>2260.6799999999998</ele>
        <time>2013-09-01T09:57:08Z</time>
      </trkpt>
      <trkpt lat="45.815001782029867" lon="6.98503939434886">
        <ele>2263.0799999999999</ele>
        <time>2013-09-01T09:57:23Z</time>
      </trkpt>
      <trkpt lat="45.815073698759079" lon="6.98515716008842">
        <ele>2265</ele>
        <time>2013-09-01T09:57:36Z</time>
      </trkpt>
      <trkpt lat="45.815149806439877" lon="6.98525195941329">
        <ele>2265.48</ele>
        <time>2013-09-01T09:57:47Z</time>
      </trkpt>
      <trkpt lat="45.815249383449554" lon="6.985367964953184">
        <ele>2265.48</ele>
        <time>2013-09-01T09:58:00Z</time>
      </trkpt>
      <trkpt lat="45.815258268266916" lon="6.985376933589578">
        <ele>2265.48</ele>
        <time>2013-09-01T09:58:01Z</time>
      </trkpt>
      <trkpt lat="45.815349044278264" lon="6.985516073182225">
        <ele>2266.4499999999998</ele>
        <time>2013-09-01T09:58:15Z</time>
      </trkpt>
      <trkpt lat="45.815404448658228" lon="6.985580613836646">
        <ele>2266.9299999999998</ele>
        <time>2013-09-01T09:58:22Z</time>
      </trkpt>
      <trkpt lat="45.81545926630497" lon="6.985636688768864">
        <ele>2267.4099999999999</ele>
        <time>2013-09-01T09:58:29Z</time>
      </trkpt>
      <trkpt lat="45.815563872456551" lon="6.985816564410925">
        <ele>2269.3299999999999</ele>
        <time>2013-09-01T09:58:46Z</time>
      </trkpt>
      <trkpt lat="45.815663365647197" lon="6.985918488353491">
        <ele>2269.8099999999999</ele>
        <time>2013-09-01T09:59:00Z</time>
      </trkpt>
      <trkpt lat="45.815822537988424" lon="6.985973389819264">
        <ele>2269.3299999999999</ele>
        <time>2013-09-01T09:59:17Z</time>
      </trkpt>
      <trkpt lat="45.815977770835161" lon="6.986099118366838">
        <ele>2269.3299999999999</ele>
        <time>2013-09-01T09:59:33Z</time>
      </trkpt>
      <trkpt lat="45.816051363945007" lon="6.986172711476684">
        <ele>2270.29</ele>
        <time>2013-09-01T09:59:43Z</time>
      </trkpt>
      <trkpt lat="45.816151695325971" lon="6.986284106969833">
        <ele>2271.73</ele>
        <time>2013-09-01T09:59:56Z</time>
      </trkpt>
      <trkpt lat="45.816239956766367" lon="6.986419726163149">
        <ele>2273.6599999999999</ele>
        <time>2013-09-01T10:00:11Z</time>
      </trkpt>
      <trkpt lat="45.816322434693575" lon="6.986555429175496">
        <ele>2274.6199999999999</ele>
        <time>2013-09-01T10:00:24Z</time>
      </trkpt>
      <trkpt lat="45.8164023142308" lon="6.986665148288012">
        <ele>2275.0999999999999</ele>
        <time>2013-09-01T10:00:35Z</time>
      </trkpt>
      <trkpt lat="45.816490491852164" lon="6.986853070557118">
        <ele>2273.6599999999999</ele>
        <time>2013-09-01T10:00:49Z</time>
      </trkpt>
      <trkpt lat="45.816641114652157" lon="6.987104527652264">
        <ele>2273.1700000000001</ele>
        <time>2013-09-01T10:01:08Z</time>
      </trkpt>
      <trkpt lat="45.81678687594831" lon="6.987323630601168">
        <ele>2272.6900000000001</ele>
        <time>2013-09-01T10:01:25Z</time>
      </trkpt>
      <trkpt lat="45.816828534007072" lon="6.987477019429207">
        <ele>2272.21</ele>
        <time>2013-09-01T10:01:34Z</time>
      </trkpt>
      <trkpt lat="45.816936995834112" lon="6.987642059102655">
        <ele>2273.1700000000001</ele>
        <time>2013-09-01T10:01:50Z</time>
      </trkpt>
      <trkpt lat="45.817060628905892" lon="6.987736606970429">
        <ele>2270.77</ele>
        <time>2013-09-01T10:02:02Z</time>
      </trkpt>
      <trkpt lat="45.81709030084312" lon="6.98787440545857">
        <ele>2267.8899999999999</ele>
        <time>2013-09-01T10:02:11Z</time>
      </trkpt>
      <trkpt lat="45.81711427308619" lon="6.987924110144377">
        <ele>2266.9299999999998</ele>
        <time>2013-09-01T10:02:15Z</time>
      </trkpt>
      <trkpt lat="45.817134724929929" lon="6.987959230318666">
        <ele>2266.4499999999998</ele>
        <time>2013-09-01T10:02:18Z</time>
      </trkpt>
      <trkpt lat="45.81717730499804" lon="6.988162072375417">
        <ele>2265</ele>
        <time>2013-09-01T10:02:31Z</time>
      </trkpt>
      <trkpt lat="45.817201696336269" lon="6.988190403208137">
        <ele>2265.96</ele>
        <time>2013-09-01T10:02:35Z</time>
      </trkpt>
      <trkpt lat="45.817257519811392" lon="6.988329375162721">
        <ele>2266.9299999999998</ele>
        <time>2013-09-01T10:02:47Z</time>
      </trkpt>
      <trkpt lat="45.817284341901541" lon="6.988450912758708">
        <ele>2268.8499999999999</ele>
        <time>2013-09-01T10:02:56Z</time>
      </trkpt>
      <trkpt lat="45.817293645814061" lon="6.988539593294263">
        <ele>2268.8499999999999</ele>
        <time>2013-09-01T10:03:03Z</time>
      </trkpt>
      <trkpt lat="45.817305715754628" lon="6.988708404824138">
        <ele>2269.8099999999999</ele>
        <time>2013-09-01T10:03:17Z</time>
      </trkpt>
      <trkpt lat="45.817305129021406" lon="6.988720474764705">
        <ele>2269.8099999999999</ele>
        <time>2013-09-01T10:03:18Z</time>
      </trkpt>
      <trkpt lat="45.817324407398701" lon="6.988817704841495">
        <ele>2270.77</ele>
        <time>2013-09-01T10:03:27Z</time>
      </trkpt>
      <trkpt lat="45.817318707704544" lon="6.989033790305257">
        <ele>2271.25</ele>
        <time>2013-09-01T10:03:41Z</time>
      </trkpt>
      <trkpt lat="45.817357264459133" lon="6.98922892101109">
        <ele>2272.6900000000001</ele>
        <time>2013-09-01T10:03:55Z</time>
      </trkpt>
      <trkpt lat="45.817453488707542" lon="6.989438636228442">
        <ele>2273.1700000000001</ele>
        <time>2013-09-01T10:04:10Z</time>
      </trkpt>
      <trkpt lat="45.817493470385671" lon="6.989549780264497">
        <ele>2273.1700000000001</ele>
        <time>2013-09-01T10:04:18Z</time>
      </trkpt>
      <trkpt lat="45.817556586116552" lon="6.989750526845455">
        <ele>2274.1399999999999</ele>
        <time>2013-09-01T10:04:32Z</time>
      </trkpt>
      <trkpt lat="45.817604698240757" lon="6.98994280770421">
        <ele>2276.0599999999999</ele>
        <time>2013-09-01T10:04:47Z</time>
      </trkpt>
      <trkpt lat="45.817623222246766" lon="6.990090664476156">
        <ele>2277.5</ele>
        <time>2013-09-01T10:04:58Z</time>
      </trkpt>
      <trkpt lat="45.817633029073477" lon="6.990125784650445">
        <ele>2277.98</ele>
        <time>2013-09-01T10:05:01Z</time>
      </trkpt>
      <trkpt lat="45.817681644111872" lon="6.990271462127566">
        <ele>2278.9400000000001</ele>
        <time>2013-09-01T10:05:13Z</time>
      </trkpt>
      <trkpt lat="45.817688014358282" lon="6.990371458232403">
        <ele>2280.3800000000001</ele>
        <time>2013-09-01T10:05:21Z</time>
      </trkpt>
      <trkpt lat="45.817691618576646" lon="6.990608833730221">
        <ele>2280.3800000000001</ele>
        <time>2013-09-01T10:05:38Z</time>
      </trkpt>
      <trkpt lat="45.817692456766963" lon="6.990712182596326">
        <ele>2280.8699999999999</ele>
        <time>2013-09-01T10:05:46Z</time>
      </trkpt>
      <trkpt lat="45.81772799603641" lon="6.990844197571278">
        <ele>2282.79</ele>
        <time>2013-09-01T10:05:58Z</time>
      </trkpt>
      <trkpt lat="45.817801086232066" lon="6.990973362699151">
        <ele>2284.23</ele>
        <time>2013-09-01T10:06:12Z</time>
      </trkpt>
      <trkpt lat="45.817849282175303" lon="6.991064138710499">
        <ele>2285.6700000000001</ele>
        <time>2013-09-01T10:06:23Z</time>
      </trkpt>
      <trkpt lat="45.817932682111859" lon="6.991208139806986">
        <ele>2286.6300000000001</ele>
        <time>2013-09-01T10:06:37Z</time>
      </trkpt>
      <trkpt lat="45.817988840863109" lon="6.991315763443708">
        <ele>2287.5900000000001</ele>
        <time>2013-09-01T10:06:47Z</time>
      </trkpt>
      <trkpt lat="45.818033097311854" lon="6.991433193907142">
        <ele>2289.04</ele>
        <time>2013-09-01T10:06:57Z</time>
      </trkpt>
      <trkpt lat="45.818104259669781" lon="6.99156210757792">
        <ele>2291.4400000000001</ele>
        <time>2013-09-01T10:07:12Z</time>
      </trkpt>
      <trkpt lat="45.818120939657092" lon="6.991605777293444">
        <ele>2291.9200000000001</ele>
        <time>2013-09-01T10:07:16Z</time>
      </trkpt>
      <trkpt lat="45.818190509453416" lon="6.991765955463052">
        <ele>2293.8400000000001</ele>
        <time>2013-09-01T10:07:30Z</time>
      </trkpt>
      <trkpt lat="45.818208362907171" lon="6.991799985989928">
        <ele>2293.8400000000001</ele>
        <time>2013-09-01T10:07:33Z</time>
      </trkpt>
      <trkpt lat="45.818284889683127" lon="6.99194080196321">
        <ele>2295.2800000000002</ele>
        <time>2013-09-01T10:07:46Z</time>
      </trkpt>
      <trkpt lat="45.818344736471772" lon="6.992102488875389">
        <ele>2295.2800000000002</ele>
        <time>2013-09-01T10:07:58Z</time>
      </trkpt>
      <trkpt lat="45.818344401195645" lon="6.992155546322465">
        <ele>2295.2800000000002</ele>
        <time>2013-09-01T10:08:01Z</time>
      </trkpt>
      <trkpt lat="45.81832705065608" lon="6.992199718952179">
        <ele>2296.25</ele>
        <time>2013-09-01T10:08:06Z</time>
      </trkpt>
      <trkpt lat="45.818315148353577" lon="6.992324274033308">
        <ele>2298.1700000000001</ele>
        <time>2013-09-01T10:08:20Z</time>
      </trkpt>
      <trkpt lat="45.818337444216013" lon="6.992397615686059">
        <ele>2298.6500000000001</ele>
        <time>2013-09-01T10:08:35Z</time>
      </trkpt>
      <trkpt lat="45.818349178880453" lon="6.99244849383831">
        <ele>2299.1300000000001</ele>
        <time>2013-09-01T10:08:50Z</time>
      </trkpt>
      <trkpt lat="45.818372396752238" lon="6.992485206574202">
        <ele>2299.1300000000001</ele>
        <time>2013-09-01T10:09:10Z</time>
      </trkpt>
      <trkpt lat="45.818376671522856" lon="6.992493169382215">
        <ele>2299.6100000000001</ele>
        <time>2013-09-01T10:09:11Z</time>
      </trkpt>
      <trkpt lat="45.818388322368264" lon="6.992541365325451">
        <ele>2300.0900000000001</ele>
        <time>2013-09-01T10:09:28Z</time>
      </trkpt>
      <trkpt lat="45.818398799747229" lon="6.992542371153832">
        <ele>2300.0900000000001</ele>
        <time>2013-09-01T10:09:53Z</time>
      </trkpt>
      <trkpt lat="45.818393435329199" lon="6.992543125525117">
        <ele>2300.5700000000002</ele>
        <time>2013-09-01T10:10:14Z</time>
      </trkpt>
      <trkpt lat="45.818439032882452" lon="6.992638260126114">
        <ele>2300.5700000000002</ele>
        <time>2013-09-01T10:10:31Z</time>
      </trkpt>
      <trkpt lat="45.818425789475441" lon="6.992647480219603">
        <ele>2301.0500000000002</ele>
        <time>2013-09-01T10:11:00Z</time>
      </trkpt>
      <trkpt lat="45.818438613787293" lon="6.99263365007937">
        <ele>2301.0500000000002</ele>
        <time>2013-09-01T10:11:27Z</time>
      </trkpt>
      <trkpt lat="45.818436769768596" lon="6.992644127458334">
        <ele>2301.0500000000002</ele>
        <time>2013-09-01T10:11:42Z</time>
      </trkpt>
      <trkpt lat="45.818436350673437" lon="6.992655862122774">
        <ele>2302.0100000000002</ele>
        <time>2013-09-01T10:12:01Z</time>
      </trkpt>
      <trkpt lat="45.818430399522185" lon="6.992646893486381">
        <ele>2301.5300000000002</ele>
        <time>2013-09-01T10:12:22Z</time>
      </trkpt>
      <trkpt lat="45.818441128358245" lon="6.992645887658">
        <ele>2301.0500000000002</ele>
        <time>2013-09-01T10:12:52Z</time>
      </trkpt>
      <trkpt lat="45.818499885499477" lon="6.992702968418598">
        <ele>2302.4899999999998</ele>
        <time>2013-09-01T10:13:09Z</time>
      </trkpt>
      <trkpt lat="45.81857381388545" lon="6.992848059162498">
        <ele>2303.46</ele>
        <time>2013-09-01T10:13:22Z</time>
      </trkpt>
      <trkpt lat="45.818617735058069" lon="6.992971692234278">
        <ele>2303.9400000000001</ele>
        <time>2013-09-01T10:13:34Z</time>
      </trkpt>
      <trkpt lat="45.818661656230688" lon="6.993127092719078">
        <ele>2305.8600000000001</ele>
        <time>2013-09-01T10:13:48Z</time>
      </trkpt>
      <trkpt lat="45.818670876324177" lon="6.993199596181512">
        <ele>2305.3800000000001</ele>
        <time>2013-09-01T10:14:02Z</time>
      </trkpt>
      <trkpt lat="45.818715803325176" lon="6.993327084928751">
        <ele>2305.8600000000001</ele>
        <time>2013-09-01T10:14:16Z</time>
      </trkpt>
      <trkpt lat="45.818773554638028" lon="6.993411993607879">
        <ele>2307.3000000000002</ele>
        <time>2013-09-01T10:14:29Z</time>
      </trkpt>
      <trkpt lat="45.818834155797958" lon="6.993477959185839">
        <ele>2308.2600000000002</ele>
        <time>2013-09-01T10:14:37Z</time>
      </trkpt>
      <trkpt lat="45.818917052820325" lon="6.99360553175211">
        <ele>2309.2199999999998</ele>
        <time>2013-09-01T10:14:50Z</time>
      </trkpt>
      <trkpt lat="45.818952089175582" lon="6.993767637759447">
        <ele>2310.1900000000001</ele>
        <time>2013-09-01T10:15:03Z</time>
      </trkpt>
      <trkpt lat="45.818993495777249" lon="6.993911722674966">
        <ele>2311.1500000000001</ele>
        <time>2013-09-01T10:15:16Z</time>
      </trkpt>
      <trkpt lat="45.819075051695108" lon="6.994052287191153">
        <ele>2313.5500000000002</ele>
        <time>2013-09-01T10:15:30Z</time>
      </trkpt>
      <trkpt lat="45.819109501317143" lon="6.994180614128709">
        <ele>2314.9899999999998</ele>
        <time>2013-09-01T10:15:41Z</time>
      </trkpt>
      <trkpt lat="45.81920170225203" lon="6.994339032098651">
        <ele>2315.9499999999998</ele>
        <time>2013-09-01T10:15:55Z</time>
      </trkpt>
      <trkpt lat="45.819335645064712" lon="6.994540113955736">
        <ele>2315.4699999999998</ele>
        <time>2013-09-01T10:16:12Z</time>
      </trkpt>
      <trkpt lat="45.819354504346848" lon="6.994582610204816">
        <ele>2314.9899999999998</ele>
        <time>2013-09-01T10:16:15Z</time>
      </trkpt>
      <trkpt lat="45.819397503510118" lon="6.994604151695967">
        <ele>2314.9899999999998</ele>
        <time>2013-09-01T10:16:19Z</time>
      </trkpt>
      <trkpt lat="45.819456093013287" lon="6.994657292962074">
        <ele>2315.4699999999998</ele>
        <time>2013-09-01T10:16:25Z</time>
      </trkpt>
      <trkpt lat="45.819487357512116" lon="6.994712362065911">
        <ele>2314.9899999999998</ele>
        <time>2013-09-01T10:16:30Z</time>
      </trkpt>
      <trkpt lat="45.819585677236319" lon="6.994857788085938">
        <ele>2315.9499999999998</ele>
        <time>2013-09-01T10:16:44Z</time>
      </trkpt>
      <trkpt lat="45.819639321416616" lon="6.994962561875582">
        <ele>2316.9099999999999</ele>
        <time>2013-09-01T10:16:56Z</time>
      </trkpt>
      <trkpt lat="45.819704448804259" lon="6.995092565193772">
        <ele>2318.8400000000001</ele>
        <time>2013-09-01T10:17:09Z</time>
      </trkpt>
      <trkpt lat="45.819777874276042" lon="6.995266573503614">
        <ele>2320.2800000000002</ele>
        <time>2013-09-01T10:17:24Z</time>
      </trkpt>
      <trkpt lat="45.819824226200581" lon="6.995384087786079">
        <ele>2321.7199999999998</ele>
        <time>2013-09-01T10:17:38Z</time>
      </trkpt>
      <trkpt lat="45.819809138774872" lon="6.995385512709618">
        <ele>2321.2399999999998</ele>
        <time>2013-09-01T10:17:51Z</time>
      </trkpt>
      <trkpt lat="45.819840654730797" lon="6.995445778593421">
        <ele>2322.1999999999998</ele>
        <time>2013-09-01T10:18:04Z</time>
      </trkpt>
      <trkpt lat="45.819842163473368" lon="6.995473438873887">
        <ele>2322.6799999999998</ele>
        <time>2013-09-01T10:18:15Z</time>
      </trkpt>
      <trkpt lat="45.819878038018942" lon="6.99554099701345">
        <ele>2323.1599999999999</ele>
        <time>2013-09-01T10:18:29Z</time>
      </trkpt>
      <trkpt lat="45.819918690249324" lon="6.995639652013779">
        <ele>2324.1199999999999</ele>
        <time>2013-09-01T10:18:49Z</time>
      </trkpt>
      <trkpt lat="45.819951128214598" lon="6.995700504630804">
        <ele>2325.5700000000002</ele>
        <time>2013-09-01T10:19:01Z</time>
      </trkpt>
      <trkpt lat="45.819975016638637" lon="6.995752304792404">
        <ele>2328.9299999999998</ele>
        <time>2013-09-01T10:19:05Z</time>
      </trkpt>
      <trkpt lat="45.820015165954828" lon="6.995803853496909">
        <ele>2329.4099999999999</ele>
        <time>2013-09-01T10:19:11Z</time>
      </trkpt>
      <trkpt lat="45.820060092955828" lon="6.995907872915268">
        <ele>2327.4899999999998</ele>
        <time>2013-09-01T10:19:19Z</time>
      </trkpt>
      <trkpt lat="45.820066714659333" lon="6.995918098837137">
        <ele>2327.4899999999998</ele>
        <time>2013-09-01T10:19:20Z</time>
      </trkpt>
      <trkpt lat="45.820074677467346" lon="6.995947100222111">
        <ele>2327.0100000000002</ele>
        <time>2013-09-01T10:19:22Z</time>
      </trkpt>
      <trkpt lat="45.820158161222935" lon="6.996115576475859">
        <ele>2327.4899999999998</ele>
        <time>2013-09-01T10:19:34Z</time>
      </trkpt>
      <trkpt lat="45.820191940292716" lon="6.996188666671515">
        <ele>2327.0100000000002</ele>
        <time>2013-09-01T10:19:40Z</time>
      </trkpt>
      <trkpt lat="45.820246757939458" lon="6.996295200660825">
        <ele>2327.9699999999998</ele>
        <time>2013-09-01T10:19:48Z</time>
      </trkpt>
      <trkpt lat="45.82026687450707" lon="6.996328728273511">
        <ele>2327.9699999999998</ele>
        <time>2013-09-01T10:19:51Z</time>
      </trkpt>
      <trkpt lat="45.820310125127435" lon="6.996429059654474">
        <ele>2328.4499999999998</ele>
        <time>2013-09-01T10:19:58Z</time>
      </trkpt>
      <trkpt lat="45.820334097370505" lon="6.996480943635106">
        <ele>2328.4499999999998</ele>
        <time>2013-09-01T10:20:02Z</time>
      </trkpt>
      <trkpt lat="45.820372821763158" lon="6.996584292501211">
        <ele>2328.4499999999998</ele>
        <time>2013-09-01T10:20:10Z</time>
      </trkpt>
      <trkpt lat="45.820379359647632" lon="6.996629135683179">
        <ele>2329.8899999999999</ele>
        <time>2013-09-01T10:20:13Z</time>
      </trkpt>
      <trkpt lat="45.820404589176178" lon="6.996679091826081">
        <ele>2330.3699999999999</ele>
        <time>2013-09-01T10:20:17Z</time>
      </trkpt>
      <trkpt lat="45.820475751534104" lon="6.996909091249108">
        <ele>2330.8499999999999</ele>
        <time>2013-09-01T10:20:33Z</time>
      </trkpt>
      <trkpt lat="45.820553870871663" lon="6.997142191976309">
        <ele>2330.8499999999999</ele>
        <time>2013-09-01T10:20:48Z</time>
      </trkpt>
      <trkpt lat="45.820581782609224" lon="6.997218551114202">
        <ele>2331.8099999999999</ele>
        <time>2013-09-01T10:20:56Z</time>
      </trkpt>
      <trkpt lat="45.820615142583847" lon="6.997272195294499">
        <ele>2330.8499999999999</ele>
        <time>2013-09-01T10:21:00Z</time>
      </trkpt>
      <trkpt lat="45.820737602189183" lon="6.997573105618358">
        <ele>2330.8499999999999</ele>
        <time>2013-09-01T10:21:19Z</time>
      </trkpt>
      <trkpt lat="45.820850254967809" lon="6.997802350670099">
        <ele>2329.4099999999999</ele>
        <time>2013-09-01T10:21:34Z</time>
      </trkpt>
      <trkpt lat="45.820896187797189" lon="6.997963031753898">
        <ele>2330.3699999999999</ele>
        <time>2013-09-01T10:21:44Z</time>
      </trkpt>
      <trkpt lat="45.820899792015553" lon="6.997985411435366">
        <ele>2331.8099999999999</ele>
        <time>2013-09-01T10:21:46Z</time>
      </trkpt>
      <trkpt lat="45.820919657126069" lon="6.998055065050721">
        <ele>2331.8099999999999</ele>
        <time>2013-09-01T10:21:53Z</time>
      </trkpt>
      <trkpt lat="45.820992076769471" lon="6.99819965288043">
        <ele>2332.7800000000002</ele>
        <time>2013-09-01T10:22:07Z</time>
      </trkpt>
      <trkpt lat="45.821015043184161" lon="6.998276431113482">
        <ele>2333.7399999999998</ele>
        <time>2013-09-01T10:22:16Z</time>
      </trkpt>
      <trkpt lat="45.821049828082323" lon="6.998398639261723">
        <ele>2335.1799999999998</ele>
        <time>2013-09-01T10:22:27Z</time>
      </trkpt>
      <trkpt lat="45.821087379008532" lon="6.99851430952549">
        <ele>2336.6199999999999</ele>
        <time>2013-09-01T10:22:39Z</time>
      </trkpt>
      <trkpt lat="45.821101628243923" lon="6.998632997274399">
        <ele>2338.54</ele>
        <time>2013-09-01T10:22:50Z</time>
      </trkpt>
      <trkpt lat="45.821104813367128" lon="6.998658226802945">
        <ele>2339.02</ele>
        <time>2013-09-01T10:22:52Z</time>
      </trkpt>
      <trkpt lat="45.82114982418716" lon="6.998873976990581">
        <ele>2339.5100000000002</ele>
        <time>2013-09-01T10:23:06Z</time>
      </trkpt>
      <trkpt lat="45.821192152798176" lon="6.999045722186565">
        <ele>2339.9899999999998</ele>
        <time>2013-09-01T10:23:20Z</time>
      </trkpt>
      <trkpt lat="45.821231966838241" lon="6.999208247289062">
        <ele>2342.3899999999999</ele>
        <time>2013-09-01T10:23:33Z</time>
      </trkpt>
      <trkpt lat="45.821263398975134" lon="6.999283516779542">
        <ele>2343.8299999999999</ele>
        <time>2013-09-01T10:23:40Z</time>
      </trkpt>
      <trkpt lat="45.821285359561443" lon="6.999307740479708">
        <ele>2344.79</ele>
        <time>2013-09-01T10:23:43Z</time>
      </trkpt>
      <trkpt lat="45.821379907429218" lon="6.999541344121099">
        <ele>2345.75</ele>
        <time>2013-09-01T10:23:59Z</time>
      </trkpt>
      <trkpt lat="45.821433300152421" lon="6.999684339389205">
        <ele>2346.23</ele>
        <time>2013-09-01T10:24:11Z</time>
      </trkpt>
      <trkpt lat="45.821438413113356" lon="6.999702109023929">
        <ele>2346.7199999999998</ele>
        <time>2013-09-01T10:24:13Z</time>
      </trkpt>
      <trkpt lat="45.821494571864605" lon="6.999801937490702">
        <ele>2347.1999999999998</ele>
        <time>2013-09-01T10:24:22Z</time>
      </trkpt>
      <trkpt lat="45.821532709524035" lon="6.99990252032876">
        <ele>2348.1599999999999</ele>
        <time>2013-09-01T10:24:30Z</time>
      </trkpt>
      <trkpt lat="45.821576630696654" lon="7.000110140070319">
        <ele>2347.1999999999998</ele>
        <time>2013-09-01T10:24:44Z</time>
      </trkpt>
      <trkpt lat="45.821628933772445" lon="7.000264367088676">
        <ele>2347.1999999999998</ele>
        <time>2013-09-01T10:24:55Z</time>
      </trkpt>
      <trkpt lat="45.821692300960422" lon="7.000365955755115">
        <ele>2347.1999999999998</ele>
        <time>2013-09-01T10:25:03Z</time>
      </trkpt>
      <trkpt lat="45.821718201041222" lon="7.00055236928165">
        <ele>2347.1999999999998</ele>
        <time>2013-09-01T10:25:16Z</time>
      </trkpt>
      <trkpt lat="45.82180411554873" lon="7.000833498314023">
        <ele>2347.1999999999998</ele>
        <time>2013-09-01T10:25:35Z</time>
      </trkpt>
      <trkpt lat="45.821859603747725" lon="7.000977667048574">
        <ele>2347.6799999999998</ele>
        <time>2013-09-01T10:25:45Z</time>
      </trkpt>
      <trkpt lat="45.821930263191462" lon="7.001173552125692">
        <ele>2347.6799999999998</ele>
        <time>2013-09-01T10:25:59Z</time>
      </trkpt>
      <trkpt lat="45.821995055302978" lon="7.001335490494967">
        <ele>2349.1199999999999</ele>
        <time>2013-09-01T10:26:12Z</time>
      </trkpt>
      <trkpt lat="45.822049118578434" lon="7.001470690593123">
        <ele>2350.0799999999999</ele>
        <time>2013-09-01T10:26:23Z</time>
      </trkpt>
      <trkpt lat="45.822078790515661" lon="7.001502541825175">
        <ele>2350.0799999999999</ele>
        <time>2013-09-01T10:26:27Z</time>
      </trkpt>
      <trkpt lat="45.822115670889616" lon="7.001603459939361">
        <ele>2349.1199999999999</ele>
        <time>2013-09-01T10:26:35Z</time>
      </trkpt>
      <trkpt lat="45.822123298421502" lon="7.001787358894944">
        <ele>2346.7199999999998</ele>
        <time>2013-09-01T10:26:47Z</time>
      </trkpt>
      <trkpt lat="45.822092620655894" lon="7.00182231143117">
        <ele>2347.1999999999998</ele>
        <time>2013-09-01T10:27:01Z</time>
      </trkpt>
      <trkpt lat="45.822078790515661" lon="7.001818288117647">
        <ele>2347.6799999999998</ele>
        <time>2013-09-01T10:27:12Z</time>
      </trkpt>
      <trkpt lat="45.822139224037528" lon="7.001946782693267">
        <ele>2345.27</ele>
        <time>2013-09-01T10:27:20Z</time>
      </trkpt>
      <trkpt lat="45.822160933166742" lon="7.002007467672229">
        <ele>2343.8299999999999</ele>
        <time>2013-09-01T10:27:25Z</time>
      </trkpt>
      <trkpt lat="45.822196807712317" lon="7.00210427865386">
        <ele>2340.9499999999998</ele>
        <time>2013-09-01T10:27:32Z</time>
      </trkpt>
      <trkpt lat="45.822204435244203" lon="7.002152893692255">
        <ele>2340.9499999999998</ele>
        <time>2013-09-01T10:27:35Z</time>
      </trkpt>
      <trkpt lat="45.822276016697288" lon="7.002258254215121">
        <ele>2338.0599999999999</ele>
        <time>2013-09-01T10:27:43Z</time>
      </trkpt>
      <trkpt lat="45.822327733039856" lon="7.00250250287354">
        <ele>2334.6999999999998</ele>
        <time>2013-09-01T10:27:59Z</time>
      </trkpt>
      <trkpt lat="45.822391770780087" lon="7.002732921391726">
        <ele>2331.3299999999999</ele>
        <time>2013-09-01T10:28:13Z</time>
      </trkpt>
      <trkpt lat="45.822435105219483" lon="7.00295789167285">
        <ele>2330.3699999999999</ele>
        <time>2013-09-01T10:28:25Z</time>
      </trkpt>
      <trkpt lat="45.822471063584089" lon="7.003184789791703">
        <ele>2327.9699999999998</ele>
        <time>2013-09-01T10:28:38Z</time>
      </trkpt>
      <trkpt lat="45.822559576481581" lon="7.003373466432095">
        <ele>2328.4499999999998</ele>
        <time>2013-09-01T10:28:52Z</time>
      </trkpt>
      <trkpt lat="45.822649681940675" lon="7.003495506942272">
        <ele>2327.9699999999998</ele>
        <time>2013-09-01T10:29:03Z</time>
      </trkpt>
      <trkpt lat="45.822688238695264" lon="7.003623163327575">
        <ele>2329.4099999999999</ele>
        <time>2013-09-01T10:29:14Z</time>
      </trkpt>
      <trkpt lat="45.822702068835497" lon="7.003658199682832">
        <ele>2327.9699999999998</ele>
        <time>2013-09-01T10:29:18Z</time>
      </trkpt>
      <trkpt lat="45.822712210938334" lon="7.003686781972647">
        <ele>2328.4499999999998</ele>
        <time>2013-09-01T10:29:20Z</time>
      </trkpt>
      <trkpt lat="45.822729310020804" lon="7.003775546327233">
        <ele>2328.4499999999998</ele>
        <time>2013-09-01T10:29:25Z</time>
      </trkpt>
      <trkpt lat="45.822741379961371" lon="7.003878559917212">
        <ele>2327.0100000000002</ele>
        <time>2013-09-01T10:29:31Z</time>
      </trkpt>
      <trkpt lat="45.822808519005775" lon="7.004101853817701">
        <ele>2327.4899999999998</ele>
        <time>2013-09-01T10:29:46Z</time>
      </trkpt>
      <trkpt lat="45.822874736040831" lon="7.004303773865104">
        <ele>2329.4099999999999</ele>
        <time>2013-09-01T10:30:00Z</time>
      </trkpt>
      <trkpt lat="45.82292502745986" lon="7.004474261775613">
        <ele>2330.3699999999999</ele>
        <time>2013-09-01T10:30:12Z</time>
      </trkpt>
      <trkpt lat="45.822956627234817" lon="7.004589512944222">
        <ele>2331.3299999999999</ele>
        <time>2013-09-01T10:30:22Z</time>
      </trkpt>
      <trkpt lat="45.82299149595201" lon="7.00476435944438">
        <ele>2333.2600000000002</ele>
        <time>2013-09-01T10:30:36Z</time>
      </trkpt>
      <trkpt lat="45.823022006079555" lon="7.004981366917491">
        <ele>2333.2600000000002</ele>
        <time>2013-09-01T10:30:52Z</time>
      </trkpt>
      <trkpt lat="45.823082271963358" lon="7.005122434347868">
        <ele>2335.1799999999998</ele>
        <time>2013-09-01T10:31:03Z</time>
      </trkpt>
      <trkpt lat="45.82309652119875" lon="7.005178006365895">
        <ele>2335.1799999999998</ele>
        <time>2013-09-01T10:31:07Z</time>
      </trkpt>
      <trkpt lat="45.823112530633807" lon="7.005288144573569">
        <ele>2335.6599999999999</ele>
        <time>2013-09-01T10:31:16Z</time>
      </trkpt>
      <trkpt lat="45.823144968599081" lon="7.005397863686085">
        <ele>2337.0999999999999</ele>
        <time>2013-09-01T10:31:30Z</time>
      </trkpt>
      <trkpt lat="45.823180759325624" lon="7.005505906417966">
        <ele>2339.02</ele>
        <time>2013-09-01T10:31:40Z</time>
      </trkpt>
      <trkpt lat="45.823222668841481" lon="7.005639094859362">
        <ele>2340.9499999999998</ele>
        <time>2013-09-01T10:31:53Z</time>
      </trkpt>
      <trkpt lat="45.823242198675871" lon="7.005771780386567">
        <ele>2341.9099999999999</ele>
        <time>2013-09-01T10:32:08Z</time>
      </trkpt>
      <trkpt lat="45.823283521458507" lon="7.005865490064025">
        <ele>2344.79</ele>
        <time>2013-09-01T10:32:23Z</time>
      </trkpt>
      <trkpt lat="45.823300620540977" lon="7.005906561389566">
        <ele>2345.75</ele>
        <time>2013-09-01T10:32:35Z</time>
      </trkpt>
      <trkpt lat="45.823334818705916" lon="7.005997421219945">
        <ele>2346.7199999999998</ele>
        <time>2013-09-01T10:32:47Z</time>
      </trkpt>
      <trkpt lat="45.823362059891224" lon="7.00609733350575">
        <ele>2349.1199999999999</ele>
        <time>2013-09-01T10:32:59Z</time>
      </trkpt>
      <trkpt lat="45.823407070711255" lon="7.0062639657408">
        <ele>2350.0799999999999</ele>
        <time>2013-09-01T10:33:13Z</time>
      </trkpt>
      <trkpt lat="45.823463816195726" lon="7.006377708166838">
        <ele>2352</ele>
        <time>2013-09-01T10:33:26Z</time>
      </trkpt>
      <trkpt lat="45.823454177007079" lon="7.006391789764166">
        <ele>2352.96</ele>
        <time>2013-09-01T10:33:36Z</time>
      </trkpt>
      <trkpt lat="45.823477646335959" lon="7.006409056484699">
        <ele>2352</ele>
        <time>2013-09-01T10:33:55Z</time>
      </trkpt>
      <trkpt lat="45.823518047109246" lon="7.006502263247967">
        <ele>2353.4400000000001</ele>
        <time>2013-09-01T10:34:10Z</time>
      </trkpt>
      <trkpt lat="45.823528692126274" lon="7.006616927683353">
        <ele>2356.3299999999999</ele>
        <time>2013-09-01T10:34:21Z</time>
      </trkpt>
      <trkpt lat="45.823544869199395" lon="7.006655819714069">
        <ele>2357.77</ele>
        <time>2013-09-01T10:34:27Z</time>
      </trkpt>
      <trkpt lat="45.823581162840128" lon="7.006744164973497">
        <ele>2359.6900000000001</ele>
        <time>2013-09-01T10:34:37Z</time>
      </trkpt>
      <trkpt lat="45.823605470359325" lon="7.006907863542438">
        <ele>2362.0999999999999</ele>
        <time>2013-09-01T10:34:51Z</time>
      </trkpt>
      <trkpt lat="45.823606643825769" lon="7.006921274587512">
        <ele>2362.5799999999999</ele>
        <time>2013-09-01T10:34:52Z</time>
      </trkpt>
      <trkpt lat="45.823623994365335" lon="7.007082626223564">
        <ele>2364.5</ele>
        <time>2013-09-01T10:35:07Z</time>
      </trkpt>
      <trkpt lat="45.823652492836118" lon="7.007188405841589">
        <ele>2366.9000000000001</ele>
        <time>2013-09-01T10:35:20Z</time>
      </trkpt>
      <trkpt lat="45.823674201965332" lon="7.007244564592838">
        <ele>2368.3499999999999</ele>
        <time>2013-09-01T10:35:27Z</time>
      </trkpt>
      <trkpt lat="45.823729019612074" lon="7.007353194057941">
        <ele>2370.75</ele>
        <time>2013-09-01T10:35:41Z</time>
      </trkpt>
      <trkpt lat="45.823774365708232" lon="7.00745964422822">
        <ele>2372.1900000000001</ele>
        <time>2013-09-01T10:35:53Z</time>
      </trkpt>
      <trkpt lat="45.823796158656478" lon="7.007501637563109">
        <ele>2374.1100000000001</ele>
        <time>2013-09-01T10:36:00Z</time>
      </trkpt>
      <trkpt lat="45.823839074000716" lon="7.007603812962771">
        <ele>2375.5500000000002</ele>
        <time>2013-09-01T10:36:12Z</time>
      </trkpt>
      <trkpt lat="45.823858436197042" lon="7.007649829611182">
        <ele>2376.52</ele>
        <time>2013-09-01T10:36:18Z</time>
      </trkpt>
      <trkpt lat="45.82388031296432" lon="7.007747814059258">
        <ele>2378.4400000000001</ele>
        <time>2013-09-01T10:36:31Z</time>
      </trkpt>
      <trkpt lat="45.823933873325586" lon="7.007860047742724">
        <ele>2380.3600000000001</ele>
        <time>2013-09-01T10:36:45Z</time>
      </trkpt>
      <trkpt lat="45.823913840577006" lon="7.007937664166093">
        <ele>2382.7600000000002</ele>
        <time>2013-09-01T10:37:02Z</time>
      </trkpt>
      <trkpt lat="45.823914092034101" lon="7.008056435734034">
        <ele>2384.6900000000001</ele>
        <time>2013-09-01T10:37:15Z</time>
      </trkpt>
      <trkpt lat="45.823899423703551" lon="7.008131453767419">
        <ele>2385.6500000000001</ele>
        <time>2013-09-01T10:37:27Z</time>
      </trkpt>
      <trkpt lat="45.82392523996532" lon="7.008220134302974">
        <ele>2387.0900000000001</ele>
        <time>2013-09-01T10:37:44Z</time>
      </trkpt>
      <trkpt lat="45.82395700737834" lon="7.008361704647541">
        <ele>2389.4899999999998</ele>
        <time>2013-09-01T10:37:59Z</time>
      </trkpt>
      <trkpt lat="45.823983997106552" lon="7.00847209431231">
        <ele>2391.9000000000001</ele>
        <time>2013-09-01T10:38:12Z</time>
      </trkpt>
      <trkpt lat="45.824009142816067" lon="7.008589273318648">
        <ele>2394.3000000000002</ele>
        <time>2013-09-01T10:38:26Z</time>
      </trkpt>
      <trkpt lat="45.824038395658135" lon="7.008669571951032">
        <ele>2396.2199999999998</ele>
        <time>2013-09-01T10:38:37Z</time>
      </trkpt>
      <trkpt lat="45.824049627408385" lon="7.008825894445181">
        <ele>2398.1500000000001</ele>
        <time>2013-09-01T10:38:52Z</time>
      </trkpt>
      <trkpt lat="45.824022134765983" lon="7.00900174677372">
        <ele>2398.6300000000001</ele>
        <time>2013-09-01T10:39:06Z</time>
      </trkpt>
      <trkpt lat="45.82405130378902" lon="7.00912001542747">
        <ele>2401.5100000000002</ele>
        <time>2013-09-01T10:39:19Z</time>
      </trkpt>
      <trkpt lat="45.824091117829084" lon="7.009191596880555">
        <ele>2403.4299999999998</ele>
        <time>2013-09-01T10:39:30Z</time>
      </trkpt>
      <trkpt lat="45.824100840836763" lon="7.009317241609097">
        <ele>2404.3899999999999</ele>
        <time>2013-09-01T10:39:42Z</time>
      </trkpt>
      <trkpt lat="45.824132608249784" lon="7.009471384808421">
        <ele>2405.8400000000001</ele>
        <time>2013-09-01T10:39:56Z</time>
      </trkpt>
      <trkpt lat="45.824175523594022" lon="7.009530812501907">
        <ele>2408.2399999999998</ele>
        <time>2013-09-01T10:40:04Z</time>
      </trkpt>
      <trkpt lat="45.824184827506542" lon="7.009637765586376">
        <ele>2410.1599999999999</ele>
        <time>2013-09-01T10:40:18Z</time>
      </trkpt>
      <trkpt lat="45.82419203594327" lon="7.009634077548981">
        <ele>2410.1599999999999</ele>
        <time>2013-09-01T10:40:21Z</time>
      </trkpt>
      <trkpt lat="45.824251715093851" lon="7.009720914065838">
        <ele>2411.5999999999999</ele>
        <time>2013-09-01T10:40:32Z</time>
      </trkpt>
      <trkpt lat="45.824273256585002" lon="7.009771456941962">
        <ele>2412.5700000000002</ele>
        <time>2013-09-01T10:40:39Z</time>
      </trkpt>
      <trkpt lat="45.824275519698858" lon="7.009794004261494">
        <ele>2412.5700000000002</ele>
        <time>2013-09-01T10:40:41Z</time>
      </trkpt>
      <trkpt lat="45.824303347617388" lon="7.009942615404725">
        <ele>2413.5300000000002</ele>
        <time>2013-09-01T10:40:54Z</time>
      </trkpt>
      <trkpt lat="45.824325727298856" lon="7.010128693655133">
        <ele>2414.4899999999998</ele>
        <time>2013-09-01T10:41:09Z</time>
      </trkpt>
      <trkpt lat="45.824367050081491" lon="7.010285016149283">
        <ele>2415.4499999999998</ele>
        <time>2013-09-01T10:41:23Z</time>
      </trkpt>
      <trkpt lat="45.824376353994012" lon="7.010457767173648">
        <ele>2415.9299999999998</ele>
        <time>2013-09-01T10:41:37Z</time>
      </trkpt>
      <trkpt lat="45.82436939701438" lon="7.010480230674148">
        <ele>2415.9299999999998</ele>
        <time>2013-09-01T10:41:39Z</time>
      </trkpt>
      <trkpt lat="45.824358081445098" lon="7.010510237887502">
        <ele>2415.9299999999998</ele>
        <time>2013-09-01T10:41:49Z</time>
      </trkpt>
      <trkpt lat="45.82441046833992" lon="7.010696651414037">
        <ele>2416.8899999999999</ele>
        <time>2013-09-01T10:42:01Z</time>
      </trkpt>
      <trkpt lat="45.82441390492022" lon="7.010723138228059">
        <ele>2416.8899999999999</ele>
        <time>2013-09-01T10:42:03Z</time>
      </trkpt>
      <trkpt lat="45.824418012052774" lon="7.010777536779642">
        <ele>2417.3699999999999</ele>
        <time>2013-09-01T10:42:07Z</time>
      </trkpt>
      <trkpt lat="45.824404014274478" lon="7.010852890089154">
        <ele>2418.8099999999999</ele>
        <time>2013-09-01T10:42:14Z</time>
      </trkpt>
      <trkpt lat="45.824355063959956" lon="7.010950539261103">
        <ele>2421.2199999999998</ele>
        <time>2013-09-01T10:42:27Z</time>
      </trkpt>
      <trkpt lat="45.824353052303195" lon="7.011015163734555">
        <ele>2422.1799999999998</ele>
        <time>2013-09-01T10:42:47Z</time>
      </trkpt>
      <trkpt lat="45.824311478063464" lon="7.011119686067104">
        <ele>2425.54</ele>
        <time>2013-09-01T10:43:00Z</time>
      </trkpt>
      <trkpt lat="45.82429270260036" lon="7.011187663301826">
        <ele>2427.4699999999998</ele>
        <time>2013-09-01T10:43:13Z</time>
      </trkpt>
      <trkpt lat="45.824274932965636" lon="7.011239966377616">
        <ele>2429.3899999999999</ele>
        <time>2013-09-01T10:43:25Z</time>
      </trkpt>
      <trkpt lat="45.824271412566304" lon="7.011311799287796">
        <ele>2430.8299999999999</ele>
        <time>2013-09-01T10:43:36Z</time>
      </trkpt>
      <trkpt lat="45.824250625446439" lon="7.011383716017008">
        <ele>2433.71</ele>
        <time>2013-09-01T10:43:49Z</time>
      </trkpt>
      <trkpt lat="45.824277028441429" lon="7.011422524228692">
        <ele>2437.0799999999999</ele>
        <time>2013-09-01T10:43:59Z</time>
      </trkpt>
      <trkpt lat="45.824278956279159" lon="7.011480610817671">
        <ele>2438.04</ele>
        <time>2013-09-01T10:44:11Z</time>
      </trkpt>
      <trkpt lat="45.82427074201405" lon="7.011542720720172">
        <ele>2439.96</ele>
        <time>2013-09-01T10:44:24Z</time>
      </trkpt>
      <trkpt lat="45.824242830276489" lon="7.01160809956491">
        <ele>2441.8899999999999</ele>
        <time>2013-09-01T10:44:34Z</time>
      </trkpt>
      <trkpt lat="45.824257917702198" lon="7.011605752632022">
        <ele>2440.4400000000001</ele>
        <time>2013-09-01T10:44:45Z</time>
      </trkpt>
      <trkpt lat="45.824318937957287" lon="7.01157683506608">
        <ele>2443.3299999999999</ele>
        <time>2013-09-01T10:44:57Z</time>
      </trkpt>
      <trkpt lat="45.824385657906532" lon="7.01155143789947">
        <ele>2444.77</ele>
        <time>2013-09-01T10:45:10Z</time>
      </trkpt>
      <trkpt lat="45.824391609057784" lon="7.011614553630352">
        <ele>2446.21</ele>
        <time>2013-09-01T10:45:17Z</time>
      </trkpt>
      <trkpt lat="45.824412982910872" lon="7.011694265529513">
        <ele>2448.1300000000001</ele>
        <time>2013-09-01T10:45:29Z</time>
      </trkpt>
      <trkpt lat="45.824425723403692" lon="7.011743634939194">
        <ele>2449.5799999999999</ele>
        <time>2013-09-01T10:45:38Z</time>
      </trkpt>
      <trkpt lat="45.824432009831071" lon="7.011763164773583">
        <ele>2449.5799999999999</ele>
        <time>2013-09-01T10:45:40Z</time>
      </trkpt>
      <trkpt lat="45.82447593100369" lon="7.011860059574246">
        <ele>2451.5</ele>
        <time>2013-09-01T10:45:54Z</time>
      </trkpt>
      <trkpt lat="45.824460592120886" lon="7.011896185576916">
        <ele>2452.46</ele>
        <time>2013-09-01T10:46:08Z</time>
      </trkpt>
      <trkpt lat="45.824457993730903" lon="7.011904651299119">
        <ele>2452.9400000000001</ele>
        <time>2013-09-01T10:46:09Z</time>
      </trkpt>
      <trkpt lat="45.824450617656112" lon="7.011987883597612">
        <ele>2454.3800000000001</ele>
        <time>2013-09-01T10:46:20Z</time>
      </trkpt>
      <trkpt lat="45.824458748102188" lon="7.012067511677742">
        <ele>2456.3099999999999</ele>
        <time>2013-09-01T10:46:31Z</time>
      </trkpt>
      <trkpt lat="45.82447106949985" lon="7.012129537761211">
        <ele>2458.23</ele>
        <time>2013-09-01T10:46:39Z</time>
      </trkpt>
      <trkpt lat="45.82452873699367" lon="7.012230455875397">
        <ele>2459.6700000000001</ele>
        <time>2013-09-01T10:46:51Z</time>
      </trkpt>
      <trkpt lat="45.824547428637743" lon="7.012256104499102">
        <ele>2460.6300000000001</ele>
        <time>2013-09-01T10:46:55Z</time>
      </trkpt>
      <trkpt lat="45.824563438072801" lon="7.012342186644673">
        <ele>2462.5500000000002</ele>
        <time>2013-09-01T10:47:05Z</time>
      </trkpt>
      <trkpt lat="45.824578860774636" lon="7.012404883280397">
        <ele>2464</ele>
        <time>2013-09-01T10:47:15Z</time>
      </trkpt>
      <trkpt lat="45.824574250727892" lon="7.01253212057054">
        <ele>2465.9200000000001</ele>
        <time>2013-09-01T10:47:29Z</time>
      </trkpt>
      <trkpt lat="45.824591433629394" lon="7.012543855234981">
        <ele>2466.4000000000001</ele>
        <time>2013-09-01T10:47:44Z</time>
      </trkpt>
      <trkpt lat="45.824631918221712" lon="7.012474369257689">
        <ele>2467.3600000000001</ele>
        <time>2013-09-01T10:47:57Z</time>
      </trkpt>
      <trkpt lat="45.824710205197334" lon="7.01240211725235">
        <ele>2468.8000000000002</ele>
        <time>2013-09-01T10:48:11Z</time>
      </trkpt>
      <trkpt lat="45.824729986488819" lon="7.012349143624306">
        <ele>2469.7600000000002</ele>
        <time>2013-09-01T10:48:19Z</time>
      </trkpt>
      <trkpt lat="45.824757479131222" lon="7.012273287400603">
        <ele>2471.21</ele>
        <time>2013-09-01T10:48:27Z</time>
      </trkpt>
      <trkpt lat="45.824774326756597" lon="7.012233640998602">
        <ele>2472.1700000000001</ele>
        <time>2013-09-01T10:48:39Z</time>
      </trkpt>
      <trkpt lat="45.824829814955592" lon="7.012263648211956">
        <ele>2473.6100000000001</ele>
        <time>2013-09-01T10:48:49Z</time>
      </trkpt>
      <trkpt lat="45.824837945401669" lon="7.012313269078732">
        <ele>2476.0100000000002</ele>
        <time>2013-09-01T10:49:04Z</time>
      </trkpt>
      <trkpt lat="45.824894271790981" lon="7.012343863025308">
        <ele>2478.4200000000001</ele>
        <time>2013-09-01T10:49:17Z</time>
      </trkpt>
      <trkpt lat="45.824935175478458" lon="7.012422066181898">
        <ele>2480.8200000000002</ele>
        <time>2013-09-01T10:49:28Z</time>
      </trkpt>
      <trkpt lat="45.824967697262764" lon="7.012500101700425">
        <ele>2482.2600000000002</ele>
        <time>2013-09-01T10:49:44Z</time>
      </trkpt>
      <trkpt lat="45.824985383078456" lon="7.01251057907939">
        <ele>2484.6599999999999</ele>
        <time>2013-09-01T10:49:52Z</time>
      </trkpt>
      <trkpt lat="45.825007678940892" lon="7.012552404776216">
        <ele>2486.5900000000001</ele>
        <time>2013-09-01T10:50:03Z</time>
      </trkpt>
      <trkpt lat="45.825010444968939" lon="7.012636559084058">
        <ele>2488.9899999999998</ele>
        <time>2013-09-01T10:50:14Z</time>
      </trkpt>
      <trkpt lat="45.825060484930873" lon="7.012660866603255">
        <ele>2490.9099999999999</ele>
        <time>2013-09-01T10:50:24Z</time>
      </trkpt>
      <trkpt lat="45.825048582628369" lon="7.012659190222621">
        <ele>2491.3899999999999</ele>
        <time>2013-09-01T10:50:39Z</time>
      </trkpt>
      <trkpt lat="45.825066855177283" lon="7.01267184689641">
        <ele>2491.8699999999999</ele>
        <time>2013-09-01T10:50:47Z</time>
      </trkpt>
      <trkpt lat="45.825127037242055" lon="7.012751726433635">
        <ele>2494.2800000000002</ele>
        <time>2013-09-01T10:50:59Z</time>
      </trkpt>
      <trkpt lat="45.825127623975277" lon="7.012763880193234">
        <ele>2494.7600000000002</ele>
        <time>2013-09-01T10:51:01Z</time>
      </trkpt>
      <trkpt lat="45.82514145411551" lon="7.012810735031962">
        <ele>2496.6799999999998</ele>
        <time>2013-09-01T10:51:12Z</time>
      </trkpt>
      <trkpt lat="45.825149081647396" lon="7.012804783880711">
        <ele>2499.5700000000002</ele>
        <time>2013-09-01T10:51:23Z</time>
      </trkpt>
      <trkpt lat="45.825156876817346" lon="7.012821212410927">
        <ele>2500.0500000000002</ele>
        <time>2013-09-01T10:51:25Z</time>
      </trkpt>
      <trkpt lat="45.825185878202319" lon="7.012807382270694">
        <ele>2502.9299999999998</ele>
        <time>2013-09-01T10:51:37Z</time>
      </trkpt>
      <trkpt lat="45.825233152136207" lon="7.012810818850994">
        <ele>2504.3699999999999</ele>
        <time>2013-09-01T10:51:49Z</time>
      </trkpt>
      <trkpt lat="45.825273217633367" lon="7.012795144692063">
        <ele>2507.2600000000002</ele>
        <time>2013-09-01T10:52:02Z</time>
      </trkpt>
      <trkpt lat="45.825317222625017" lon="7.012784164398909">
        <ele>2508.6999999999998</ele>
        <time>2013-09-01T10:52:16Z</time>
      </trkpt>
      <trkpt lat="45.825402466580272" lon="7.012787936255336">
        <ele>2511.0999999999999</ele>
        <time>2013-09-01T10:52:28Z</time>
      </trkpt>
      <trkpt lat="45.825438844040036" lon="7.01288734562695">
        <ele>2513.02</ele>
        <time>2013-09-01T10:52:41Z</time>
      </trkpt>
      <trkpt lat="45.825489303097129" lon="7.012911485508084">
        <ele>2515.4299999999998</ele>
        <time>2013-09-01T10:52:53Z</time>
      </trkpt>
      <trkpt lat="45.825573708862066" lon="7.012949455529451">
        <ele>2518.3099999999999</ele>
        <time>2013-09-01T10:53:08Z</time>
      </trkpt>
      <trkpt lat="45.825587455183268" lon="7.013053894042969">
        <ele>2520.23</ele>
        <time>2013-09-01T10:53:20Z</time>
      </trkpt>
      <trkpt lat="45.825581001117826" lon="7.013123128563166">
        <ele>2522.1599999999999</ele>
        <time>2013-09-01T10:53:32Z</time>
      </trkpt>
      <trkpt lat="45.825624754652381" lon="7.013155901804566">
        <ele>2524.5599999999999</ele>
        <time>2013-09-01T10:53:43Z</time>
      </trkpt>
      <trkpt lat="45.825682254508138" lon="7.013256652280688">
        <ele>2526</ele>
        <time>2013-09-01T10:53:56Z</time>
      </trkpt>
      <trkpt lat="45.82570681348443" lon="7.013363689184189">
        <ele>2528.8899999999999</ele>
        <time>2013-09-01T10:54:09Z</time>
      </trkpt>
      <trkpt lat="45.82573170773685" lon="7.013464188203216">
        <ele>2530.3299999999999</ele>
        <time>2013-09-01T10:54:21Z</time>
      </trkpt>
      <trkpt lat="45.825756937265396" lon="7.013556892052293">
        <ele>2532.25</ele>
        <time>2013-09-01T10:54:35Z</time>
      </trkpt>
      <trkpt lat="45.825747298076749" lon="7.013535518199205">
        <ele>2531.77</ele>
        <time>2013-09-01T10:54:54Z</time>
      </trkpt>
      <trkpt lat="45.825762469321489" lon="7.013559574261308">
        <ele>2532.25</ele>
        <time>2013-09-01T10:55:14Z</time>
      </trkpt>
      <trkpt lat="45.825775377452374" lon="7.013607434928417">
        <ele>2530.8099999999999</ele>
        <time>2013-09-01T10:55:40Z</time>
      </trkpt>
      <trkpt lat="45.825827931985259" lon="7.013783873990178">
        <ele>2530.8099999999999</ele>
        <time>2013-09-01T10:55:53Z</time>
      </trkpt>
      <trkpt lat="45.825824243947864" lon="7.013796698302031">
        <ele>2530.8099999999999</ele>
        <time>2013-09-01T10:55:54Z</time>
      </trkpt>
      <trkpt lat="45.825807563960552" lon="7.01385092921555">
        <ele>2532.25</ele>
        <time>2013-09-01T10:55:59Z</time>
      </trkpt>
      <trkpt lat="45.82571410574019" lon="7.013961570337415">
        <ele>2534.1700000000001</ele>
        <time>2013-09-01T10:56:14Z</time>
      </trkpt>
      <trkpt lat="45.825668508186936" lon="7.014029379934073">
        <ele>2536.5799999999999</ele>
        <time>2013-09-01T10:56:25Z</time>
      </trkpt>
      <trkpt lat="45.82566674798727" lon="7.013994678854942">
        <ele>2536.5799999999999</ele>
        <time>2013-09-01T10:56:48Z</time>
      </trkpt>
      <trkpt lat="45.825683930888772" lon="7.014012951403856">
        <ele>2536.0999999999999</ele>
        <time>2013-09-01T10:57:03Z</time>
      </trkpt>
      <trkpt lat="45.825688205659389" lon="7.014028709381819">
        <ele>2535.1300000000001</ele>
        <time>2013-09-01T10:57:22Z</time>
      </trkpt>
      <trkpt lat="45.825695330277085" lon="7.013992164283991">
        <ele>2537.0599999999999</ele>
        <time>2013-09-01T10:57:32Z</time>
      </trkpt>
      <trkpt lat="45.825684769079089" lon="7.014009682461619">
        <ele>2536.0999999999999</ele>
        <time>2013-09-01T10:57:51Z</time>
      </trkpt>
      <trkpt lat="45.825649481266737" lon="7.014014963060617">
        <ele>2534.1700000000001</ele>
        <time>2013-09-01T10:58:02Z</time>
      </trkpt>
      <trkpt lat="45.825661467388272" lon="7.014027033001185">
        <ele>2534.6500000000001</ele>
        <time>2013-09-01T10:58:25Z</time>
      </trkpt>
      <trkpt lat="45.825658952817321" lon="7.014014963060617">
        <ele>2534.6500000000001</ele>
        <time>2013-09-01T10:58:47Z</time>
      </trkpt>
      <trkpt lat="45.825664233416319" lon="7.01401068829">
        <ele>2534.6500000000001</ele>
        <time>2013-09-01T10:59:24Z</time>
      </trkpt>
      <trkpt lat="45.825661215931177" lon="7.01401848345995">
        <ele>2534.1700000000001</ele>
        <time>2013-09-01T10:59:44Z</time>
      </trkpt>
      <trkpt lat="45.825643613934517" lon="7.01399895362556">
        <ele>2534.6500000000001</ele>
        <time>2013-09-01T11:00:17Z</time>
      </trkpt>
      <trkpt lat="45.825644033029675" lon="7.014018148183823">
        <ele>2533.6900000000001</ele>
        <time>2013-09-01T11:00:56Z</time>
      </trkpt>
      <trkpt lat="45.825644033029675" lon="7.014008006080985">
        <ele>2534.6500000000001</ele>
        <time>2013-09-01T11:01:31Z</time>
      </trkpt>
      <trkpt lat="45.825652163475752" lon="7.014005659148097">
        <ele>2533.6900000000001</ele>
        <time>2013-09-01T11:02:03Z</time>
      </trkpt>
      <trkpt lat="45.825642859563231" lon="7.013999540358782">
        <ele>2534.1700000000001</ele>
        <time>2013-09-01T11:02:45Z</time>
      </trkpt>
      <trkpt lat="45.825649062171578" lon="7.014002557843924">
        <ele>2534.6500000000001</ele>
        <time>2013-09-01T11:03:15Z</time>
      </trkpt>
      <trkpt lat="45.825634645298123" lon="7.014003898948431">
        <ele>2534.6500000000001</ele>
        <time>2013-09-01T11:03:50Z</time>
      </trkpt>
      <trkpt lat="45.825643027201295" lon="7.014006832614541">
        <ele>2534.6500000000001</ele>
        <time>2013-09-01T11:04:26Z</time>
      </trkpt>
      <trkpt lat="45.825657779350877" lon="7.014005742967129">
        <ele>2534.6500000000001</ele>
        <time>2013-09-01T11:04:53Z</time>
      </trkpt>
      <trkpt lat="45.825652498751879" lon="7.014010520651937">
        <ele>2534.6500000000001</ele>
        <time>2013-09-01T11:05:21Z</time>
      </trkpt>
      <trkpt lat="45.825647469609976" lon="7.014009347185493">
        <ele>2534.6500000000001</ele>
        <time>2013-09-01T11:05:23Z</time>
      </trkpt>
      <trkpt lat="45.825640428811312" lon="7.013986799865961">
        <ele>2535.1300000000001</ele>
        <time>2013-09-01T11:05:34Z</time>
      </trkpt>
      <trkpt lat="45.825666580349207" lon="7.01400825753808">
        <ele>2535.1300000000001</ele>
        <time>2013-09-01T11:05:45Z</time>
      </trkpt>
      <trkpt lat="45.825654091313481" lon="7.014108337461948">
        <ele>2534.1700000000001</ele>
        <time>2013-09-01T11:05:57Z</time>
      </trkpt>
      <trkpt lat="45.825640428811312" lon="7.014112612232566">
        <ele>2533.21</ele>
        <time>2013-09-01T11:05:59Z</time>
      </trkpt>
      <trkpt lat="45.825626850128174" lon="7.014104314148426">
        <ele>2532.25</ele>
        <time>2013-09-01T11:06:10Z</time>
      </trkpt>
      <trkpt lat="45.825607236474752" lon="7.014077072963119">
        <ele>2532.73</ele>
        <time>2013-09-01T11:06:28Z</time>
      </trkpt>
      <trkpt lat="45.825606314465404" lon="7.0140659250319">
        <ele>2532.25</ele>
        <time>2013-09-01T11:07:01Z</time>
      </trkpt>
      <trkpt lat="45.825604218989611" lon="7.01406148262322">
        <ele>2532.73</ele>
        <time>2013-09-01T11:07:38Z</time>
      </trkpt>
      <trkpt lat="45.825599022209644" lon="7.01407372020185">
        <ele>2532.73</ele>
        <time>2013-09-01T11:08:11Z</time>
      </trkpt>
      <trkpt lat="45.825587287545204" lon="7.014072043821216">
        <ele>2533.21</ele>
        <time>2013-09-01T11:08:45Z</time>
      </trkpt>
      <trkpt lat="45.825576977804303" lon="7.014081431552768">
        <ele>2532.73</ele>
        <time>2013-09-01T11:09:24Z</time>
      </trkpt>
      <trkpt lat="45.825603380799294" lon="7.014062907546759">
        <ele>2533.21</ele>
        <time>2013-09-01T11:10:02Z</time>
      </trkpt>
      <trkpt lat="45.825604051351547" lon="7.014066511765122">
        <ele>2533.21</ele>
        <time>2013-09-01T11:10:29Z</time>
      </trkpt>
      <trkpt lat="45.825608409941196" lon="7.014069277793169">
        <ele>2533.6900000000001</ele>
        <time>2013-09-01T11:11:06Z</time>
      </trkpt>
      <trkpt lat="45.825611678883433" lon="7.014073636382818">
        <ele>2532.73</ele>
        <time>2013-09-01T11:11:33Z</time>
      </trkpt>
      <trkpt lat="45.825609918683767" lon="7.014062739908695">
        <ele>2533.6900000000001</ele>
        <time>2013-09-01T11:12:03Z</time>
      </trkpt>
      <trkpt lat="45.825599608942866" lon="7.014070032164455">
        <ele>2533.21</ele>
        <time>2013-09-01T11:12:38Z</time>
      </trkpt>
      <trkpt lat="45.825595166534185" lon="7.014065086841583">
        <ele>2533.6900000000001</ele>
        <time>2013-09-01T11:13:08Z</time>
      </trkpt>
      <trkpt lat="45.825596926733851" lon="7.01406885869801">
        <ele>2533.6900000000001</ele>
        <time>2013-09-01T11:13:46Z</time>
      </trkpt>
      <trkpt lat="45.825616372749209" lon="7.014067685231566">
        <ele>2533.6900000000001</ele>
        <time>2013-09-01T11:14:19Z</time>
      </trkpt>
      <trkpt lat="45.825629197061062" lon="7.014070115983486">
        <ele>2534.1700000000001</ele>
        <time>2013-09-01T11:14:49Z</time>
      </trkpt>
      <trkpt lat="45.825608661398292" lon="7.014074726030231">
        <ele>2533.21</ele>
        <time>2013-09-01T11:15:23Z</time>
      </trkpt>
      <trkpt lat="45.8256168756634" lon="7.014067936688662">
        <ele>2533.6900000000001</ele>
        <time>2013-09-01T11:15:55Z</time>
      </trkpt>
      <trkpt lat="45.825603296980262" lon="7.014063242822886">
        <ele>2533.6900000000001</ele>
        <time>2013-09-01T11:16:26Z</time>
      </trkpt>
      <trkpt lat="45.825602961704135" lon="7.014059219509363">
        <ele>2533.6900000000001</ele>
        <time>2013-09-01T11:16:59Z</time>
      </trkpt>
      <trkpt lat="45.825606817379594" lon="7.014054693281651">
        <ele>2533.21</ele>
        <time>2013-09-01T11:17:24Z</time>
      </trkpt>
      <trkpt lat="45.825602374970913" lon="7.014053100720048">
        <ele>2533.6900000000001</ele>
        <time>2013-09-01T11:18:00Z</time>
      </trkpt>
      <trkpt lat="45.825607068836689" lon="7.014052513986826">
        <ele>2532.73</ele>
        <time>2013-09-01T11:18:30Z</time>
      </trkpt>
      <trkpt lat="45.825611846521497" lon="7.014039773494005">
        <ele>2533.6900000000001</ele>
        <time>2013-09-01T11:19:00Z</time>
      </trkpt>
      <trkpt lat="45.825607990846038" lon="7.0140331517905">
        <ele>2533.21</ele>
        <time>2013-09-01T11:19:31Z</time>
      </trkpt>
      <trkpt lat="45.825612433254719" lon="7.014038935303688">
        <ele>2533.6900000000001</ele>
        <time>2013-09-01T11:20:03Z</time>
      </trkpt>
      <trkpt lat="45.825619054958224" lon="7.01405075378716">
        <ele>2533.21</ele>
        <time>2013-09-01T11:20:40Z</time>
      </trkpt>
      <trkpt lat="45.825616624206305" lon="7.014050921425223">
        <ele>2532.73</ele>
        <time>2013-09-01T11:21:19Z</time>
      </trkpt>
      <trkpt lat="45.825611762702465" lon="7.014050083234906">
        <ele>2533.21</ele>
        <time>2013-09-01T11:21:50Z</time>
      </trkpt>
      <trkpt lat="45.825609834864736" lon="7.014059470966458">
        <ele>2533.21</ele>
        <time>2013-09-01T11:22:26Z</time>
      </trkpt>
      <trkpt lat="45.825607655569911" lon="7.014060309156776">
        <ele>2532.73</ele>
        <time>2013-09-01T11:23:10Z</time>
      </trkpt>
      <trkpt lat="45.825608912855387" lon="7.014058297500014">
        <ele>2532.73</ele>
        <time>2013-09-01T11:23:48Z</time>
      </trkpt>
      <trkpt lat="45.825604051351547" lon="7.014056872576475">
        <ele>2533.21</ele>
        <time>2013-09-01T11:24:32Z</time>
      </trkpt>
      <trkpt lat="45.825604889541864" lon="7.014056956395507">
        <ele>2533.21</ele>
        <time>2013-09-01T11:25:09Z</time>
      </trkpt>
      <trkpt lat="45.825607404112816" lon="7.014055531471968">
        <ele>2533.21</ele>
        <time>2013-09-01T11:25:41Z</time>
      </trkpt>
      <trkpt lat="45.825610756874084" lon="7.014053016901016">
        <ele>2532.73</ele>
        <time>2013-09-01T11:26:18Z</time>
      </trkpt>
      <trkpt lat="45.825605057179928" lon="7.014050586149097">
        <ele>2533.21</ele>
        <time>2013-09-01T11:26:56Z</time>
      </trkpt>
      <trkpt lat="45.825603632256389" lon="7.014055615290999">
        <ele>2533.21</ele>
        <time>2013-09-01T11:27:29Z</time>
      </trkpt>
      <trkpt lat="45.82560664974153" lon="7.014053519815207">
        <ele>2533.21</ele>
        <time>2013-09-01T11:28:00Z</time>
      </trkpt>
      <trkpt lat="45.825602626428008" lon="7.014062739908695">
        <ele>2533.21</ele>
        <time>2013-09-01T11:28:28Z</time>
      </trkpt>
      <trkpt lat="45.82559491507709" lon="7.014055280014873">
        <ele>2532.73</ele>
        <time>2013-09-01T11:29:07Z</time>
      </trkpt>
      <trkpt lat="45.825589634478092" lon="7.014057878404856">
        <ele>2533.21</ele>
        <time>2013-09-01T11:29:43Z</time>
      </trkpt>
      <trkpt lat="45.825583012774587" lon="7.014052346348763">
        <ele>2533.21</ele>
        <time>2013-09-01T11:30:22Z</time>
      </trkpt>
      <trkpt lat="45.825588880106807" lon="7.014059303328395">
        <ele>2533.21</ele>
        <time>2013-09-01T11:30:56Z</time>
      </trkpt>
      <trkpt lat="45.825618552044034" lon="7.01407128944993">
        <ele>2533.21</ele>
        <time>2013-09-01T11:31:17Z</time>
      </trkpt>
      <trkpt lat="45.825609667226672" lon="7.01409375295043">
        <ele>2533.6900000000001</ele>
        <time>2013-09-01T11:31:44Z</time>
      </trkpt>
      <trkpt lat="45.82559734582901" lon="7.014105822890997">
        <ele>2533.21</ele>
        <time>2013-09-01T11:32:04Z</time>
      </trkpt>
      <trkpt lat="45.825597513467073" lon="7.014081850647926">
        <ele>2533.21</ele>
        <time>2013-09-01T11:32:40Z</time>
      </trkpt>
      <trkpt lat="45.825614025816321" lon="7.014077911153436">
        <ele>2533.6900000000001</ele>
        <time>2013-09-01T11:32:58Z</time>
      </trkpt>
      <trkpt lat="45.82561394199729" lon="7.014057794585824">
        <ele>2533.6900000000001</ele>
        <time>2013-09-01T11:33:23Z</time>
      </trkpt>
      <trkpt lat="45.825589383020997" lon="7.014092411845923">
        <ele>2534.1700000000001</ele>
        <time>2013-09-01T11:33:51Z</time>
      </trkpt>
      <trkpt lat="45.825599692761898" lon="7.014092160388827">
        <ele>2533.6900000000001</ele>
        <time>2013-09-01T11:34:17Z</time>
      </trkpt>
      <trkpt lat="45.825597178190947" lon="7.014093920588493">
        <ele>2534.1700000000001</ele>
        <time>2013-09-01T11:34:55Z</time>
      </trkpt>
      <trkpt lat="45.825602961704135" lon="7.014090903103352">
        <ele>2534.1700000000001</ele>
        <time>2013-09-01T11:35:25Z</time>
      </trkpt>
      <trkpt lat="45.825593071058393" lon="7.014086712151766">
        <ele>2534.6500000000001</ele>
        <time>2013-09-01T11:36:02Z</time>
      </trkpt>
      <trkpt lat="45.825594831258059" lon="7.0140849519521">
        <ele>2534.1700000000001</ele>
        <time>2013-09-01T11:36:37Z</time>
      </trkpt>
      <trkpt lat="45.825598435476422" lon="7.014104817062616">
        <ele>2534.6500000000001</ele>
        <time>2013-09-01T11:37:03Z</time>
      </trkpt>
      <trkpt lat="45.825605224817991" lon="7.014088220894337">
        <ele>2534.6500000000001</ele>
        <time>2013-09-01T11:37:37Z</time>
      </trkpt>
      <trkpt lat="45.825601788237691" lon="7.014093082398176">
        <ele>2534.1700000000001</ele>
        <time>2013-09-01T11:38:07Z</time>
      </trkpt>
      <trkpt lat="45.82560664974153" lon="7.014085035771132">
        <ele>2534.6500000000001</ele>
        <time>2013-09-01T11:38:42Z</time>
      </trkpt>
      <trkpt lat="45.82560027949512" lon="7.014096602797508">
        <ele>2534.6500000000001</ele>
        <time>2013-09-01T11:39:20Z</time>
      </trkpt>
      <trkpt lat="45.825599525123835" lon="7.014100207015872">
        <ele>2534.1700000000001</ele>
        <time>2013-09-01T11:39:51Z</time>
      </trkpt>
      <trkpt lat="45.825608912855387" lon="7.014090735465288">
        <ele>2534.1700000000001</ele>
        <time>2013-09-01T11:40:21Z</time>
      </trkpt>
      <trkpt lat="45.825610840693116" lon="7.014086041599512">
        <ele>2534.1700000000001</ele>
        <time>2013-09-01T11:40:49Z</time>
      </trkpt>
      <trkpt lat="45.825609918683767" lon="7.014105068519712">
        <ele>2534.6500000000001</ele>
        <time>2013-09-01T11:41:15Z</time>
      </trkpt>
      <trkpt lat="45.825609834864736" lon="7.014096518978477">
        <ele>2534.1700000000001</ele>
        <time>2013-09-01T11:41:49Z</time>
      </trkpt>
      <trkpt lat="45.825609499588609" lon="7.014092998579145">
        <ele>2534.1700000000001</ele>
        <time>2013-09-01T11:42:23Z</time>
      </trkpt>
      <trkpt lat="45.825605224817991" lon="7.014092830941081">
        <ele>2534.1700000000001</ele>
        <time>2013-09-01T11:43:01Z</time>
      </trkpt>
      <trkpt lat="45.825607907027006" lon="7.014093333855271">
        <ele>2534.1700000000001</ele>
        <time>2013-09-01T11:43:40Z</time>
      </trkpt>
      <trkpt lat="45.82561394199729" lon="7.014102889224887">
        <ele>2534.1700000000001</ele>
        <time>2013-09-01T11:44:10Z</time>
      </trkpt>
      <trkpt lat="45.825623665004969" lon="7.014102637767792">
        <ele>2534.1700000000001</ele>
        <time>2013-09-01T11:44:46Z</time>
      </trkpt>
      <trkpt lat="45.825627436861396" lon="7.014099452644587">
        <ele>2534.1700000000001</ele>
        <time>2013-09-01T11:45:15Z</time>
      </trkpt>
      <trkpt lat="45.825624084100127" lon="7.014103392139077">
        <ele>2534.1700000000001</ele>
        <time>2013-09-01T11:45:39Z</time>
      </trkpt>
      <trkpt lat="45.825631208717823" lon="7.014087969437242">
        <ele>2534.1700000000001</ele>
        <time>2013-09-01T11:46:09Z</time>
      </trkpt>
      <trkpt lat="45.825612936168909" lon="7.014095513150096">
        <ele>2534.1700000000001</ele>
        <time>2013-09-01T11:46:38Z</time>
      </trkpt>
      <trkpt lat="45.825615199282765" lon="7.014084197580814">
        <ele>2534.1700000000001</ele>
        <time>2013-09-01T11:47:11Z</time>
      </trkpt>
      <trkpt lat="45.825610924512148" lon="7.01407422311604">
        <ele>2535.1300000000001</ele>
        <time>2013-09-01T11:47:50Z</time>
      </trkpt>
      <trkpt lat="45.825603380799294" lon="7.014084281399846">
        <ele>2534.1700000000001</ele>
        <time>2013-09-01T11:48:24Z</time>
      </trkpt>
      <trkpt lat="45.825598267838359" lon="7.014090651646256">
        <ele>2534.1700000000001</ele>
        <time>2013-09-01T11:48:53Z</time>
      </trkpt>
      <trkpt lat="45.82560614682734" lon="7.014080174267292">
        <ele>2533.6900000000001</ele>
        <time>2013-09-01T11:49:28Z</time>
      </trkpt>
      <trkpt lat="45.825611678883433" lon="7.014084281399846">
        <ele>2534.1700000000001</ele>
        <time>2013-09-01T11:50:03Z</time>
      </trkpt>
      <trkpt lat="45.825613858178258" lon="7.014077911153436">
        <ele>2534.1700000000001</ele>
        <time>2013-09-01T11:50:42Z</time>
      </trkpt>
      <trkpt lat="45.825617797672749" lon="7.014078665524721">
        <ele>2533.6900000000001</ele>
        <time>2013-09-01T11:51:04Z</time>
      </trkpt>
      <trkpt lat="45.825615115463734" lon="7.014086879789829">
        <ele>2534.1700000000001</ele>
        <time>2013-09-01T11:51:41Z</time>
      </trkpt>
      <trkpt lat="45.825628275051713" lon="7.01408009044826">
        <ele>2534.1700000000001</ele>
        <time>2013-09-01T11:52:13Z</time>
      </trkpt>
      <trkpt lat="45.825623162090778" lon="7.014076318591833">
        <ele>2533.6900000000001</ele>
        <time>2013-09-01T11:52:44Z</time>
      </trkpt>
      <trkpt lat="45.825619306415319" lon="7.014087634161115">
        <ele>2533.6900000000001</ele>
        <time>2013-09-01T11:53:13Z</time>
      </trkpt>
      <trkpt lat="45.825626933947206" lon="7.014087466523051">
        <ele>2533.6900000000001</ele>
        <time>2013-09-01T11:53:44Z</time>
      </trkpt>
      <trkpt lat="45.825618216767907" lon="7.014080593362451">
        <ele>2533.6900000000001</ele>
        <time>2013-09-01T11:54:16Z</time>
      </trkpt>
      <trkpt lat="45.825613858178258" lon="7.014083946123719">
        <ele>2534.1700000000001</ele>
        <time>2013-09-01T11:54:53Z</time>
      </trkpt>
      <trkpt lat="45.825619474053383" lon="7.014083443209529">
        <ele>2533.6900000000001</ele>
        <time>2013-09-01T11:55:30Z</time>
      </trkpt>
      <trkpt lat="45.825612433254719" lon="7.014077575877309">
        <ele>2534.1700000000001</ele>
        <time>2013-09-01T11:55:57Z</time>
      </trkpt>
      <trkpt lat="45.825614277273417" lon="7.014082437381148">
        <ele>2534.1700000000001</ele>
        <time>2013-09-01T11:56:31Z</time>
      </trkpt>
      <trkpt lat="45.825611678883433" lon="7.014081180095673">
        <ele>2534.1700000000001</ele>
        <time>2013-09-01T11:57:05Z</time>
      </trkpt>
      <trkpt lat="45.82562081515789" lon="7.014092160388827">
        <ele>2534.1700000000001</ele>
        <time>2013-09-01T11:57:36Z</time>
      </trkpt>
      <trkpt lat="45.825610505416989" lon="7.014092579483986">
        <ele>2533.6900000000001</ele>
        <time>2013-09-01T11:58:11Z</time>
      </trkpt>
      <trkpt lat="45.825604721903801" lon="7.014090400189161">
        <ele>2534.1700000000001</ele>
        <time>2013-09-01T11:58:45Z</time>
      </trkpt>
      <trkpt lat="45.82560371607542" lon="7.014092244207859">
        <ele>2534.1700000000001</ele>
        <time>2013-09-01T11:59:21Z</time>
      </trkpt>
      <trkpt lat="45.82561394199729" lon="7.014084281399846">
        <ele>2534.1700000000001</ele>
        <time>2013-09-01T12:00:00Z</time>
      </trkpt>
      <trkpt lat="45.825609415769577" lon="7.014085873961449">
        <ele>2534.6500000000001</ele>
        <time>2013-09-01T12:00:33Z</time>
      </trkpt>
      <trkpt lat="45.825612349435687" lon="7.014085119590163">
        <ele>2534.6500000000001</ele>
        <time>2013-09-01T12:01:05Z</time>
      </trkpt>
      <trkpt lat="45.825607907027006" lon="7.014085622504354">
        <ele>2534.6500000000001</ele>
        <time>2013-09-01T12:01:33Z</time>
      </trkpt>
      <trkpt lat="45.825610589236021" lon="7.014091489836574">
        <ele>2534.6500000000001</ele>
        <time>2013-09-01T12:02:09Z</time>
      </trkpt>
      <trkpt lat="45.825608745217323" lon="7.014096854254603">
        <ele>2534.6500000000001</ele>
        <time>2013-09-01T12:02:44Z</time>
      </trkpt>
      <trkpt lat="45.825614864006639" lon="7.014085622504354">
        <ele>2534.1700000000001</ele>
        <time>2013-09-01T12:03:23Z</time>
      </trkpt>
      <trkpt lat="45.825605392456055" lon="7.014072379097343">
        <ele>2534.1700000000001</ele>
        <time>2013-09-01T12:03:53Z</time>
      </trkpt>
      <trkpt lat="45.825613187626004" lon="7.014084029942751">
        <ele>2534.6500000000001</ele>
        <time>2013-09-01T12:04:09Z</time>
      </trkpt>
      <trkpt lat="45.825600363314152" lon="7.014080006629229">
        <ele>2533.6900000000001</ele>
        <time>2013-09-01T12:04:32Z</time>
      </trkpt>
      <trkpt lat="45.825606901198626" lon="7.014085622504354">
        <ele>2535.1300000000001</ele>
        <time>2013-09-01T12:04:39Z</time>
      </trkpt>
      <trkpt lat="45.82560908049345" lon="7.014078665524721">
        <ele>2534.6500000000001</ele>
        <time>2013-09-01T12:04:51Z</time>
      </trkpt>
      <trkpt lat="45.825598603114486" lon="7.0140849519521">
        <ele>2534.6500000000001</ele>
        <time>2013-09-01T12:05:20Z</time>
      </trkpt>
      <trkpt lat="45.825607655569911" lon="7.014077492058277">
        <ele>2534.6500000000001</ele>
        <time>2013-09-01T12:05:24Z</time>
      </trkpt>
      <trkpt lat="45.82561737857759" lon="7.014083359390497">
        <ele>2535.6100000000001</ele>
        <time>2013-09-01T12:05:32Z</time>
      </trkpt>
      <trkpt lat="45.82566674798727" lon="7.014137171208859">
        <ele>2537.0599999999999</ele>
        <time>2013-09-01T12:05:44Z</time>
      </trkpt>
      <trkpt lat="45.82571217790246" lon="7.014154186472297">
        <ele>2538.02</ele>
        <time>2013-09-01T12:05:54Z</time>
      </trkpt>
      <trkpt lat="45.825736736878753" lon="7.014201711863279">
        <ele>2537.54</ele>
        <time>2013-09-01T12:05:59Z</time>
      </trkpt>
      <trkpt lat="45.825786525383592" lon="7.014304976910353">
        <ele>2536.5799999999999</ele>
        <time>2013-09-01T12:06:13Z</time>
      </trkpt>
      <trkpt lat="45.825769426301122" lon="7.014304893091321">
        <ele>2536.5799999999999</ele>
        <time>2013-09-01T12:06:29Z</time>
      </trkpt>
      <trkpt lat="45.825803875923157" lon="7.014318890869618">
        <ele>2535.6100000000001</ele>
        <time>2013-09-01T12:06:42Z</time>
      </trkpt>
      <trkpt lat="45.825811000540853" lon="7.014311263337731">
        <ele>2535.6100000000001</ele>
        <time>2013-09-01T12:06:43Z</time>
      </trkpt>
      <trkpt lat="45.82585190422833" lon="7.01424621976912">
        <ele>2535.1300000000001</ele>
        <time>2013-09-01T12:06:55Z</time>
      </trkpt>
      <trkpt lat="45.825877469033003" lon="7.014250997453928">
        <ele>2535.1300000000001</ele>
        <time>2013-09-01T12:07:32Z</time>
      </trkpt>
      <trkpt lat="45.825866153463721" lon="7.014264492318034">
        <ele>2535.1300000000001</ele>
        <time>2013-09-01T12:07:39Z</time>
      </trkpt>
      <trkpt lat="45.825824411585927" lon="7.014293242245913">
        <ele>2535.6100000000001</ele>
        <time>2013-09-01T12:07:52Z</time>
      </trkpt>
      <trkpt lat="45.825802199542522" lon="7.014315538108349">
        <ele>2536.0999999999999</ele>
        <time>2013-09-01T12:08:05Z</time>
      </trkpt>
      <trkpt lat="45.825801361352205" lon="7.014324171468616">
        <ele>2536.0999999999999</ele>
        <time>2013-09-01T12:08:29Z</time>
      </trkpt>
      <trkpt lat="45.82577713765204" lon="7.014364488422871">
        <ele>2536.0999999999999</ele>
        <time>2013-09-01T12:08:40Z</time>
      </trkpt>
      <trkpt lat="45.825715865939856" lon="7.014422658830881">
        <ele>2537.0599999999999</ele>
        <time>2013-09-01T12:08:50Z</time>
      </trkpt>
      <trkpt lat="45.825664233416319" lon="7.014505220577121">
        <ele>2538.5</ele>
        <time>2013-09-01T12:09:04Z</time>
      </trkpt>
      <trkpt lat="45.825625006109476" lon="7.014570096507669">
        <ele>2537.0599999999999</ele>
        <time>2013-09-01T12:09:16Z</time>
      </trkpt>
      <trkpt lat="45.825595669448376" lon="7.014732034876943">
        <ele>2535.1300000000001</ele>
        <time>2013-09-01T12:09:30Z</time>
      </trkpt>
      <trkpt lat="45.82558267749846" lon="7.014772603288293">
        <ele>2534.1700000000001</ele>
        <time>2013-09-01T12:09:42Z</time>
      </trkpt>
      <trkpt lat="45.825542695820332" lon="7.014910904690623">
        <ele>2531.29</ele>
        <time>2013-09-01T12:09:56Z</time>
      </trkpt>
      <trkpt lat="45.825489638373256" lon="7.015064293518663">
        <ele>2528.8899999999999</ele>
        <time>2013-09-01T12:10:13Z</time>
      </trkpt>
      <trkpt lat="45.825488632544875" lon="7.015190524980426">
        <ele>2525.52</ele>
        <time>2013-09-01T12:10:25Z</time>
      </trkpt>
      <trkpt lat="45.825486117973924" lon="7.015217430889607">
        <ele>2525.04</ele>
        <time>2013-09-01T12:10:27Z</time>
      </trkpt>
      <trkpt lat="45.825479496270418" lon="7.015324048697949">
        <ele>2522.1599999999999</ele>
        <time>2013-09-01T12:10:36Z</time>
      </trkpt>
      <trkpt lat="45.825487626716495" lon="7.015431085601449">
        <ele>2518.79</ele>
        <time>2013-09-01T12:10:48Z</time>
      </trkpt>
      <trkpt lat="45.825471449643373" lon="7.015509624034166">
        <ele>2515.4299999999998</ele>
        <time>2013-09-01T12:10:58Z</time>
      </trkpt>
      <trkpt lat="45.82543708384037" lon="7.01553518883884">
        <ele>2513.98</ele>
        <time>2013-09-01T12:11:03Z</time>
      </trkpt>
      <trkpt lat="45.825394168496132" lon="7.015533847734332">
        <ele>2513.02</ele>
        <time>2013-09-01T12:11:09Z</time>
      </trkpt>
      <trkpt lat="45.825337087735534" lon="7.01553225517273">
        <ele>2511.0999999999999</ele>
        <time>2013-09-01T12:11:16Z</time>
      </trkpt>
      <trkpt lat="45.8253129478544" lon="7.015506522729993">
        <ele>2511.5799999999999</ele>
        <time>2013-09-01T12:11:23Z</time>
      </trkpt>
      <trkpt lat="45.82520691677928" lon="7.015424380078912">
        <ele>2507.2600000000002</ele>
        <time>2013-09-01T12:11:37Z</time>
      </trkpt>
      <trkpt lat="45.825200295075774" lon="7.015415830537677">
        <ele>2507.2600000000002</ele>
        <time>2013-09-01T12:11:38Z</time>
      </trkpt>
      <trkpt lat="45.825142962858081" lon="7.015393199399114">
        <ele>2505.8099999999999</ele>
        <time>2013-09-01T12:11:44Z</time>
      </trkpt>
      <trkpt lat="45.825118822976947" lon="7.015367886051536">
        <ele>2503.8899999999999</ele>
        <time>2013-09-01T12:11:47Z</time>
      </trkpt>
      <trkpt lat="45.825091162696481" lon="7.015354558825493">
        <ele>2502.4499999999998</ele>
        <time>2013-09-01T12:11:59Z</time>
      </trkpt>
      <trkpt lat="45.825073560699821" lon="7.015321953222156">
        <ele>2501.4899999999998</ele>
        <time>2013-09-01T12:12:02Z</time>
      </trkpt>
      <trkpt lat="45.825050259009004" lon="7.01530116610229">
        <ele>2500.5300000000002</ele>
        <time>2013-09-01T12:12:04Z</time>
      </trkpt>
      <trkpt lat="45.824988903477788" lon="7.015261771157384">
        <ele>2497.6399999999999</ele>
        <time>2013-09-01T12:12:10Z</time>
      </trkpt>
      <trkpt lat="45.824939366430044" lon="7.015184741467238">
        <ele>2494.2800000000002</ele>
        <time>2013-09-01T12:12:17Z</time>
      </trkpt>
      <trkpt lat="45.824890583753586" lon="7.01506370678544">
        <ele>2490.9099999999999</ele>
        <time>2013-09-01T12:12:28Z</time>
      </trkpt>
      <trkpt lat="45.824851859360933" lon="7.014888608828187">
        <ele>2488.9899999999998</ele>
        <time>2013-09-01T12:12:41Z</time>
      </trkpt>
      <trkpt lat="45.82482042722404" lon="7.014789618551731">
        <ele>2488.5100000000002</ele>
        <time>2013-09-01T12:12:47Z</time>
      </trkpt>
      <trkpt lat="45.824827132746577" lon="7.01468207873404">
        <ele>2488.9899999999998</ele>
        <time>2013-09-01T12:13:00Z</time>
      </trkpt>
      <trkpt lat="45.824833670631051" lon="7.014588955789805">
        <ele>2488.0300000000002</ele>
        <time>2013-09-01T12:13:15Z</time>
      </trkpt>
      <trkpt lat="45.82484389655292" lon="7.014410085976124">
        <ele>2488.0300000000002</ele>
        <time>2013-09-01T12:13:30Z</time>
      </trkpt>
      <trkpt lat="45.824829898774624" lon="7.014139099046588">
        <ele>2485.6300000000001</ele>
        <time>2013-09-01T12:13:46Z</time>
      </trkpt>
      <trkpt lat="45.82476083189249" lon="7.013851599767804">
        <ele>2482.2600000000002</ele>
        <time>2013-09-01T12:14:03Z</time>
      </trkpt>
      <trkpt lat="45.824746834114194" lon="7.013736683875322">
        <ele>2482.7399999999998</ele>
        <time>2013-09-01T12:14:11Z</time>
      </trkpt>
      <trkpt lat="45.824751444160938" lon="7.013654205948114">
        <ele>2481.7800000000002</ele>
        <time>2013-09-01T12:14:15Z</time>
      </trkpt>
      <trkpt lat="45.8247309923172" lon="7.013554126024246">
        <ele>2480.3400000000001</ele>
        <time>2013-09-01T12:14:21Z</time>
      </trkpt>
      <trkpt lat="45.824711630120873" lon="7.013275343924761">
        <ele>2478.4200000000001</ele>
        <time>2013-09-01T12:14:38Z</time>
      </trkpt>
      <trkpt lat="45.82467189989984" lon="7.013065461069346">
        <ele>2476.0100000000002</ele>
        <time>2013-09-01T12:14:52Z</time>
      </trkpt>
      <trkpt lat="45.824639881029725" lon="7.012923220172525">
        <ele>2473.1300000000001</ele>
        <time>2013-09-01T12:15:03Z</time>
      </trkpt>
      <trkpt lat="45.824618088081479" lon="7.012669919058681">
        <ele>2470.2399999999998</ele>
        <time>2013-09-01T12:15:19Z</time>
      </trkpt>
      <trkpt lat="45.824641138315201" lon="7.012392142787576">
        <ele>2467.3600000000001</ele>
        <time>2013-09-01T12:15:36Z</time>
      </trkpt>
      <trkpt lat="45.824594283476472" lon="7.012251913547516">
        <ele>2464.48</ele>
        <time>2013-09-01T12:15:48Z</time>
      </trkpt>
      <trkpt lat="45.824582548812032" lon="7.012200616300106">
        <ele>2463.52</ele>
        <time>2013-09-01T12:15:52Z</time>
      </trkpt>
      <trkpt lat="45.824554050341249" lon="7.012142278254032">
        <ele>2462.5500000000002</ele>
        <time>2013-09-01T12:15:57Z</time>
      </trkpt>
      <trkpt lat="45.824552876874804" lon="7.0121162943542">
        <ele>2462.0700000000002</ele>
        <time>2013-09-01T12:15:59Z</time>
      </trkpt>
      <trkpt lat="45.824535274878144" lon="7.012048484757543">
        <ele>2460.1500000000001</ele>
        <time>2013-09-01T12:16:04Z</time>
      </trkpt>
      <trkpt lat="45.824500154703856" lon="7.011923929676414">
        <ele>2457.27</ele>
        <time>2013-09-01T12:16:15Z</time>
      </trkpt>
      <trkpt lat="45.824464783072472" lon="7.011798284947872">
        <ele>2453.9000000000001</ele>
        <time>2013-09-01T12:16:25Z</time>
      </trkpt>
      <trkpt lat="45.824457239359617" lon="7.011756962165237">
        <ele>2453.9000000000001</ele>
        <time>2013-09-01T12:16:28Z</time>
      </trkpt>
      <trkpt lat="45.824502920731902" lon="7.011568117886782">
        <ele>2453.4200000000001</ele>
        <time>2013-09-01T12:16:42Z</time>
      </trkpt>
      <trkpt lat="45.824508788064122" lon="7.011558394879103">
        <ele>2453.4200000000001</ele>
        <time>2013-09-01T12:16:43Z</time>
      </trkpt>
      <trkpt lat="45.824528569355607" lon="7.011512210592628">
        <ele>2454.8600000000001</ele>
        <time>2013-09-01T12:16:55Z</time>
      </trkpt>
      <trkpt lat="45.824528820812702" lon="7.011509193107486">
        <ele>2454.3800000000001</ele>
        <time>2013-09-01T12:17:28Z</time>
      </trkpt>
      <trkpt lat="45.824516834691167" lon="7.011562250554562">
        <ele>2454.3800000000001</ele>
        <time>2013-09-01T12:17:43Z</time>
      </trkpt>
      <trkpt lat="45.824466291815042" lon="7.011529980227351">
        <ele>2451.02</ele>
        <time>2013-09-01T12:17:51Z</time>
      </trkpt>
      <trkpt lat="45.824460340663791" lon="7.011532327160239">
        <ele>2450.54</ele>
        <time>2013-09-01T12:17:52Z</time>
      </trkpt>
      <trkpt lat="45.824409043416381" lon="7.011485137045384">
        <ele>2447.6500000000001</ele>
        <time>2013-09-01T12:18:01Z</time>
      </trkpt>
      <trkpt lat="45.824366714805365" lon="7.011475414037705">
        <ele>2444.77</ele>
        <time>2013-09-01T12:18:11Z</time>
      </trkpt>
      <trkpt lat="45.824355147778988" lon="7.011460661888123">
        <ele>2443.3299999999999</ele>
        <time>2013-09-01T12:18:14Z</time>
      </trkpt>
      <trkpt lat="45.824329163879156" lon="7.011409029364586">
        <ele>2440.4400000000001</ele>
        <time>2013-09-01T12:18:26Z</time>
      </trkpt>
      <trkpt lat="45.824311478063464" lon="7.011410538107157">
        <ele>2439.96</ele>
        <time>2013-09-01T12:18:29Z</time>
      </trkpt>
      <trkpt lat="45.824282811954618" lon="7.011403748765588">
        <ele>2438.52</ele>
        <time>2013-09-01T12:18:33Z</time>
      </trkpt>
      <trkpt lat="45.824258839711547" lon="7.011331245303154">
        <ele>2435.1599999999999</ele>
        <time>2013-09-01T12:18:40Z</time>
      </trkpt>
      <trkpt lat="45.824261689558625" lon="7.011296879500151">
        <ele>2434.1999999999998</ele>
        <time>2013-09-01T12:18:43Z</time>
      </trkpt>
      <trkpt lat="45.824291612952948" lon="7.011202163994312">
        <ele>2433.23</ele>
        <time>2013-09-01T12:18:54Z</time>
      </trkpt>
      <trkpt lat="45.824316842481494" lon="7.011151872575283">
        <ele>2430.8299999999999</ele>
        <time>2013-09-01T12:19:02Z</time>
      </trkpt>
      <trkpt lat="45.82434106618166" lon="7.011102670803666">
        <ele>2428.9099999999999</ele>
        <time>2013-09-01T12:19:06Z</time>
      </trkpt>
      <trkpt lat="45.824343329295516" lon="7.011089846491814">
        <ele>2428.9099999999999</ele>
        <time>2013-09-01T12:19:08Z</time>
      </trkpt>
      <trkpt lat="45.824347101151943" lon="7.011060928925872">
        <ele>2427.9499999999998</ele>
        <time>2013-09-01T12:19:10Z</time>
      </trkpt>
      <trkpt lat="45.824377192184329" lon="7.010975768789649">
        <ele>2426.02</ele>
        <time>2013-09-01T12:19:17Z</time>
      </trkpt>
      <trkpt lat="45.824412647634745" lon="7.010818189010024">
        <ele>2423.1399999999999</ele>
        <time>2013-09-01T12:19:27Z</time>
      </trkpt>
      <trkpt lat="45.824438463896513" lon="7.010721294209361">
        <ele>2421.6999999999998</ele>
        <time>2013-09-01T12:19:32Z</time>
      </trkpt>
      <trkpt lat="45.824372498318553" lon="7.010466819629073">
        <ele>2420.2600000000002</ele>
        <time>2013-09-01T12:19:48Z</time>
      </trkpt>
      <trkpt lat="45.824346430599689" lon="7.010249393060803">
        <ele>2419.7800000000002</ele>
        <time>2013-09-01T12:20:01Z</time>
      </trkpt>
      <trkpt lat="45.824286667630076" lon="7.010003635659814">
        <ele>2418.8099999999999</ele>
        <time>2013-09-01T12:20:17Z</time>
      </trkpt>
      <trkpt lat="45.824283817782998" lon="7.009929288178682">
        <ele>2416.8899999999999</ele>
        <time>2013-09-01T12:20:30Z</time>
      </trkpt>
      <trkpt lat="45.824283566325903" lon="7.009925097227097">
        <ele>2417.3699999999999</ele>
        <time>2013-09-01T12:20:32Z</time>
      </trkpt>
      <trkpt lat="45.824239561334252" lon="7.009741868823767">
        <ele>2415.9299999999998</ele>
        <time>2013-09-01T12:20:43Z</time>
      </trkpt>
      <trkpt lat="45.824158256873488" lon="7.009537015110254">
        <ele>2414.0100000000002</ele>
        <time>2013-09-01T12:20:57Z</time>
      </trkpt>
      <trkpt lat="45.82412707619369" lon="7.009444478899241">
        <ele>2414.0100000000002</ele>
        <time>2013-09-01T12:21:03Z</time>
      </trkpt>
      <trkpt lat="45.824119700118899" lon="7.00937557965517">
        <ele>2414.0100000000002</ele>
        <time>2013-09-01T12:21:07Z</time>
      </trkpt>
      <trkpt lat="45.824103020131588" lon="7.009316235780716">
        <ele>2413.0500000000002</ele>
        <time>2013-09-01T12:21:11Z</time>
      </trkpt>
      <trkpt lat="45.824081897735596" lon="7.009224956855178">
        <ele>2411.5999999999999</ele>
        <time>2013-09-01T12:21:17Z</time>
      </trkpt>
      <trkpt lat="45.824071504175663" lon="7.009179946035147">
        <ele>2409.1999999999998</ele>
        <time>2013-09-01T12:21:21Z</time>
      </trkpt>
      <trkpt lat="45.824071001261473" lon="7.009178018197417">
        <ele>2409.1999999999998</ele>
        <time>2013-09-01T12:21:22Z</time>
      </trkpt>
      <trkpt lat="45.824050381779671" lon="7.009133426472545">
        <ele>2407.2800000000002</ele>
        <time>2013-09-01T12:21:38Z</time>
      </trkpt>
      <trkpt lat="45.824023643508554" lon="7.009102581068873">
        <ele>2406.3200000000002</ele>
        <time>2013-09-01T12:21:56Z</time>
      </trkpt>
      <trkpt lat="45.824016854166985" lon="7.009079614654183">
        <ele>2405.8400000000001</ele>
        <time>2013-09-01T12:22:00Z</time>
      </trkpt>
      <trkpt lat="45.823987517505884" lon="7.009071484208107">
        <ele>2406.3200000000002</ele>
        <time>2013-09-01T12:22:14Z</time>
      </trkpt>
      <trkpt lat="45.823983829468489" lon="7.009066706523299">
        <ele>2404.8800000000001</ele>
        <time>2013-09-01T12:22:33Z</time>
      </trkpt>
      <trkpt lat="45.823986763134599" lon="7.00901348143816">
        <ele>2404.3899999999999</ele>
        <time>2013-09-01T12:22:50Z</time>
      </trkpt>
      <trkpt lat="45.823996821418405" lon="7.009018929675221">
        <ele>2404.3899999999999</ele>
        <time>2013-09-01T12:23:10Z</time>
      </trkpt>
      <trkpt lat="45.823994474485517" lon="7.009001411497593">
        <ele>2403.9099999999999</ele>
        <time>2013-09-01T12:23:27Z</time>
      </trkpt>
      <trkpt lat="45.824009561911225" lon="7.008891524747014">
        <ele>2403.4299999999998</ele>
        <time>2013-09-01T12:23:41Z</time>
      </trkpt>
      <trkpt lat="45.824036886915565" lon="7.008848022669554">
        <ele>2403.4299999999998</ele>
        <time>2013-09-01T12:23:53Z</time>
      </trkpt>
      <trkpt lat="45.824044346809387" lon="7.008829079568386">
        <ele>2403.4299999999998</ele>
        <time>2013-09-01T12:24:00Z</time>
      </trkpt>
      <trkpt lat="45.824043424800038" lon="7.008792785927653">
        <ele>2402.9499999999998</ele>
        <time>2013-09-01T12:24:03Z</time>
      </trkpt>
      <trkpt lat="45.824024397879839" lon="7.008764203637838">
        <ele>2403.4299999999998</ele>
        <time>2013-09-01T12:24:06Z</time>
      </trkpt>
      <trkpt lat="45.823983997106552" lon="7.008557254448533">
        <ele>2400.0700000000002</ele>
        <time>2013-09-01T12:24:21Z</time>
      </trkpt>
      <trkpt lat="45.823945691809058" lon="7.008411157876253">
        <ele>2396.6999999999998</ele>
        <time>2013-09-01T12:24:33Z</time>
      </trkpt>
      <trkpt lat="45.823933873325586" lon="7.008357932791114">
        <ele>2395.2600000000002</ele>
        <time>2013-09-01T12:24:37Z</time>
      </trkpt>
      <trkpt lat="45.823915349319577" lon="7.008183337748051">
        <ele>2392.3800000000001</ele>
        <time>2013-09-01T12:24:50Z</time>
      </trkpt>
      <trkpt lat="45.823892466723919" lon="7.008083425462246">
        <ele>2391.9000000000001</ele>
        <time>2013-09-01T12:24:59Z</time>
      </trkpt>
      <trkpt lat="45.82388810813427" lon="7.007887037470937">
        <ele>2388.0500000000002</ele>
        <time>2013-09-01T12:25:14Z</time>
      </trkpt>
      <trkpt lat="45.823887689039111" lon="7.007852336391807">
        <ele>2386.6100000000001</ele>
        <time>2013-09-01T12:25:17Z</time>
      </trkpt>
      <trkpt lat="45.82386564463377" lon="7.007787209004164">
        <ele>2385.1700000000001</ele>
        <time>2013-09-01T12:25:22Z</time>
      </trkpt>
      <trkpt lat="45.823856173083186" lon="7.007736833766103">
        <ele>2383.25</ele>
        <time>2013-09-01T12:25:26Z</time>
      </trkpt>
      <trkpt lat="45.823820633813739" lon="7.007620241492987">
        <ele>2380.8400000000001</ele>
        <time>2013-09-01T12:25:39Z</time>
      </trkpt>
      <trkpt lat="45.823819460347295" lon="7.007608842104673">
        <ele>2380.3600000000001</ele>
        <time>2013-09-01T12:25:40Z</time>
      </trkpt>
      <trkpt lat="45.823816023766994" lon="7.007573219016194">
        <ele>2379.8800000000001</ele>
        <time>2013-09-01T12:25:44Z</time>
      </trkpt>
      <trkpt lat="45.823761289939284" lon="7.007479257881641">
        <ele>2377.48</ele>
        <time>2013-09-01T12:25:53Z</time>
      </trkpt>
      <trkpt lat="45.823712926357985" lon="7.007352188229561">
        <ele>2374.1100000000001</ele>
        <time>2013-09-01T12:26:05Z</time>
      </trkpt>
      <trkpt lat="45.823677554726601" lon="7.00725051574409">
        <ele>2372.1900000000001</ele>
        <time>2013-09-01T12:26:13Z</time>
      </trkpt>
      <trkpt lat="45.823635896667838" lon="7.007199134677649">
        <ele>2371.23</ele>
        <time>2013-09-01T12:26:19Z</time>
      </trkpt>
      <trkpt lat="45.823591891676188" lon="7.007010625675321">
        <ele>2367.8600000000001</ele>
        <time>2013-09-01T12:26:33Z</time>
      </trkpt>
      <trkpt lat="45.823570936918259" lon="7.006774842739105">
        <ele>2365.46</ele>
        <time>2013-09-01T12:26:49Z</time>
      </trkpt>
      <trkpt lat="45.823583761230111" lon="7.006739722564817">
        <ele>2364.5</ele>
        <time>2013-09-01T12:27:04Z</time>
      </trkpt>
      <trkpt lat="45.823584012687206" lon="7.006740057840943">
        <ele>2364.5</ele>
        <time>2013-09-01T12:27:14Z</time>
      </trkpt>
      <trkpt lat="45.82355878315866" lon="7.006691107526422">
        <ele>2363.54</ele>
        <time>2013-09-01T12:27:19Z</time>
      </trkpt>
      <trkpt lat="45.82349818199873" lon="7.006595470011234">
        <ele>2360.1700000000001</ele>
        <time>2013-09-01T12:27:28Z</time>
      </trkpt>
      <trkpt lat="45.82346155308187" lon="7.006422216072679">
        <ele>2357.29</ele>
        <time>2013-09-01T12:27:39Z</time>
      </trkpt>
      <trkpt lat="45.823369603604078" lon="7.006250889971852">
        <ele>2353.9299999999998</ele>
        <time>2013-09-01T12:27:51Z</time>
      </trkpt>
      <trkpt lat="45.823344876989722" lon="7.006162460893393">
        <ele>2353.4400000000001</ele>
        <time>2013-09-01T12:27:57Z</time>
      </trkpt>
      <trkpt lat="45.823305565863848" lon="7.005971604958177">
        <ele>2350.0799999999999</ele>
        <time>2013-09-01T12:28:12Z</time>
      </trkpt>
      <trkpt lat="45.823258711025119" lon="7.005812013521791">
        <ele>2346.7199999999998</ele>
        <time>2013-09-01T12:28:26Z</time>
      </trkpt>
      <trkpt lat="45.823249323293567" lon="7.005801033228636">
        <ele>2346.7199999999998</ele>
        <time>2013-09-01T12:28:27Z</time>
      </trkpt>
      <trkpt lat="45.823221076279879" lon="7.005719058215618">
        <ele>2344.79</ele>
        <time>2013-09-01T12:28:33Z</time>
      </trkpt>
      <trkpt lat="45.823197523131967" lon="7.005587127059698">
        <ele>2342.8699999999999</ele>
        <time>2013-09-01T12:28:43Z</time>
      </trkpt>
      <trkpt lat="45.82312342710793" lon="7.005356121808291">
        <ele>2340.4699999999998</ele>
        <time>2013-09-01T12:28:59Z</time>
      </trkpt>
      <trkpt lat="45.823055449873209" lon="7.005164260044694">
        <ele>2338.54</ele>
        <time>2013-09-01T12:29:17Z</time>
      </trkpt>
      <trkpt lat="45.822999458760023" lon="7.004998968914151">
        <ele>2338.0599999999999</ele>
        <time>2013-09-01T12:29:33Z</time>
      </trkpt>
      <trkpt lat="45.822933493182063" lon="7.004818757995963">
        <ele>2338.0599999999999</ele>
        <time>2013-09-01T12:29:47Z</time>
      </trkpt>
      <trkpt lat="45.822842884808779" lon="7.004615245386958">
        <ele>2337.5799999999999</ele>
        <time>2013-09-01T12:30:03Z</time>
      </trkpt>
      <trkpt lat="45.822794772684574" lon="7.004435285925865">
        <ele>2338.0599999999999</ele>
        <time>2013-09-01T12:30:17Z</time>
      </trkpt>
      <trkpt lat="45.822704918682575" lon="7.004261445254087">
        <ele>2337.5799999999999</ele>
        <time>2013-09-01T12:30:33Z</time>
      </trkpt>
      <trkpt lat="45.822628559544683" lon="7.004117360338569">
        <ele>2336.1399999999999</ele>
        <time>2013-09-01T12:30:46Z</time>
      </trkpt>
      <trkpt lat="45.822626631706953" lon="7.004088778048754">
        <ele>2335.1799999999998</ele>
        <time>2013-09-01T12:30:48Z</time>
      </trkpt>
      <trkpt lat="45.822630571201444" lon="7.003937149420381">
        <ele>2332.7800000000002</ele>
        <time>2013-09-01T12:30:58Z</time>
      </trkpt>
      <trkpt lat="45.82259913906455" lon="7.003798680379987">
        <ele>2331.3299999999999</ele>
        <time>2013-09-01T12:31:08Z</time>
      </trkpt>
      <trkpt lat="45.8224774338305" lon="7.003633053973317">
        <ele>2331.3299999999999</ele>
        <time>2013-09-01T12:31:24Z</time>
      </trkpt>
      <trkpt lat="45.822449689731002" lon="7.003576895222068">
        <ele>2331.3299999999999</ele>
        <time>2013-09-01T12:31:28Z</time>
      </trkpt>
      <trkpt lat="45.822368720546365" lon="7.003428032621741">
        <ele>2330.8499999999999</ele>
        <time>2013-09-01T12:31:40Z</time>
      </trkpt>
      <trkpt lat="45.822350112721324" lon="7.003355780616403">
        <ele>2330.8499999999999</ele>
        <time>2013-09-01T12:31:45Z</time>
      </trkpt>
      <trkpt lat="45.822316585108638" lon="7.003315212205052">
        <ele>2330.3699999999999</ele>
        <time>2013-09-01T12:31:49Z</time>
      </trkpt>
      <trkpt lat="45.822238633409142" lon="7.003075070679188">
        <ele>2329.8899999999999</ele>
        <time>2013-09-01T12:32:05Z</time>
      </trkpt>
      <trkpt lat="45.822224887087941" lon="7.003055540844798">
        <ele>2329.8899999999999</ele>
        <time>2013-09-01T12:32:08Z</time>
      </trkpt>
      <trkpt lat="45.822175601497293" lon="7.00293542817235">
        <ele>2330.8499999999999</ele>
        <time>2013-09-01T12:32:17Z</time>
      </trkpt>
      <trkpt lat="45.822128998115659" lon="7.002800395712256">
        <ele>2332.3000000000002</ele>
        <time>2013-09-01T12:32:31Z</time>
      </trkpt>
      <trkpt lat="45.822126986458898" lon="7.002790002152324">
        <ele>2332.3000000000002</ele>
        <time>2013-09-01T12:32:35Z</time>
      </trkpt>
      <trkpt lat="45.822065211832523" lon="7.002620603889227">
        <ele>2332.7800000000002</ele>
        <time>2013-09-01T12:32:48Z</time>
      </trkpt>
      <trkpt lat="45.821995222941041" lon="7.002461766824126">
        <ele>2333.2600000000002</ele>
        <time>2013-09-01T12:33:01Z</time>
      </trkpt>
      <trkpt lat="45.821920288726687" lon="7.002315586432815">
        <ele>2334.6999999999998</ele>
        <time>2013-09-01T12:33:14Z</time>
      </trkpt>
      <trkpt lat="45.821851221844554" lon="7.00218147598207">
        <ele>2335.6599999999999</ele>
        <time>2013-09-01T12:33:27Z</time>
      </trkpt>
      <trkpt lat="45.821760194376111" lon="7.002046778798103">
        <ele>2337.5799999999999</ele>
        <time>2013-09-01T12:33:42Z</time>
      </trkpt>
      <trkpt lat="45.821707472205162" lon="7.001858102157712">
        <ele>2338.0599999999999</ele>
        <time>2013-09-01T12:33:57Z</time>
      </trkpt>
      <trkpt lat="45.821702359244227" lon="7.001823987811804">
        <ele>2338.54</ele>
        <time>2013-09-01T12:34:01Z</time>
      </trkpt>
      <trkpt lat="45.821657348424196" lon="7.001692643389106">
        <ele>2339.5100000000002</ele>
        <time>2013-09-01T12:34:12Z</time>
      </trkpt>
      <trkpt lat="45.821580151095986" lon="7.001523328945041">
        <ele>2340.4699999999998</ele>
        <time>2013-09-01T12:34:27Z</time>
      </trkpt>
      <trkpt lat="45.821527345106006" lon="7.001354768872261">
        <ele>2340.9499999999998</ele>
        <time>2013-09-01T12:34:40Z</time>
      </trkpt>
      <trkpt lat="45.821505887433887" lon="7.001314871013165">
        <ele>2341.9099999999999</ele>
        <time>2013-09-01T12:34:44Z</time>
      </trkpt>
      <trkpt lat="45.821476466953754" lon="7.001289557665587">
        <ele>2342.3899999999999</ele>
        <time>2013-09-01T12:34:52Z</time>
      </trkpt>
      <trkpt lat="45.821440005674958" lon="7.001156955957413">
        <ele>2341.9099999999999</ele>
        <time>2013-09-01T12:35:01Z</time>
      </trkpt>
      <trkpt lat="45.821399856358767" lon="7.001035837456584">
        <ele>2341.9099999999999</ele>
        <time>2013-09-01T12:35:09Z</time>
      </trkpt>
      <trkpt lat="45.82140002399683" lon="7.000948414206505">
        <ele>2341.9099999999999</ele>
        <time>2013-09-01T12:35:14Z</time>
      </trkpt>
      <trkpt lat="45.821328023448586" lon="7.000703075900674">
        <ele>2340.9499999999998</ele>
        <time>2013-09-01T12:35:30Z</time>
      </trkpt>
      <trkpt lat="45.821312433108687" lon="7.000579861924052">
        <ele>2341.4299999999998</ele>
        <time>2013-09-01T12:35:45Z</time>
      </trkpt>
      <trkpt lat="45.821315618231893" lon="7.000578604638577">
        <ele>2340.9499999999998</ele>
        <time>2013-09-01T12:36:08Z</time>
      </trkpt>
      <trkpt lat="45.821313019841909" lon="7.000577179715037">
        <ele>2340.9499999999998</ele>
        <time>2013-09-01T12:36:28Z</time>
      </trkpt>
      <trkpt lat="45.821271697059274" lon="7.000471819192171">
        <ele>2341.4299999999998</ele>
        <time>2013-09-01T12:36:38Z</time>
      </trkpt>
      <trkpt lat="45.821248479187489" lon="7.000434016808868">
        <ele>2340.9499999999998</ele>
        <time>2013-09-01T12:36:41Z</time>
      </trkpt>
      <trkpt lat="45.821227189153433" lon="7.000393448397517">
        <ele>2341.4299999999998</ele>
        <time>2013-09-01T12:36:45Z</time>
      </trkpt>
      <trkpt lat="45.821126271039248" lon="7.000243328511715">
        <ele>2342.3899999999999</ele>
        <time>2013-09-01T12:36:58Z</time>
      </trkpt>
      <trkpt lat="45.821008756756783" lon="7.000147271901369">
        <ele>2342.3899999999999</ele>
        <time>2013-09-01T12:37:10Z</time>
      </trkpt>
      <trkpt lat="45.82090406678617" lon="6.999929761514068">
        <ele>2341.9099999999999</ele>
        <time>2013-09-01T12:37:25Z</time>
      </trkpt>
      <trkpt lat="45.82081857137382" lon="6.999693559482694">
        <ele>2340.9499999999998</ele>
        <time>2013-09-01T12:37:42Z</time>
      </trkpt>
      <trkpt lat="45.820743469521403" lon="6.999468421563506">
        <ele>2341.4299999999998</ele>
        <time>2013-09-01T12:37:59Z</time>
      </trkpt>
      <trkpt lat="45.820747995749116" lon="6.999370772391558">
        <ele>2339.9899999999998</ele>
        <time>2013-09-01T12:38:04Z</time>
      </trkpt>
      <trkpt lat="45.820713127031922" lon="6.999248480424285">
        <ele>2339.5100000000002</ele>
        <time>2013-09-01T12:38:12Z</time>
      </trkpt>
      <trkpt lat="45.820651017129421" lon="6.999076064676046">
        <ele>2339.02</ele>
        <time>2013-09-01T12:38:26Z</time>
      </trkpt>
      <trkpt lat="45.82065436989069" lon="6.99907036498189">
        <ele>2340.4699999999998</ele>
        <time>2013-09-01T12:38:39Z</time>
      </trkpt>
      <trkpt lat="45.820677252486348" lon="6.999031724408269">
        <ele>2341.4299999999998</ele>
        <time>2013-09-01T12:38:51Z</time>
      </trkpt>
      <trkpt lat="45.820696363225579" lon="6.999029712751508">
        <ele>2341.4299999999998</ele>
        <time>2013-09-01T12:39:04Z</time>
      </trkpt>
      <trkpt lat="45.82070373930037" lon="6.999050583690405">
        <ele>2340.9499999999998</ele>
        <time>2013-09-01T12:39:06Z</time>
      </trkpt>
      <trkpt lat="45.820690914988518" lon="6.999035160988569">
        <ele>2340.9499999999998</ele>
        <time>2013-09-01T12:39:21Z</time>
      </trkpt>
      <trkpt lat="45.820683119818568" lon="6.99903373606503">
        <ele>2341.4299999999998</ele>
        <time>2013-09-01T12:39:28Z</time>
      </trkpt>
      <trkpt lat="45.820617321878672" lon="6.999003477394581">
        <ele>2339.9899999999998</ele>
        <time>2013-09-01T12:39:40Z</time>
      </trkpt>
      <trkpt lat="45.820568539202213" lon="6.998879173770547">
        <ele>2338.54</ele>
        <time>2013-09-01T12:39:49Z</time>
      </trkpt>
      <trkpt lat="45.820563090965152" lon="6.99880063533783">
        <ele>2336.6199999999999</ele>
        <time>2013-09-01T12:39:53Z</time>
      </trkpt>
      <trkpt lat="45.820549260824919" lon="6.998517829924822">
        <ele>2335.1799999999998</ele>
        <time>2013-09-01T12:40:09Z</time>
      </trkpt>
      <trkpt lat="45.820511374622583" lon="6.998271904885769">
        <ele>2334.6999999999998</ele>
        <time>2013-09-01T12:40:25Z</time>
      </trkpt>
      <trkpt lat="45.820490503683686" lon="6.998165789991617">
        <ele>2333.7399999999998</ele>
        <time>2013-09-01T12:40:37Z</time>
      </trkpt>
      <trkpt lat="45.820481115952134" lon="6.998162772506475">
        <ele>2333.7399999999998</ele>
        <time>2013-09-01T12:40:56Z</time>
      </trkpt>
      <trkpt lat="45.820473991334438" lon="6.998137878254056">
        <ele>2333.2600000000002</ele>
        <time>2013-09-01T12:40:58Z</time>
      </trkpt>
      <trkpt lat="45.820466950535774" lon="6.997998235747218">
        <ele>2332.3000000000002</ele>
        <time>2013-09-01T12:41:06Z</time>
      </trkpt>
      <trkpt lat="45.820497209206223" lon="6.997772678732872">
        <ele>2329.8899999999999</ele>
        <time>2013-09-01T12:41:19Z</time>
      </trkpt>
      <trkpt lat="45.820429818704724" lon="6.997558940201998">
        <ele>2328.9299999999998</ele>
        <time>2013-09-01T12:41:35Z</time>
      </trkpt>
      <trkpt lat="45.820379946380854" lon="6.997437821701169">
        <ele>2328.9299999999998</ele>
        <time>2013-09-01T12:41:49Z</time>
      </trkpt>
      <trkpt lat="45.820305934175849" lon="6.997227352112532">
        <ele>2329.4099999999999</ele>
        <time>2013-09-01T12:42:05Z</time>
      </trkpt>
      <trkpt lat="45.820275340229273" lon="6.996946139261127">
        <ele>2328.9299999999998</ele>
        <time>2013-09-01T12:42:23Z</time>
      </trkpt>
      <trkpt lat="45.820196885615587" lon="6.996740279719234">
        <ele>2327.9699999999998</ele>
        <time>2013-09-01T12:42:37Z</time>
      </trkpt>
      <trkpt lat="45.820180624723434" lon="6.99670490808785">
        <ele>2328.4499999999998</ele>
        <time>2013-09-01T12:42:40Z</time>
      </trkpt>
      <trkpt lat="45.820114659145474" lon="6.99650265276432">
        <ele>2329.8899999999999</ele>
        <time>2013-09-01T12:42:56Z</time>
      </trkpt>
      <trkpt lat="45.820095129311085" lon="6.996432244777679">
        <ele>2329.4099999999999</ele>
        <time>2013-09-01T12:43:01Z</time>
      </trkpt>
      <trkpt lat="45.820101834833622" lon="6.996378684416413">
        <ele>2329.8899999999999</ele>
        <time>2013-09-01T12:43:14Z</time>
      </trkpt>
      <trkpt lat="45.820097643882036" lon="6.996380612254143">
        <ele>2329.4099999999999</ele>
        <time>2013-09-01T12:43:15Z</time>
      </trkpt>
      <trkpt lat="45.820074006915092" lon="6.996323363855481">
        <ele>2328.9299999999998</ele>
        <time>2013-09-01T12:43:19Z</time>
      </trkpt>
      <trkpt lat="45.820007035508752" lon="6.996054388582707">
        <ele>2328.4499999999998</ele>
        <time>2013-09-01T12:43:34Z</time>
      </trkpt>
      <trkpt lat="45.819963365793228" lon="6.995739731937647">
        <ele>2327.0100000000002</ele>
        <time>2013-09-01T12:43:53Z</time>
      </trkpt>
      <trkpt lat="45.819873176515102" lon="6.995495902374387">
        <ele>2325.0900000000001</ele>
        <time>2013-09-01T12:44:08Z</time>
      </trkpt>
      <trkpt lat="45.819767313078046" lon="6.99527126736939">
        <ele>2322.6799999999998</ele>
        <time>2013-09-01T12:44:24Z</time>
      </trkpt>
      <trkpt lat="45.819669496268034" lon="6.995055684819818">
        <ele>2322.1999999999998</ele>
        <time>2013-09-01T12:44:40Z</time>
      </trkpt>
      <trkpt lat="45.819632029160857" lon="6.994991647079587">
        <ele>2321.2399999999998</ele>
        <time>2013-09-01T12:44:49Z</time>
      </trkpt>
      <trkpt lat="45.819518202915788" lon="6.994737340137363">
        <ele>2319.3200000000002</ele>
        <time>2013-09-01T12:45:06Z</time>
      </trkpt>
      <trkpt lat="45.819512838497758" lon="6.994709093123674">
        <ele>2318.8400000000001</ele>
        <time>2013-09-01T12:45:20Z</time>
      </trkpt>
      <trkpt lat="45.819417620077729" lon="6.99444548226893">
        <ele>2316.4299999999998</ele>
        <time>2013-09-01T12:45:37Z</time>
      </trkpt>
      <trkpt lat="45.819246210157871" lon="6.994229899719358">
        <ele>2316.9099999999999</ele>
        <time>2013-09-01T12:45:55Z</time>
      </trkpt>
      <trkpt lat="45.81909416243434" lon="6.994029739871621">
        <ele>2316.4299999999998</ele>
        <time>2013-09-01T12:46:12Z</time>
      </trkpt>
      <trkpt lat="45.818984359502792" lon="6.993840727955103">
        <ele>2315.9499999999998</ele>
        <time>2013-09-01T12:46:25Z</time>
      </trkpt>
      <trkpt lat="45.818953597918153" lon="6.993772499263287">
        <ele>2314.5100000000002</ele>
        <time>2013-09-01T12:46:29Z</time>
      </trkpt>
      <trkpt lat="45.818887716159225" lon="6.993595054373145">
        <ele>2313.0700000000002</ele>
        <time>2013-09-01T12:46:39Z</time>
      </trkpt>
      <trkpt lat="45.818848824128509" lon="6.993510648608208">
        <ele>2312.5900000000001</ele>
        <time>2013-09-01T12:46:44Z</time>
      </trkpt>
      <trkpt lat="45.818722173571587" lon="6.993341166526079">
        <ele>2311.1500000000001</ele>
        <time>2013-09-01T12:46:57Z</time>
      </trkpt>
      <trkpt lat="45.81867297179997" lon="6.993244607001543">
        <ele>2310.1900000000001</ele>
        <time>2013-09-01T12:47:04Z</time>
      </trkpt>
      <trkpt lat="45.81857917830348" lon="6.993045788258314">
        <ele>2306.3400000000001</ele>
        <time>2013-09-01T12:47:18Z</time>
      </trkpt>
      <trkpt lat="45.818572975695133" lon="6.993030952289701">
        <ele>2306.3400000000001</ele>
        <time>2013-09-01T12:47:19Z</time>
      </trkpt>
      <trkpt lat="45.818507764488459" lon="6.992847053334117">
        <ele>2305.8600000000001</ele>
        <time>2013-09-01T12:47:31Z</time>
      </trkpt>
      <trkpt lat="45.818477086722851" lon="6.992835737764835">
        <ele>2306.3400000000001</ele>
        <time>2013-09-01T12:47:34Z</time>
      </trkpt>
      <trkpt lat="45.818448923528194" lon="6.992781087756157">
        <ele>2303.9400000000001</ele>
        <time>2013-09-01T12:47:38Z</time>
      </trkpt>
      <trkpt lat="45.818444062024355" lon="6.992689641192555">
        <ele>2305.3800000000001</ele>
        <time>2013-09-01T12:47:44Z</time>
      </trkpt>
      <trkpt lat="45.818320512771606" lon="6.99242795817554">
        <ele>2303.46</ele>
        <time>2013-09-01T12:48:02Z</time>
      </trkpt>
      <trkpt lat="45.818298803642392" lon="6.992341121658683">
        <ele>2302.4899999999998</ele>
        <time>2013-09-01T12:48:07Z</time>
      </trkpt>
      <trkpt lat="45.818297546356916" lon="6.992085389792919">
        <ele>2299.1300000000001</ele>
        <time>2013-09-01T12:48:21Z</time>
      </trkpt>
      <trkpt lat="45.818191347643733" lon="6.991831501945853">
        <ele>2300.0900000000001</ele>
        <time>2013-09-01T12:48:37Z</time>
      </trkpt>
      <trkpt lat="45.818083975464106" lon="6.991577614098787">
        <ele>2300.5700000000002</ele>
        <time>2013-09-01T12:48:52Z</time>
      </trkpt>
      <trkpt lat="45.8179996535182" lon="6.991417771205306">
        <ele>2300.0900000000001</ele>
        <time>2013-09-01T12:49:02Z</time>
      </trkpt>
      <trkpt lat="45.817990181967616" lon="6.991386171430349">
        <ele>2299.6100000000001</ele>
        <time>2013-09-01T12:49:04Z</time>
      </trkpt>
      <trkpt lat="45.817967215552926" lon="6.991317942738533">
        <ele>2296.25</ele>
        <time>2013-09-01T12:49:08Z</time>
      </trkpt>
      <trkpt lat="45.817894460633397" lon="6.991179306060076">
        <ele>2292.8800000000001</ele>
        <time>2013-09-01T12:49:18Z</time>
      </trkpt>
      <trkpt lat="45.817798739299178" lon="6.991017200052738">
        <ele>2290.48</ele>
        <time>2013-09-01T12:49:29Z</time>
      </trkpt>
      <trkpt lat="45.817783568054438" lon="6.990981996059418">
        <ele>2289.52</ele>
        <time>2013-09-01T12:49:31Z</time>
      </trkpt>
      <trkpt lat="45.817677620798349" lon="6.990682175382972">
        <ele>2285.6700000000001</ele>
        <time>2013-09-01T12:49:48Z</time>
      </trkpt>
      <trkpt lat="45.817676531150937" lon="6.990659376606345">
        <ele>2286.1500000000001</ele>
        <time>2013-09-01T12:49:49Z</time>
      </trkpt>
      <trkpt lat="45.817690528929234" lon="6.990433065220714">
        <ele>2283.27</ele>
        <time>2013-09-01T12:50:01Z</time>
      </trkpt>
      <trkpt lat="45.817689020186663" lon="6.990391490980983">
        <ele>2283.27</ele>
        <time>2013-09-01T12:50:17Z</time>
      </trkpt>
      <trkpt lat="45.817683655768633" lon="6.990374475717545">
        <ele>2282.79</ele>
        <time>2013-09-01T12:50:33Z</time>
      </trkpt>
      <trkpt lat="45.817674351856112" lon="6.990287806838751">
        <ele>2281.8299999999999</ele>
        <time>2013-09-01T12:50:40Z</time>
      </trkpt>
      <trkpt lat="45.817662784829736" lon="6.990249250084162">
        <ele>2281.3499999999999</ele>
        <time>2013-09-01T12:50:43Z</time>
      </trkpt>
      <trkpt lat="45.817588772624731" lon="6.989974156022072">
        <ele>2279.9000000000001</ele>
        <time>2013-09-01T12:51:00Z</time>
      </trkpt>
      <trkpt lat="45.81756379455328" lon="6.989860245957971">
        <ele>2278.46</ele>
        <time>2013-09-01T12:51:07Z</time>
      </trkpt>
      <trkpt lat="45.817468911409378" lon="6.989544415846467">
        <ele>2276.54</ele>
        <time>2013-09-01T12:51:25Z</time>
      </trkpt>
      <trkpt lat="45.817382745444775" lon="6.989320032298565">
        <ele>2276.0599999999999</ele>
        <time>2013-09-01T12:51:40Z</time>
      </trkpt>
      <trkpt lat="45.817300854250789" lon="6.989062456414104">
        <ele>2274.6199999999999</ele>
        <time>2013-09-01T12:51:56Z</time>
      </trkpt>
      <trkpt lat="45.817283922806382" lon="6.988777304068208">
        <ele>2274.1399999999999</ele>
        <time>2013-09-01T12:52:13Z</time>
      </trkpt>
      <trkpt lat="45.817280989140272" lon="6.988637410104275">
        <ele>2273.1700000000001</ele>
        <time>2013-09-01T12:52:29Z</time>
      </trkpt>
      <trkpt lat="45.817284844815731" lon="6.988628776744008">
        <ele>2273.1700000000001</ele>
        <time>2013-09-01T12:52:59Z</time>
      </trkpt>
      <trkpt lat="45.817315187305212" lon="6.988651240244508">
        <ele>2273.1700000000001</ele>
        <time>2013-09-01T12:53:22Z</time>
      </trkpt>
      <trkpt lat="45.81730923615396" lon="6.988661549985409">
        <ele>2273.1700000000001</ele>
        <time>2013-09-01T12:53:45Z</time>
      </trkpt>
      <trkpt lat="45.817273864522576" lon="6.988637242466211">
        <ele>2273.6599999999999</ele>
        <time>2013-09-01T12:53:58Z</time>
      </trkpt>
      <trkpt lat="45.817266488447785" lon="6.988628525286913">
        <ele>2273.6599999999999</ele>
        <time>2013-09-01T12:54:28Z</time>
      </trkpt>
      <trkpt lat="45.817269422113895" lon="6.988636068999767">
        <ele>2274.1399999999999</ele>
        <time>2013-09-01T12:54:35Z</time>
      </trkpt>
      <trkpt lat="45.817273780703545" lon="6.988635817542672">
        <ele>2273.1700000000001</ele>
        <time>2013-09-01T12:54:45Z</time>
      </trkpt>
      <trkpt lat="45.817279228940606" lon="6.988634560257196">
        <ele>2272.21</ele>
        <time>2013-09-01T12:54:55Z</time>
      </trkpt>
      <trkpt lat="45.817278642207384" lon="6.988637996837497">
        <ele>2273.6599999999999</ele>
        <time>2013-09-01T12:55:03Z</time>
      </trkpt>
      <trkpt lat="45.817258693277836" lon="6.988623412325978">
        <ele>2273.6599999999999</ele>
        <time>2013-09-01T12:55:16Z</time>
      </trkpt>
      <trkpt lat="45.817255340516567" lon="6.988644199445844">
        <ele>2273.6599999999999</ele>
        <time>2013-09-01T12:55:33Z</time>
      </trkpt>
      <trkpt lat="45.817269841209054" lon="6.988643947988749">
        <ele>2274.6199999999999</ele>
        <time>2013-09-01T12:55:56Z</time>
      </trkpt>
      <trkpt lat="45.817245030775666" lon="6.98865576647222">
        <ele>2273.6599999999999</ele>
        <time>2013-09-01T12:56:09Z</time>
      </trkpt>
      <trkpt lat="45.817234134301543" lon="6.988671692088246">
        <ele>2272.6900000000001</ele>
        <time>2013-09-01T12:56:26Z</time>
      </trkpt>
      <trkpt lat="45.817249305546284" lon="6.988665489479899">
        <ele>2272.6900000000001</ele>
        <time>2013-09-01T12:57:01Z</time>
      </trkpt>
      <trkpt lat="45.81722223199904" lon="6.988657023757696">
        <ele>2271.25</ele>
        <time>2013-09-01T12:57:36Z</time>
      </trkpt>
      <trkpt lat="45.817218795418739" lon="6.988636236637831">
        <ele>2271.73</ele>
        <time>2013-09-01T12:58:14Z</time>
      </trkpt>
      <trkpt lat="45.817227009683847" lon="6.988556357100606">
        <ele>2272.21</ele>
        <time>2013-09-01T12:58:31Z</time>
      </trkpt>
      <trkpt lat="45.817215694114566" lon="6.988517800346017">
        <ele>2273.1700000000001</ele>
        <time>2013-09-01T12:58:49Z</time>
      </trkpt>
      <trkpt lat="45.817238911986351" lon="6.988531295210123">
        <ele>2270.77</ele>
        <time>2013-09-01T12:59:14Z</time>
      </trkpt>
      <trkpt lat="45.817233296111226" lon="6.988531881943345">
        <ele>2271.25</ele>
        <time>2013-09-01T12:59:28Z</time>
      </trkpt>
      <trkpt lat="45.817212089896202" lon="6.988514615222812">
        <ele>2270.77</ele>
        <time>2013-09-01T12:59:54Z</time>
      </trkpt>
      <trkpt lat="45.817217202857137" lon="6.988508580252528">
        <ele>2271.25</ele>
        <time>2013-09-01T13:00:20Z</time>
      </trkpt>
      <trkpt lat="45.817222148180008" lon="6.988512184470892">
        <ele>2272.6900000000001</ele>
        <time>2013-09-01T13:00:29Z</time>
      </trkpt>
      <trkpt lat="45.817227596417069" lon="6.988517129793763">
        <ele>2270.77</ele>
        <time>2013-09-01T13:00:36Z</time>
      </trkpt>
      <trkpt lat="45.817233715206385" lon="6.988505311310291">
        <ele>2271.73</ele>
        <time>2013-09-01T13:00:56Z</time>
      </trkpt>
      <trkpt lat="45.817241258919239" lon="6.988509586080909">
        <ele>2271.25</ele>
        <time>2013-09-01T13:01:12Z</time>
      </trkpt>
      <trkpt lat="45.81726523116231" lon="6.988446470350027">
        <ele>2271.25</ele>
        <time>2013-09-01T13:01:22Z</time>
      </trkpt>
      <trkpt lat="45.817268583923578" lon="6.988400621339679">
        <ele>2270.29</ele>
        <time>2013-09-01T13:01:38Z</time>
      </trkpt>
      <trkpt lat="45.817224746569991" lon="6.988288052380085">
        <ele>2268.8499999999999</ele>
        <time>2013-09-01T13:01:56Z</time>
      </trkpt>
      <trkpt lat="45.817216951400042" lon="6.988243544474244">
        <ele>2268.8499999999999</ele>
        <time>2013-09-01T13:02:11Z</time>
      </trkpt>
      <trkpt lat="45.817220723256469" lon="6.988245639950037">
        <ele>2268.8499999999999</ele>
        <time>2013-09-01T13:02:40Z</time>
      </trkpt>
      <trkpt lat="45.817222986370325" lon="6.98826190084219">
        <ele>2268.3699999999999</ele>
        <time>2013-09-01T13:03:00Z</time>
      </trkpt>
      <trkpt lat="45.817228015512228" lon="6.98824429884553">
        <ele>2267.8899999999999</ele>
        <time>2013-09-01T13:03:18Z</time>
      </trkpt>
      <trkpt lat="45.817239582538605" lon="6.988260224461556">
        <ele>2268.3699999999999</ele>
        <time>2013-09-01T13:03:45Z</time>
      </trkpt>
      <trkpt lat="45.817232122644782" lon="6.988259386271238">
        <ele>2268.3699999999999</ele>
        <time>2013-09-01T13:04:16Z</time>
      </trkpt>
      <trkpt lat="45.817173030227423" lon="6.988167772069573">
        <ele>2267.4099999999999</ele>
        <time>2013-09-01T13:04:31Z</time>
      </trkpt>
      <trkpt lat="45.817125085741282" lon="6.988107338547707">
        <ele>2265.96</ele>
        <time>2013-09-01T13:04:41Z</time>
      </trkpt>
      <trkpt lat="45.817071106284857" lon="6.988071715459228">
        <ele>2265.96</ele>
        <time>2013-09-01T13:04:49Z</time>
      </trkpt>
      <trkpt lat="45.816905731335282" lon="6.988022262230516">
        <ele>2266.4499999999998</ele>
        <time>2013-09-01T13:05:05Z</time>
      </trkpt>
      <trkpt lat="45.816779835149646" lon="6.987993931397796">
        <ele>2267.4099999999999</ele>
        <time>2013-09-01T13:05:17Z</time>
      </trkpt>
      <trkpt lat="45.816768687218428" lon="6.98799510486424">
        <ele>2267.4099999999999</ele>
        <time>2013-09-01T13:05:18Z</time>
      </trkpt>
      <trkpt lat="45.816662153229117" lon="6.98798093944788">
        <ele>2267.8899999999999</ele>
        <time>2013-09-01T13:05:27Z</time>
      </trkpt>
      <trkpt lat="45.816463083028793" lon="6.987822353839874">
        <ele>2266.4499999999998</ele>
        <time>2013-09-01T13:05:45Z</time>
      </trkpt>
      <trkpt lat="45.816304078325629" lon="6.987697966396809">
        <ele>2266.4499999999998</ele>
        <time>2013-09-01T13:05:59Z</time>
      </trkpt>
      <trkpt lat="45.816155467182398" lon="6.987439384683967">
        <ele>2265.96</ele>
        <time>2013-09-01T13:06:17Z</time>
      </trkpt>
      <trkpt lat="45.81601825542748" lon="6.987217348068953">
        <ele>2267.4099999999999</ele>
        <time>2013-09-01T13:06:35Z</time>
      </trkpt>
      <trkpt lat="45.81589026376605" lon="6.986988354474306">
        <ele>2266.9299999999998</ele>
        <time>2013-09-01T13:06:52Z</time>
      </trkpt>
      <trkpt lat="45.815779119729996" lon="6.986736143007875">
        <ele>2266.9299999999998</ele>
        <time>2013-09-01T13:07:09Z</time>
      </trkpt>
      <trkpt lat="45.815671160817146" lon="6.98645350523293">
        <ele>2265</ele>
        <time>2013-09-01T13:07:28Z</time>
      </trkpt>
      <trkpt lat="45.815528333187103" lon="6.986161731183529">
        <ele>2264.52</ele>
        <time>2013-09-01T13:07:47Z</time>
      </trkpt>
      <trkpt lat="45.815490111708641" lon="6.986092748120427">
        <ele>2264.04</ele>
        <time>2013-09-01T13:07:52Z</time>
      </trkpt>
      <trkpt lat="45.815448369830847" lon="6.986050503328443">
        <ele>2264.52</ele>
        <time>2013-09-01T13:07:56Z</time>
      </trkpt>
      <trkpt lat="45.815302692353725" lon="6.985823102295399">
        <ele>2262.5999999999999</ele>
        <time>2013-09-01T13:08:13Z</time>
      </trkpt>
      <trkpt lat="45.815119296312332" lon="6.985630821436644">
        <ele>2262.1199999999999</ele>
        <time>2013-09-01T13:08:31Z</time>
      </trkpt>
      <trkpt lat="45.814981497824192" lon="6.985391015186906">
        <ele>2262.1199999999999</ele>
        <time>2013-09-01T13:08:48Z</time>
      </trkpt>
      <trkpt lat="45.814845878630877" lon="6.985155567526817">
        <ele>2261.1599999999999</ele>
        <time>2013-09-01T13:09:04Z</time>
      </trkpt>
      <trkpt lat="45.814723167568445" lon="6.984897488728166">
        <ele>2260.6799999999998</ele>
        <time>2013-09-01T13:09:21Z</time>
      </trkpt>
      <trkpt lat="45.81461931578815" lon="6.984659610316157">
        <ele>2258.27</ele>
        <time>2013-09-01T13:09:36Z</time>
      </trkpt>
      <trkpt lat="45.81449425779283" lon="6.984454588964582">
        <ele>2256.3499999999999</ele>
        <time>2013-09-01T13:09:51Z</time>
      </trkpt>
      <trkpt lat="45.814426867291331" lon="6.984303211793304">
        <ele>2254.9099999999999</ele>
        <time>2013-09-01T13:10:00Z</time>
      </trkpt>
      <trkpt lat="45.814261408522725" lon="6.984099196270108">
        <ele>2251.54</ele>
        <time>2013-09-01T13:10:17Z</time>
      </trkpt>
      <trkpt lat="45.814145570620894" lon="6.983863078057766">
        <ele>2247.6999999999998</ele>
        <time>2013-09-01T13:10:34Z</time>
      </trkpt>
      <trkpt lat="45.814101314172149" lon="6.98378412052989">
        <ele>2246.7399999999998</ele>
        <time>2013-09-01T13:10:40Z</time>
      </trkpt>
      <trkpt lat="45.813985643908381" lon="6.983641209080815">
        <ele>2243.3699999999999</ele>
        <time>2013-09-01T13:10:53Z</time>
      </trkpt>
      <trkpt lat="45.81386242993176" lon="6.983509110286832">
        <ele>2240.4899999999998</ele>
        <time>2013-09-01T13:11:07Z</time>
      </trkpt>
      <trkpt lat="45.813766624778509" lon="6.983402576297522">
        <ele>2238.0900000000001</ele>
        <time>2013-09-01T13:11:20Z</time>
      </trkpt>
      <trkpt lat="45.813734186813235" lon="6.983359912410379">
        <ele>2236.6399999999999</ele>
        <time>2013-09-01T13:11:24Z</time>
      </trkpt>
      <trkpt lat="45.813584569841623" lon="6.983272070065141">
        <ele>2233.2800000000002</ele>
        <time>2013-09-01T13:11:38Z</time>
      </trkpt>
      <trkpt lat="45.813562693074346" lon="6.983250277116895">
        <ele>2232.3200000000002</ele>
        <time>2013-09-01T13:11:40Z</time>
      </trkpt>
      <trkpt lat="45.813439562916756" lon="6.983157321810722">
        <ele>2229.4299999999998</ele>
        <time>2013-09-01T13:11:54Z</time>
      </trkpt>
      <trkpt lat="45.813375022262335" lon="6.983081549406052">
        <ele>2227.5100000000002</ele>
        <time>2013-09-01T13:12:02Z</time>
      </trkpt>
      <trkpt lat="45.813267482444644" lon="6.98299840092659">
        <ele>2223.6700000000001</ele>
        <time>2013-09-01T13:12:14Z</time>
      </trkpt>
      <trkpt lat="45.813218615949154" lon="6.982940481975675">
        <ele>2221.2600000000002</ele>
        <time>2013-09-01T13:12:21Z</time>
      </trkpt>
      <trkpt lat="45.813150471076369" lon="6.982861943542957">
        <ele>2217.9000000000001</ele>
        <time>2013-09-01T13:12:31Z</time>
      </trkpt>
      <trkpt lat="45.813135132193565" lon="6.982829924672842">
        <ele>2217.4200000000001</ele>
        <time>2013-09-01T13:12:34Z</time>
      </trkpt>
      <trkpt lat="45.813064640387893" lon="6.982743758708239">
        <ele>2214.0500000000002</ele>
        <time>2013-09-01T13:12:44Z</time>
      </trkpt>
      <trkpt lat="45.81299657933414" lon="6.982646528631449">
        <ele>2210.6900000000001</ele>
        <time>2013-09-01T13:12:54Z</time>
      </trkpt>
      <trkpt lat="45.812942180782557" lon="6.982517698779702">
        <ele>2208.29</ele>
        <time>2013-09-01T13:13:04Z</time>
      </trkpt>
      <trkpt lat="45.812914771959186" lon="6.982422061264515">
        <ele>2205.8800000000001</ele>
        <time>2013-09-01T13:13:11Z</time>
      </trkpt>
      <trkpt lat="45.812848135828972" lon="6.982320556417108">
        <ele>2202.52</ele>
        <time>2013-09-01T13:13:20Z</time>
      </trkpt>
      <trkpt lat="45.812788037583232" lon="6.982291974127293">
        <ele>2201.5599999999999</ele>
        <time>2013-09-01T13:13:26Z</time>
      </trkpt>
      <trkpt lat="45.812712851911783" lon="6.982154343277216">
        <ele>2198.6700000000001</ele>
        <time>2013-09-01T13:13:40Z</time>
      </trkpt>
      <trkpt lat="45.812702206894755" lon="6.982124336063862">
        <ele>2197.71</ele>
        <time>2013-09-01T13:13:43Z</time>
      </trkpt>
      <trkpt lat="45.812692232429981" lon="6.982105225324631">
        <ele>2196.75</ele>
        <time>2013-09-01T13:13:45Z</time>
      </trkpt>
      <trkpt lat="45.812655687332153" lon="6.982005732133985">
        <ele>2193.3899999999999</ele>
        <time>2013-09-01T13:13:55Z</time>
      </trkpt>
      <trkpt lat="45.812640348449349" lon="6.981967426836491">
        <ele>2191.9400000000001</ele>
        <time>2013-09-01T13:13:58Z</time>
      </trkpt>
      <trkpt lat="45.812596678733826" lon="6.981912106275559">
        <ele>2190.02</ele>
        <time>2013-09-01T13:14:10Z</time>
      </trkpt>
      <trkpt lat="45.812594834715128" lon="6.981898527592421">
        <ele>2190.02</ele>
        <time>2013-09-01T13:14:34Z</time>
      </trkpt>
      <trkpt lat="45.812591481953859" lon="6.981906909495592">
        <ele>2190.02</ele>
        <time>2013-09-01T13:14:55Z</time>
      </trkpt>
      <trkpt lat="45.812578573822975" lon="6.981898108497262">
        <ele>2189.0599999999999</ele>
        <time>2013-09-01T13:15:14Z</time>
      </trkpt>
      <trkpt lat="45.812547225505114" lon="6.981850499287248">
        <ele>2187.6199999999999</ele>
        <time>2013-09-01T13:15:32Z</time>
      </trkpt>
      <trkpt lat="45.812547812238336" lon="6.981800543144345">
        <ele>2186.1799999999998</ele>
        <time>2013-09-01T13:15:45Z</time>
      </trkpt>
      <trkpt lat="45.812541609629989" lon="6.981804734095931">
        <ele>2187.1399999999999</ele>
        <time>2013-09-01T13:16:14Z</time>
      </trkpt>
      <trkpt lat="45.812516044825315" lon="6.981776487082243">
        <ele>2185.6900000000001</ele>
        <time>2013-09-01T13:16:19Z</time>
      </trkpt>
      <trkpt lat="45.812482181936502" lon="6.981793083250523">
        <ele>2184.73</ele>
        <time>2013-09-01T13:16:23Z</time>
      </trkpt>
      <trkpt lat="45.812448235228658" lon="6.981745809316635">
        <ele>2183.29</ele>
        <time>2013-09-01T13:16:28Z</time>
      </trkpt>
      <trkpt lat="45.812413115054369" lon="6.981706162914634">
        <ele>2180.8899999999999</ele>
        <time>2013-09-01T13:16:35Z</time>
      </trkpt>
      <trkpt lat="45.812328793108463" lon="6.981608597561717">
        <ele>2177.52</ele>
        <time>2013-09-01T13:16:44Z</time>
      </trkpt>
      <trkpt lat="45.812307503074408" lon="6.981551432982087">
        <ele>2177.04</ele>
        <time>2013-09-01T13:16:47Z</time>
      </trkpt>
      <trkpt lat="45.812294762581587" lon="6.9814782589674">
        <ele>2174.6399999999999</ele>
        <time>2013-09-01T13:16:51Z</time>
      </trkpt>
      <trkpt lat="45.812276238575578" lon="6.981434002518654">
        <ele>2173.1999999999998</ele>
        <time>2013-09-01T13:16:54Z</time>
      </trkpt>
      <trkpt lat="45.812267689034343" lon="6.981405587866902">
        <ele>2172.2399999999998</ele>
        <time>2013-09-01T13:16:56Z</time>
      </trkpt>
      <trkpt lat="45.812245393171906" lon="6.98136392980814">
        <ele>2170.79</ele>
        <time>2013-09-01T13:16:59Z</time>
      </trkpt>
      <trkpt lat="45.812201052904129" lon="6.981286397203803">
        <ele>2167.4299999999998</ele>
        <time>2013-09-01T13:17:05Z</time>
      </trkpt>
      <trkpt lat="45.812190491706133" lon="6.981266364455223">
        <ele>2166.9499999999998</ele>
        <time>2013-09-01T13:17:07Z</time>
      </trkpt>
      <trkpt lat="45.81216249614954" lon="6.981228394433856">
        <ele>2165.0300000000002</ele>
        <time>2013-09-01T13:17:13Z</time>
      </trkpt>
      <trkpt lat="45.812124274671078" lon="6.981176510453224">
        <ele>2162.6199999999999</ele>
        <time>2013-09-01T13:17:18Z</time>
      </trkpt>
      <trkpt lat="45.812093429267406" lon="6.981154885143042">
        <ele>2161.6599999999999</ele>
        <time>2013-09-01T13:17:21Z</time>
      </trkpt>
      <trkpt lat="45.812027547508478" lon="6.981114652007818">
        <ele>2159.2600000000002</ele>
        <time>2013-09-01T13:17:28Z</time>
      </trkpt>
      <trkpt lat="45.812036516144872" lon="6.981075340881944">
        <ele>2158.3000000000002</ele>
        <time>2013-09-01T13:17:31Z</time>
      </trkpt>
      <trkpt lat="45.812068283557892" lon="6.9809515401721">
        <ele>2156.3699999999999</ele>
        <time>2013-09-01T13:17:40Z</time>
      </trkpt>
      <trkpt lat="45.811984967440367" lon="6.980961263179779">
        <ele>2153.4899999999998</ele>
        <time>2013-09-01T13:17:47Z</time>
      </trkpt>
      <trkpt lat="45.811911877244711" lon="6.980941062793136">
        <ele>2150.6100000000001</ele>
        <time>2013-09-01T13:17:53Z</time>
      </trkpt>
      <trkpt lat="45.811842391267419" lon="6.980914575979114">
        <ele>2146.2800000000002</ele>
        <time>2013-09-01T13:17:59Z</time>
      </trkpt>
      <trkpt lat="45.811818921938539" lon="6.980947935953736">
        <ele>2144.3600000000001</ele>
        <time>2013-09-01T13:18:06Z</time>
      </trkpt>
      <trkpt lat="45.811805678531528" lon="6.980988085269928">
        <ele>2143.4000000000001</ele>
        <time>2013-09-01T13:18:09Z</time>
      </trkpt>
      <trkpt lat="45.811737701296806" lon="6.981075508520007">
        <ele>2140.0300000000002</ele>
        <time>2013-09-01T13:18:21Z</time>
      </trkpt>
      <trkpt lat="45.811723452061415" lon="6.981081878766418">
        <ele>2139.5500000000002</ele>
        <time>2013-09-01T13:18:23Z</time>
      </trkpt>
      <trkpt lat="45.811612894758582" lon="6.981131499633193">
        <ele>2136.1900000000001</ele>
        <time>2013-09-01T13:18:39Z</time>
      </trkpt>
      <trkpt lat="45.811593364924192" lon="6.98110249824822">
        <ele>2135.23</ele>
        <time>2013-09-01T13:18:43Z</time>
      </trkpt>
      <trkpt lat="45.811575260013342" lon="6.98108640499413">
        <ele>2134.7399999999998</ele>
        <time>2013-09-01T13:18:46Z</time>
      </trkpt>
      <trkpt lat="45.81155707128346" lon="6.981015242636204">
        <ele>2133.7800000000002</ele>
        <time>2013-09-01T13:18:52Z</time>
      </trkpt>
      <trkpt lat="45.811506696045399" lon="6.981003424152732">
        <ele>2130.4200000000001</ele>
        <time>2013-09-01T13:19:00Z</time>
      </trkpt>
      <trkpt lat="45.81146914511919" lon="6.981026558205485">
        <ele>2128.98</ele>
        <time>2013-09-01T13:19:07Z</time>
      </trkpt>
      <trkpt lat="45.81144223921001" lon="6.981103839352727">
        <ele>2126.0900000000001</ele>
        <time>2013-09-01T13:19:16Z</time>
      </trkpt>
      <trkpt lat="45.811435785144567" lon="6.981156729161739">
        <ele>2124.6500000000001</ele>
        <time>2013-09-01T13:19:20Z</time>
      </trkpt>
      <trkpt lat="45.811409717425704" lon="6.981327049434185">
        <ele>2121.29</ele>
        <time>2013-09-01T13:19:33Z</time>
      </trkpt>
      <trkpt lat="45.811401586979628" lon="6.981454957276583">
        <ele>2117.9200000000001</ele>
        <time>2013-09-01T13:19:44Z</time>
      </trkpt>
      <trkpt lat="45.8113943785429" lon="6.981488820165396">
        <ele>2117.4400000000001</ele>
        <time>2013-09-01T13:19:47Z</time>
      </trkpt>
      <trkpt lat="45.811398904770613" lon="6.98151882737875">
        <ele>2116.96</ele>
        <time>2013-09-01T13:19:49Z</time>
      </trkpt>
      <trkpt lat="45.811395803466439" lon="6.981578338891268">
        <ele>2114.5599999999999</ele>
        <time>2013-09-01T13:19:58Z</time>
      </trkpt>
      <trkpt lat="45.811306368559599" lon="6.981452610343695">
        <ele>2111.1900000000001</ele>
        <time>2013-09-01T13:20:08Z</time>
      </trkpt>
      <trkpt lat="45.811247192323208" lon="6.981346914544702">
        <ele>2108.3099999999999</ele>
        <time>2013-09-01T13:20:17Z</time>
      </trkpt>
      <trkpt lat="45.811153315007687" lon="6.981203500181437">
        <ele>2104.9400000000001</ele>
        <time>2013-09-01T13:20:30Z</time>
      </trkpt>
      <trkpt lat="45.811091540381312" lon="6.981116579845548">
        <ele>2101.5799999999999</ele>
        <time>2013-09-01T13:20:38Z</time>
      </trkpt>
      <trkpt lat="45.811083158478141" lon="6.981106270104647">
        <ele>2101.0999999999999</ele>
        <time>2013-09-01T13:20:39Z</time>
      </trkpt>
      <trkpt lat="45.81103571690619" lon="6.980999652296305">
        <ele>2097.25</ele>
        <time>2013-09-01T13:20:50Z</time>
      </trkpt>
      <trkpt lat="45.811012331396341" lon="6.98095791041851">
        <ele>2094.8499999999999</ele>
        <time>2013-09-01T13:20:55Z</time>
      </trkpt>
      <trkpt lat="45.811002692207694" lon="6.980967465788126">
        <ele>2093.8899999999999</ele>
        <time>2013-09-01T13:20:57Z</time>
      </trkpt>
      <trkpt lat="45.810985593125224" lon="6.980958832427859">
        <ele>2092.9299999999998</ele>
        <time>2013-09-01T13:20:59Z</time>
      </trkpt>
      <trkpt lat="45.810957849025726" lon="6.980840815231204">
        <ele>2089.0799999999999</ele>
        <time>2013-09-01T13:21:10Z</time>
      </trkpt>
      <trkpt lat="45.810927003622055" lon="6.980771329253912">
        <ele>2085.7199999999998</ele>
        <time>2013-09-01T13:21:16Z</time>
      </trkpt>
      <trkpt lat="45.81090034916997" lon="6.980722127482295">
        <ele>2083.79</ele>
        <time>2013-09-01T13:21:20Z</time>
      </trkpt>
      <trkpt lat="45.81087252125144" lon="6.980647277086973">
        <ele>2080.9099999999999</ele>
        <time>2013-09-01T13:21:26Z</time>
      </trkpt>
      <trkpt lat="45.81087252125144" lon="6.980616934597492">
        <ele>2079.9499999999998</ele>
        <time>2013-09-01T13:21:28Z</time>
      </trkpt>
      <trkpt lat="45.810858439654112" lon="6.980554657056928">
        <ele>2078.5100000000002</ele>
        <time>2013-09-01T13:21:32Z</time>
      </trkpt>
      <trkpt lat="45.810837401077151" lon="6.980451894924045">
        <ele>2075.6199999999999</ele>
        <time>2013-09-01T13:21:36Z</time>
      </trkpt>
      <trkpt lat="45.810809321701527" lon="6.980358436703682">
        <ele>2072.2600000000002</ele>
        <time>2013-09-01T13:21:40Z</time>
      </trkpt>
      <trkpt lat="45.810777805745602" lon="6.980301439762116">
        <ele>2068.4099999999999</ele>
        <time>2013-09-01T13:21:43Z</time>
      </trkpt>
      <trkpt lat="45.81069809384644" lon="6.980201778933406">
        <ele>2065.0500000000002</ele>
        <time>2013-09-01T13:21:49Z</time>
      </trkpt>
      <trkpt lat="45.810666577890515" lon="6.980117373168469">
        <ele>2061.1999999999998</ele>
        <time>2013-09-01T13:21:54Z</time>
      </trkpt>
      <trkpt lat="45.81063942052424" lon="6.980054173618555">
        <ele>2058.8000000000002</ele>
        <time>2013-09-01T13:21:58Z</time>
      </trkpt>
      <trkpt lat="45.810609748587012" lon="6.980020813643932">
        <ele>2057.3600000000001</ele>
        <time>2013-09-01T13:22:00Z</time>
      </trkpt>
      <trkpt lat="45.810564737766981" lon="6.979930037632585">
        <ele>2054.4699999999998</ele>
        <time>2013-09-01T13:22:09Z</time>
      </trkpt>
      <trkpt lat="45.810556691139936" lon="6.979867676272988">
        <ele>2054.4699999999998</ele>
        <time>2013-09-01T13:22:14Z</time>
      </trkpt>
      <trkpt lat="45.810550404712558" lon="6.979849822819233">
        <ele>2053.9899999999998</ele>
        <time>2013-09-01T13:22:15Z</time>
      </trkpt>
      <trkpt lat="45.810466250404716" lon="6.979659302160144">
        <ele>2050.6300000000001</ele>
        <time>2013-09-01T13:22:26Z</time>
      </trkpt>
      <trkpt lat="45.810389388352633" lon="6.979591492563486">
        <ele>2051.1100000000001</ele>
        <time>2013-09-01T13:22:35Z</time>
      </trkpt>
      <trkpt lat="45.810391400009394" lon="6.979621080681682">
        <ele>2050.1500000000001</ele>
        <time>2013-09-01T13:22:45Z</time>
      </trkpt>
      <trkpt lat="45.810388717800379" lon="6.979601215571165">
        <ele>2050.6300000000001</ele>
        <time>2013-09-01T13:23:06Z</time>
      </trkpt>
      <trkpt lat="45.81037019379437" lon="6.979591241106391">
        <ele>2050.6300000000001</ele>
        <time>2013-09-01T13:23:32Z</time>
      </trkpt>
      <trkpt lat="45.810370864346623" lon="6.979593755677342">
        <ele>2050.1500000000001</ele>
        <time>2013-09-01T13:23:57Z</time>
      </trkpt>
      <trkpt lat="45.810379916802049" lon="6.979608340188861">
        <ele>2049.1900000000001</ele>
        <time>2013-09-01T13:24:18Z</time>
      </trkpt>
      <trkpt lat="45.81039316020906" lon="6.979621583595872">
        <ele>2049.6700000000001</ele>
        <time>2013-09-01T13:24:42Z</time>
      </trkpt>
      <trkpt lat="45.810410594567657" lon="6.97966642677784">
        <ele>2049.6700000000001</ele>
        <time>2013-09-01T13:24:47Z</time>
      </trkpt>
      <trkpt lat="45.810419395565987" lon="6.979720909148455">
        <ele>2048.71</ele>
        <time>2013-09-01T13:24:50Z</time>
      </trkpt>
      <trkpt lat="45.810412438586354" lon="6.979736248031259">
        <ele>2048.71</ele>
        <time>2013-09-01T13:24:51Z</time>
      </trkpt>
      <trkpt lat="45.810405984520912" lon="6.979751083999872">
        <ele>2048.23</ele>
        <time>2013-09-01T13:24:52Z</time>
      </trkpt>
      <trkpt lat="45.810338091105223" lon="6.979879075661302">
        <ele>2046.78</ele>
        <time>2013-09-01T13:25:03Z</time>
      </trkpt>
      <trkpt lat="45.810327865183353" lon="6.97988536208868">
        <ele>2046.78</ele>
        <time>2013-09-01T13:25:04Z</time>
      </trkpt>
      <trkpt lat="45.8103012945503" lon="6.979923164471984">
        <ele>2044.8599999999999</ele>
        <time>2013-09-01T13:25:07Z</time>
      </trkpt>
      <trkpt lat="45.81028419546783" lon="6.979981334879994">
        <ele>2043.4200000000001</ele>
        <time>2013-09-01T13:25:11Z</time>
      </trkpt>
      <trkpt lat="45.810277238488197" lon="6.979995919391513">
        <ele>2042.9400000000001</ele>
        <time>2013-09-01T13:25:12Z</time>
      </trkpt>
      <trkpt lat="45.810266342014074" lon="6.980002457275987">
        <ele>2042.9400000000001</ele>
        <time>2013-09-01T13:25:13Z</time>
      </trkpt>
      <trkpt lat="45.810254439711571" lon="6.98000606149435">
        <ele>2042.46</ele>
        <time>2013-09-01T13:25:14Z</time>
      </trkpt>
      <trkpt lat="45.810243878513575" lon="6.980014275759459">
        <ele>2041.98</ele>
        <time>2013-09-01T13:25:15Z</time>
      </trkpt>
      <trkpt lat="45.810236670076847" lon="6.980027183890343">
        <ele>2041.02</ele>
        <time>2013-09-01T13:25:16Z</time>
      </trkpt>
      <trkpt lat="45.810209847986698" lon="6.980057191103697">
        <ele>2040.54</ele>
        <time>2013-09-01T13:25:20Z</time>
      </trkpt>
      <trkpt lat="45.810201298445463" lon="6.980050401762128">
        <ele>2040.05</ele>
        <time>2013-09-01T13:25:21Z</time>
      </trkpt>
      <trkpt lat="45.810105828568339" lon="6.979981167241931">
        <ele>2036.6900000000001</ele>
        <time>2013-09-01T13:25:34Z</time>
      </trkpt>
      <trkpt lat="45.810085879638791" lon="6.979980748146772">
        <ele>2035.73</ele>
        <time>2013-09-01T13:25:37Z</time>
      </trkpt>
      <trkpt lat="45.810074983164668" lon="6.979984855279326">
        <ele>2034.77</ele>
        <time>2013-09-01T13:25:38Z</time>
      </trkpt>
      <trkpt lat="45.809980686753988" lon="6.979938670992851">
        <ele>2031.8800000000001</ele>
        <time>2013-09-01T13:25:50Z</time>
      </trkpt>
      <trkpt lat="45.809975238516927" lon="6.979923583567143">
        <ele>2032.3599999999999</ele>
        <time>2013-09-01T13:25:51Z</time>
      </trkpt>
      <trkpt lat="45.809941459447145" lon="6.979833897203207">
        <ele>2030.4400000000001</ele>
        <time>2013-09-01T13:25:57Z</time>
      </trkpt>
      <trkpt lat="45.809873566031456" lon="6.979710683226585">
        <ele>2027.5599999999999</ele>
        <time>2013-09-01T13:26:07Z</time>
      </trkpt>
      <trkpt lat="45.809829980134964" lon="6.979690901935101">
        <ele>2024.6700000000001</ele>
        <time>2013-09-01T13:26:12Z</time>
      </trkpt>
      <trkpt lat="45.809820760041475" lon="6.979680089280009">
        <ele>2024.6700000000001</ele>
        <time>2013-09-01T13:26:13Z</time>
      </trkpt>
      <trkpt lat="45.809811288490891" lon="6.979670450091362">
        <ele>2024.6700000000001</ele>
        <time>2013-09-01T13:26:14Z</time>
      </trkpt>
      <trkpt lat="45.809782706201077" lon="6.979648992419243">
        <ele>2023.71</ele>
        <time>2013-09-01T13:26:17Z</time>
      </trkpt>
      <trkpt lat="45.809770468622446" lon="6.979631390422583">
        <ele>2023.23</ele>
        <time>2013-09-01T13:26:19Z</time>
      </trkpt>
      <trkpt lat="45.809761080890894" lon="6.979607837274671">
        <ele>2022.75</ele>
        <time>2013-09-01T13:26:21Z</time>
      </trkpt>
      <trkpt lat="45.809746412560344" lon="6.979584284126759">
        <ele>2022.27</ele>
        <time>2013-09-01T13:26:23Z</time>
      </trkpt>
      <trkpt lat="45.809734426438808" lon="6.979564167559147">
        <ele>2021.79</ele>
        <time>2013-09-01T13:26:25Z</time>
      </trkpt>
      <trkpt lat="45.8096968755126" lon="6.979464674368501">
        <ele>2018.9100000000001</ele>
        <time>2013-09-01T13:26:34Z</time>
      </trkpt>
      <trkpt lat="45.809674160555005" lon="6.979364259168506">
        <ele>2016.98</ele>
        <time>2013-09-01T13:26:43Z</time>
      </trkpt>
      <trkpt lat="45.809655301272869" lon="6.979281110689044">
        <ele>2016.02</ele>
        <time>2013-09-01T13:26:48Z</time>
      </trkpt>
      <trkpt lat="45.809645410627127" lon="6.979225622490048">
        <ele>2015.0599999999999</ele>
        <time>2013-09-01T13:26:51Z</time>
      </trkpt>
      <trkpt lat="45.809639459475875" lon="6.979211959987879">
        <ele>2014.5799999999999</ele>
        <time>2013-09-01T13:26:52Z</time>
      </trkpt>
      <trkpt lat="45.809560753405094" lon="6.978944493457675">
        <ele>2010.73</ele>
        <time>2013-09-01T13:27:07Z</time>
      </trkpt>
      <trkpt lat="45.809461679309607" lon="6.978736370801926">
        <ele>2009.29</ele>
        <time>2013-09-01T13:27:20Z</time>
      </trkpt>
      <trkpt lat="45.809435360133648" lon="6.978503940626979">
        <ele>2010.25</ele>
        <time>2013-09-01T13:27:37Z</time>
      </trkpt>
      <trkpt lat="45.809466959908605" lon="6.97839941829443">
        <ele>2011.7</ele>
        <time>2013-09-01T13:27:51Z</time>
      </trkpt>
      <trkpt lat="45.80948431044817" lon="6.978376535698772">
        <ele>2010.73</ele>
        <time>2013-09-01T13:27:57Z</time>
      </trkpt>
      <trkpt lat="45.809477185830474" lon="6.978371338918805">
        <ele>2011.7</ele>
        <time>2013-09-01T13:28:18Z</time>
      </trkpt>
      <trkpt lat="45.809472994878888" lon="6.97832029312849">
        <ele>2011.22</ele>
        <time>2013-09-01T13:28:27Z</time>
      </trkpt>
      <trkpt lat="45.809462685137987" lon="6.978361532092094">
        <ele>2012.1800000000001</ele>
        <time>2013-09-01T13:28:43Z</time>
      </trkpt>
      <trkpt lat="45.809361264109612" lon="6.978308307006955">
        <ele>2009.77</ele>
        <time>2013-09-01T13:28:55Z</time>
      </trkpt>
      <trkpt lat="45.809230590239167" lon="6.978242760524154">
        <ele>2007.8499999999999</ele>
        <time>2013-09-01T13:29:10Z</time>
      </trkpt>
      <trkpt lat="45.809279456734657" lon="6.978414505720139">
        <ele>2004.49</ele>
        <time>2013-09-01T13:29:21Z</time>
      </trkpt>
      <trkpt lat="45.809257160872221" lon="6.978608211502433">
        <ele>2000.6400000000001</ele>
        <time>2013-09-01T13:29:33Z</time>
      </trkpt>
      <trkpt lat="45.809170994907618" lon="6.978577198460698">
        <ele>1998.72</ele>
        <time>2013-09-01T13:29:41Z</time>
      </trkpt>
      <trkpt lat="45.809123385697603" lon="6.978579629212618">
        <ele>1997.28</ele>
        <time>2013-09-01T13:29:46Z</time>
      </trkpt>
      <trkpt lat="45.809091031551361" lon="6.978568732738495">
        <ele>1995.8299999999999</ele>
        <time>2013-09-01T13:29:49Z</time>
      </trkpt>
      <trkpt lat="45.809060772880912" lon="6.978478292003274">
        <ele>1993.9100000000001</ele>
        <time>2013-09-01T13:29:56Z</time>
      </trkpt>
      <trkpt lat="45.809034369885921" lon="6.978460438549519">
        <ele>1992.47</ele>
        <time>2013-09-01T13:29:59Z</time>
      </trkpt>
      <trkpt lat="45.809022216126323" lon="6.978483824059367">
        <ele>1991.99</ele>
        <time>2013-09-01T13:30:01Z</time>
      </trkpt>
      <trkpt lat="45.808993550017476" lon="6.978601925075054">
        <ele>1989.0999999999999</ele>
        <time>2013-09-01T13:30:08Z</time>
      </trkpt>
      <trkpt lat="45.808955999091268" lon="6.978646768257022">
        <ele>1988.1400000000001</ele>
        <time>2013-09-01T13:30:22Z</time>
      </trkpt>
      <trkpt lat="45.808946611359715" lon="6.978617766872048">
        <ele>1987.1800000000001</ele>
        <time>2013-09-01T13:30:26Z</time>
      </trkpt>
      <trkpt lat="45.80889162607491" lon="6.978475525975227">
        <ele>1983.8199999999999</ele>
        <time>2013-09-01T13:30:42Z</time>
      </trkpt>
      <trkpt lat="45.808890955522656" lon="6.97846588678658">
        <ele>1984.3</ele>
        <time>2013-09-01T13:30:59Z</time>
      </trkpt>
      <trkpt lat="45.808865306898952" lon="6.978397322818637">
        <ele>1984.78</ele>
        <time>2013-09-01T13:31:15Z</time>
      </trkpt>
      <trkpt lat="45.808863127604127" lon="6.978363879024983">
        <ele>1985.26</ele>
        <time>2013-09-01T13:31:27Z</time>
      </trkpt>
      <trkpt lat="45.808875029906631" lon="6.978348959237337">
        <ele>1985.26</ele>
        <time>2013-09-01T13:31:43Z</time>
      </trkpt>
      <trkpt lat="45.808845860883594" lon="6.978314509615302">
        <ele>1985.26</ele>
        <time>2013-09-01T13:32:04Z</time>
      </trkpt>
      <trkpt lat="45.808843346312642" lon="6.978337895125151">
        <ele>1984.78</ele>
        <time>2013-09-01T13:32:19Z</time>
      </trkpt>
      <trkpt lat="45.808856002986431" lon="6.978340074419975">
        <ele>1984.78</ele>
        <time>2013-09-01T13:32:21Z</time>
      </trkpt>
      <trkpt lat="45.808875616639853" lon="6.978336973115802">
        <ele>1984.78</ele>
        <time>2013-09-01T13:32:39Z</time>
      </trkpt>
      <trkpt lat="45.808884166181087" lon="6.978353653103113">
        <ele>1984.78</ele>
        <time>2013-09-01T13:33:20Z</time>
      </trkpt>
      <trkpt lat="45.808863965794444" lon="6.978380726650357">
        <ele>1985.26</ele>
        <time>2013-09-01T13:33:30Z</time>
      </trkpt>
      <trkpt lat="45.808841586112976" lon="6.978355748578906">
        <ele>1985.26</ele>
        <time>2013-09-01T13:33:46Z</time>
      </trkpt>
      <trkpt lat="45.808850806206465" lon="6.978341666981578">
        <ele>1985.26</ele>
        <time>2013-09-01T13:34:00Z</time>
      </trkpt>
      <trkpt lat="45.808847453445196" lon="6.978350300341845">
        <ele>1985.26</ele>
        <time>2013-09-01T13:34:16Z</time>
      </trkpt>
      <trkpt lat="45.80883982591331" lon="6.978335799649358">
        <ele>1984.78</ele>
        <time>2013-09-01T13:34:32Z</time>
      </trkpt>
      <trkpt lat="45.808845441788435" lon="6.978338649496436">
        <ele>1984.78</ele>
        <time>2013-09-01T13:34:48Z</time>
      </trkpt>
      <trkpt lat="45.808829516172409" lon="6.978332865983248">
        <ele>1984.78</ele>
        <time>2013-09-01T13:35:10Z</time>
      </trkpt>
      <trkpt lat="45.808864468708634" lon="6.97834812104702">
        <ele>1984.3</ele>
        <time>2013-09-01T13:35:26Z</time>
      </trkpt>
      <trkpt lat="45.80888768658042" lon="6.978358263149858">
        <ele>1984.3</ele>
        <time>2013-09-01T13:35:44Z</time>
      </trkpt>
      <trkpt lat="45.808849381282926" lon="6.978371758013964">
        <ele>1984.78</ele>
        <time>2013-09-01T13:36:01Z</time>
      </trkpt>
      <trkpt lat="45.808863798156381" lon="6.978387767449021">
        <ele>1984.3</ele>
        <time>2013-09-01T13:36:21Z</time>
      </trkpt>
      <trkpt lat="45.80887109041214" lon="6.978395311161876">
        <ele>1983.8199999999999</ele>
        <time>2013-09-01T13:36:43Z</time>
      </trkpt>
      <trkpt lat="45.808865306898952" lon="6.978413751348853">
        <ele>1983.8199999999999</ele>
        <time>2013-09-01T13:37:01Z</time>
      </trkpt>
      <trkpt lat="45.808894811198115" lon="6.978472676128149">
        <ele>1982.3800000000001</ele>
        <time>2013-09-01T13:37:15Z</time>
      </trkpt>
      <trkpt lat="45.808844268321991" lon="6.978460103273392">
        <ele>1981.4100000000001</ele>
        <time>2013-09-01T13:37:26Z</time>
      </trkpt>
      <trkpt lat="45.808835802599788" lon="6.978457840159535">
        <ele>1980.9300000000001</ele>
        <time>2013-09-01T13:37:27Z</time>
      </trkpt>
      <trkpt lat="45.808756928890944" lon="6.978442668914795">
        <ele>1979.49</ele>
        <time>2013-09-01T13:37:36Z</time>
      </trkpt>
      <trkpt lat="45.808693980798125" lon="6.978399669751525">
        <ele>1978.05</ele>
        <time>2013-09-01T13:37:43Z</time>
      </trkpt>
      <trkpt lat="45.808673528954387" lon="6.978374607861042">
        <ele>1977.0899999999999</ele>
        <time>2013-09-01T13:37:58Z</time>
      </trkpt>
      <trkpt lat="45.808637905865908" lon="6.978393634781241">
        <ele>1976.1300000000001</ele>
        <time>2013-09-01T13:38:06Z</time>
      </trkpt>
      <trkpt lat="45.808509662747383" lon="6.97832222096622">
        <ele>1973.72</ele>
        <time>2013-09-01T13:38:19Z</time>
      </trkpt>
      <trkpt lat="45.808490216732025" lon="6.978265643119812">
        <ele>1973.24</ele>
        <time>2013-09-01T13:38:27Z</time>
      </trkpt>
      <trkpt lat="45.808439757674932" lon="6.978112002834678">
        <ele>1969.8800000000001</ele>
        <time>2013-09-01T13:38:39Z</time>
      </trkpt>
      <trkpt lat="45.808427268639207" lon="6.978031871840358">
        <ele>1968.4400000000001</ele>
        <time>2013-09-01T13:38:44Z</time>
      </trkpt>
      <trkpt lat="45.808403883129358" lon="6.977906310930848">
        <ele>1966.03</ele>
        <time>2013-09-01T13:38:58Z</time>
      </trkpt>
      <trkpt lat="45.808410840108991" lon="6.97789273224771">
        <ele>1966.03</ele>
        <time>2013-09-01T13:39:22Z</time>
      </trkpt>
      <trkpt lat="45.808382676914334" lon="6.977824838832021">
        <ele>1964.5899999999999</ele>
        <time>2013-09-01T13:39:33Z</time>
      </trkpt>
      <trkpt lat="45.808373289182782" lon="6.977804386988282">
        <ele>1964.5899999999999</ele>
        <time>2013-09-01T13:39:34Z</time>
      </trkpt>
      <trkpt lat="45.808355351909995" lon="6.977724926546216">
        <ele>1962.6700000000001</ele>
        <time>2013-09-01T13:39:39Z</time>
      </trkpt>
      <trkpt lat="45.808287626132369" lon="6.977568855509162">
        <ele>1959.3</ele>
        <time>2013-09-01T13:39:50Z</time>
      </trkpt>
      <trkpt lat="45.808190060779452" lon="6.977526862174273">
        <ele>1955.9400000000001</ele>
        <time>2013-09-01T13:40:01Z</time>
      </trkpt>
      <trkpt lat="45.808077827095985" lon="6.977431224659085">
        <ele>1954.98</ele>
        <time>2013-09-01T13:40:12Z</time>
      </trkpt>
      <trkpt lat="45.80792460590601" lon="6.977330138906837">
        <ele>1953.0599999999999</ele>
        <time>2013-09-01T13:40:25Z</time>
      </trkpt>
      <trkpt lat="45.80783081240952" lon="6.977344388142228">
        <ele>1951.1300000000001</ele>
        <time>2013-09-01T13:40:33Z</time>
      </trkpt>
      <trkpt lat="45.807795943692327" lon="6.977541781961918">
        <ele>1947.77</ele>
        <time>2013-09-01T13:40:46Z</time>
      </trkpt>
      <trkpt lat="45.807791836559772" lon="6.977629289031029">
        <ele>1946.3299999999999</ele>
        <time>2013-09-01T13:40:52Z</time>
      </trkpt>
      <trkpt lat="45.807819329202175" lon="6.977711683139205">
        <ele>1945.8499999999999</ele>
        <time>2013-09-01T13:40:57Z</time>
      </trkpt>
      <trkpt lat="45.807880768552423" lon="6.977945454418659">
        <ele>1942</ele>
        <time>2013-09-01T13:41:12Z</time>
      </trkpt>
      <trkpt lat="45.807904405519366" lon="6.977978060021997">
        <ele>1941.52</ele>
        <time>2013-09-01T13:41:15Z</time>
      </trkpt>
      <trkpt lat="45.807882277294993" lon="6.97807009331882">
        <ele>1939.5999999999999</ele>
        <time>2013-09-01T13:41:21Z</time>
      </trkpt>
      <trkpt lat="45.807857969775796" lon="6.978197665885091">
        <ele>1937.1900000000001</ele>
        <time>2013-09-01T13:41:29Z</time>
      </trkpt>
      <trkpt lat="45.807803068310022" lon="6.978271258994937">
        <ele>1936.23</ele>
        <time>2013-09-01T13:41:34Z</time>
      </trkpt>
      <trkpt lat="45.80774431116879" lon="6.978326411917806">
        <ele>1934.3099999999999</ele>
        <time>2013-09-01T13:41:39Z</time>
      </trkpt>
      <trkpt lat="45.807700892910361" lon="6.978426408022642">
        <ele>1932.8699999999999</ele>
        <time>2013-09-01T13:41:46Z</time>
      </trkpt>
      <trkpt lat="45.807627970352769" lon="6.978537552058697">
        <ele>1928.54</ele>
        <time>2013-09-01T13:41:58Z</time>
      </trkpt>
      <trkpt lat="45.807623863220215" lon="6.978523638099432">
        <ele>1928.54</ele>
        <time>2013-09-01T13:41:59Z</time>
      </trkpt>
      <trkpt lat="45.80760944634676" lon="6.97848591953516">
        <ele>1928.0599999999999</ele>
        <time>2013-09-01T13:42:02Z</time>
      </trkpt>
      <trkpt lat="45.807564184069633" lon="6.978257931768894">
        <ele>1924.7</ele>
        <time>2013-09-01T13:42:17Z</time>
      </trkpt>
      <trkpt lat="45.807499727234244" lon="6.97803639806807">
        <ele>1921.3299999999999</ele>
        <time>2013-09-01T13:42:29Z</time>
      </trkpt>
      <trkpt lat="45.807479191571474" lon="6.977941766381264">
        <ele>1919.8900000000001</ele>
        <time>2013-09-01T13:42:34Z</time>
      </trkpt>
      <trkpt lat="45.807465277612209" lon="6.977921817451716">
        <ele>1919.4100000000001</ele>
        <time>2013-09-01T13:42:36Z</time>
      </trkpt>
      <trkpt lat="45.807399479672313" lon="6.977991638705134">
        <ele>1917.01</ele>
        <time>2013-09-01T13:42:46Z</time>
      </trkpt>
      <trkpt lat="45.807371819391847" lon="6.978004882112145">
        <ele>1916.53</ele>
        <time>2013-09-01T13:42:48Z</time>
      </trkpt>
      <trkpt lat="45.807295208796859" lon="6.978123486042023">
        <ele>1913.1600000000001</ele>
        <time>2013-09-01T13:43:01Z</time>
      </trkpt>
      <trkpt lat="45.807296549901366" lon="6.97817025706172">
        <ele>1912.2</ele>
        <time>2013-09-01T13:43:05Z</time>
      </trkpt>
      <trkpt lat="45.807261597365141" lon="6.978321215137839">
        <ele>1909.8</ele>
        <time>2013-09-01T13:43:15Z</time>
      </trkpt>
      <trkpt lat="45.807246677577496" lon="6.978308893740177">
        <ele>1909.3199999999999</ele>
        <time>2013-09-01T13:43:17Z</time>
      </trkpt>
      <trkpt lat="45.807220190763474" lon="6.978241922333837">
        <ele>1908.8299999999999</ele>
        <time>2013-09-01T13:43:22Z</time>
      </trkpt>
      <trkpt lat="45.807213904336095" lon="6.978220716118813">
        <ele>1907.3900000000001</ele>
        <time>2013-09-01T13:43:24Z</time>
      </trkpt>
      <trkpt lat="45.807172078639269" lon="6.978017203509808">
        <ele>1904.51</ele>
        <time>2013-09-01T13:43:38Z</time>
      </trkpt>
      <trkpt lat="45.807172413915396" lon="6.978003792464733">
        <ele>1904.51</ele>
        <time>2013-09-01T13:43:39Z</time>
      </trkpt>
      <trkpt lat="45.807143244892359" lon="6.977968253195286">
        <ele>1903.55</ele>
        <time>2013-09-01T13:43:43Z</time>
      </trkpt>
      <trkpt lat="45.80711591988802" lon="6.978015443310142">
        <ele>1901.6300000000001</ele>
        <time>2013-09-01T13:43:49Z</time>
      </trkpt>
      <trkpt lat="45.80705389380455" lon="6.97818148881197">
        <ele>1898.26</ele>
        <time>2013-09-01T13:44:01Z</time>
      </trkpt>
      <trkpt lat="45.807046182453632" lon="6.978449039161205">
        <ele>1895.8599999999999</ele>
        <time>2013-09-01T13:44:18Z</time>
      </trkpt>
      <trkpt lat="45.807062359526753" lon="6.978526990860701">
        <ele>1893.45</ele>
        <time>2013-09-01T13:44:25Z</time>
      </trkpt>
      <trkpt lat="45.807064203545451" lon="6.978580299764872">
        <ele>1892.49</ele>
        <time>2013-09-01T13:44:29Z</time>
      </trkpt>
      <trkpt lat="45.806982647627592" lon="6.978591112419963">
        <ele>1888.6500000000001</ele>
        <time>2013-09-01T13:44:40Z</time>
      </trkpt>
      <trkpt lat="45.807007122784853" lon="6.978656323626638">
        <ele>1887.6900000000001</ele>
        <time>2013-09-01T13:44:45Z</time>
      </trkpt>
      <trkpt lat="45.807011732831597" lon="6.978692365810275">
        <ele>1887.21</ele>
        <time>2013-09-01T13:44:48Z</time>
      </trkpt>
      <trkpt lat="45.807056156918406" lon="6.978793870657682">
        <ele>1885.28</ele>
        <time>2013-09-01T13:44:57Z</time>
      </trkpt>
      <trkpt lat="45.807061940431595" lon="6.978842401877046">
        <ele>1884.3199999999999</ele>
        <time>2013-09-01T13:45:01Z</time>
      </trkpt>
      <trkpt lat="45.806957250460982" lon="6.97881868109107">
        <ele>1882.4000000000001</ele>
        <time>2013-09-01T13:45:11Z</time>
      </trkpt>
      <trkpt lat="45.8069390617311" lon="6.978777442127466">
        <ele>1880</ele>
        <time>2013-09-01T13:45:23Z</time>
      </trkpt>
      <trkpt lat="45.806949455291033" lon="6.978804431855679">
        <ele>1879.51</ele>
        <time>2013-09-01T13:45:25Z</time>
      </trkpt>
      <trkpt lat="45.806952305138111" lon="6.978836031630635">
        <ele>1879.03</ele>
        <time>2013-09-01T13:45:27Z</time>
      </trkpt>
      <trkpt lat="45.806953059509397" lon="6.978980535641313">
        <ele>1875.6700000000001</ele>
        <time>2013-09-01T13:45:38Z</time>
      </trkpt>
      <trkpt lat="45.806994885206223" lon="6.979117831215262">
        <ele>1872.3</ele>
        <time>2013-09-01T13:45:50Z</time>
      </trkpt>
      <trkpt lat="45.807030843570828" lon="6.979289492592216">
        <ele>1869.4200000000001</ele>
        <time>2013-09-01T13:46:02Z</time>
      </trkpt>
      <trkpt lat="45.807039393112063" lon="6.979501135647297">
        <ele>1866.0599999999999</ele>
        <time>2013-09-01T13:46:16Z</time>
      </trkpt>
      <trkpt lat="45.807053055614233" lon="6.979545895010233">
        <ele>1865.0899999999999</ele>
        <time>2013-09-01T13:46:19Z</time>
      </trkpt>
      <trkpt lat="45.807040734216571" lon="6.979704229161143">
        <ele>1861.73</ele>
        <time>2013-09-01T13:46:32Z</time>
      </trkpt>
      <trkpt lat="45.807059342041612" lon="6.979840435087681">
        <ele>1858.3699999999999</ele>
        <time>2013-09-01T13:46:41Z</time>
      </trkpt>
      <trkpt lat="45.807063952088356" lon="6.979956859722734">
        <ele>1855.48</ele>
        <time>2013-09-01T13:46:50Z</time>
      </trkpt>
      <trkpt lat="45.806988012045622" lon="6.979978149756789">
        <ele>1853.0799999999999</ele>
        <time>2013-09-01T13:47:02Z</time>
      </trkpt>
      <trkpt lat="45.80701868981123" lon="6.980127599090338">
        <ele>1849.71</ele>
        <time>2013-09-01T13:47:14Z</time>
      </trkpt>
      <trkpt lat="45.807027658447623" lon="6.980171520262957">
        <ele>1849.23</ele>
        <time>2013-09-01T13:47:18Z</time>
      </trkpt>
      <trkpt lat="45.807029586285353" lon="6.980192139744759">
        <ele>1847.79</ele>
        <time>2013-09-01T13:47:20Z</time>
      </trkpt>
      <trkpt lat="45.807000752538443" lon="6.980232624337077">
        <ele>1847.3099999999999</ele>
        <time>2013-09-01T13:47:24Z</time>
      </trkpt>
      <trkpt lat="45.806984826922417" lon="6.980285178869963">
        <ele>1845.3900000000001</ele>
        <time>2013-09-01T13:47:28Z</time>
      </trkpt>
      <trkpt lat="45.806921543553472" lon="6.980227595195174">
        <ele>1843.95</ele>
        <time>2013-09-01T13:47:39Z</time>
      </trkpt>
      <trkpt lat="45.80690729431808" lon="6.980275623500347">
        <ele>1841.54</ele>
        <time>2013-09-01T13:47:48Z</time>
      </trkpt>
      <trkpt lat="45.806904193013906" lon="6.980347624048591">
        <ele>1840.0999999999999</ele>
        <time>2013-09-01T13:47:54Z</time>
      </trkpt>
      <trkpt lat="45.806992119178176" lon="6.980620622634888">
        <ele>1837.22</ele>
        <time>2013-09-01T13:48:13Z</time>
      </trkpt>
      <trkpt lat="45.807003350928426" lon="6.980734784156084">
        <ele>1836.26</ele>
        <time>2013-09-01T13:48:20Z</time>
      </trkpt>
      <trkpt lat="45.806983485817909" lon="6.98081323876977">
        <ele>1834.8099999999999</ele>
        <time>2013-09-01T13:48:34Z</time>
      </trkpt>
      <trkpt lat="45.806975858286023" lon="6.980794295668602">
        <ele>1834.8099999999999</ele>
        <time>2013-09-01T13:48:54Z</time>
      </trkpt>
      <trkpt lat="45.806997232139111" lon="6.980800163000822">
        <ele>1834.3299999999999</ele>
        <time>2013-09-01T13:49:08Z</time>
      </trkpt>
      <trkpt lat="45.807037549093366" lon="6.980887921527028">
        <ele>1832.8900000000001</ele>
        <time>2013-09-01T13:49:15Z</time>
      </trkpt>
      <trkpt lat="45.807117512449622" lon="6.981063019484282">
        <ele>1830.01</ele>
        <time>2013-09-01T13:49:30Z</time>
      </trkpt>
      <trkpt lat="45.807135114446282" lon="6.981167793273926">
        <ele>1826.6400000000001</ele>
        <time>2013-09-01T13:49:40Z</time>
      </trkpt>
      <trkpt lat="45.807125559076667" lon="6.98120903223753">
        <ele>1825.2</ele>
        <time>2013-09-01T13:49:44Z</time>
      </trkpt>
      <trkpt lat="45.807123212143779" lon="6.981297377496958">
        <ele>1822.3199999999999</ele>
        <time>2013-09-01T13:49:54Z</time>
      </trkpt>
      <trkpt lat="45.807122709229589" lon="6.981420591473579">
        <ele>1819.4300000000001</ele>
        <time>2013-09-01T13:50:05Z</time>
      </trkpt>
      <trkpt lat="45.807140143588185" lon="6.981557970866561">
        <ele>1816.0699999999999</ele>
        <time>2013-09-01T13:50:16Z</time>
      </trkpt>
      <trkpt lat="45.807150034233928" lon="6.981676323339343">
        <ele>1814.1500000000001</ele>
        <time>2013-09-01T13:50:26Z</time>
      </trkpt>
      <trkpt lat="45.807140311226249" lon="6.981763243675232">
        <ele>1812.22</ele>
        <time>2013-09-01T13:50:33Z</time>
      </trkpt>
      <trkpt lat="45.807157829403877" lon="6.981839099898934">
        <ele>1810.78</ele>
        <time>2013-09-01T13:50:39Z</time>
      </trkpt>
      <trkpt lat="45.807160595431924" lon="6.981863658875227">
        <ele>1810.3</ele>
        <time>2013-09-01T13:50:41Z</time>
      </trkpt>
      <trkpt lat="45.807120613753796" lon="6.981911268085241">
        <ele>1808.8599999999999</ele>
        <time>2013-09-01T13:50:47Z</time>
      </trkpt>
      <trkpt lat="45.807084068655968" lon="6.981861814856529">
        <ele>1807.9000000000001</ele>
        <time>2013-09-01T13:50:53Z</time>
      </trkpt>
      <trkpt lat="45.807062275707722" lon="6.981943119317293">
        <ele>1805.01</ele>
        <time>2013-09-01T13:51:04Z</time>
      </trkpt>
      <trkpt lat="45.807065377011895" lon="6.982072032988071">
        <ele>1801.6500000000001</ele>
        <time>2013-09-01T13:51:17Z</time>
      </trkpt>
      <trkpt lat="45.807091696187854" lon="6.982231289148331">
        <ele>1798.28</ele>
        <time>2013-09-01T13:51:30Z</time>
      </trkpt>
      <trkpt lat="45.807044170796871" lon="6.98227227665484">
        <ele>1796.3599999999999</ele>
        <time>2013-09-01T13:51:41Z</time>
      </trkpt>
      <trkpt lat="45.807066634297371" lon="6.982326088473201">
        <ele>1794.4400000000001</ele>
        <time>2013-09-01T13:51:46Z</time>
      </trkpt>
      <trkpt lat="45.806989101693034" lon="6.982373194769025">
        <ele>1791.0699999999999</ele>
        <time>2013-09-01T13:51:58Z</time>
      </trkpt>
      <trkpt lat="45.806941827759147" lon="6.98233975097537">
        <ele>1789.1500000000001</ele>
        <time>2013-09-01T13:52:03Z</time>
      </trkpt>
      <trkpt lat="45.806827247142792" lon="6.98226154781878">
        <ele>1785.79</ele>
        <time>2013-09-01T13:52:19Z</time>
      </trkpt>
      <trkpt lat="45.806782068684697" lon="6.982203293591738">
        <ele>1784.3399999999999</ele>
        <time>2013-09-01T13:52:25Z</time>
      </trkpt>
      <trkpt lat="45.806746277958155" lon="6.982183596119285">
        <ele>1782.9000000000001</ele>
        <time>2013-09-01T13:52:28Z</time>
      </trkpt>
      <trkpt lat="45.806671008467674" lon="6.982161635532975">
        <ele>1780.02</ele>
        <time>2013-09-01T13:52:39Z</time>
      </trkpt>
      <trkpt lat="45.806672684848309" lon="6.982232630252838">
        <ele>1776.6500000000001</ele>
        <time>2013-09-01T13:52:47Z</time>
      </trkpt>
      <trkpt lat="45.806673271581531" lon="6.982257105410099">
        <ele>1775.6900000000001</ele>
        <time>2013-09-01T13:52:50Z</time>
      </trkpt>
      <trkpt lat="45.806671595200896" lon="6.982275797054172">
        <ele>1775.21</ele>
        <time>2013-09-01T13:52:51Z</time>
      </trkpt>
      <trkpt lat="45.806654077023268" lon="6.982286022976041">
        <ele>1775.6900000000001</ele>
        <time>2013-09-01T13:52:52Z</time>
      </trkpt>
      <trkpt lat="45.806511919945478" lon="6.982167921960354">
        <ele>1771.8499999999999</ele>
        <time>2013-09-01T13:53:06Z</time>
      </trkpt>
      <trkpt lat="45.806432040408254" lon="6.982062645256519">
        <ele>1768.96</ele>
        <time>2013-09-01T13:53:16Z</time>
      </trkpt>
      <trkpt lat="45.806358614936471" lon="6.981947897002101">
        <ele>1765.5999999999999</ele>
        <time>2013-09-01T13:53:26Z</time>
      </trkpt>
      <trkpt lat="45.806273370981216" lon="6.981894001364708">
        <ele>1762.71</ele>
        <time>2013-09-01T13:53:39Z</time>
      </trkpt>
      <trkpt lat="45.806302204728127" lon="6.981988633051515">
        <ele>1759.8299999999999</ele>
        <time>2013-09-01T13:53:49Z</time>
      </trkpt>
      <trkpt lat="45.806285943835974" lon="6.982054682448506">
        <ele>1757.9100000000001</ele>
        <time>2013-09-01T13:53:54Z</time>
      </trkpt>
      <trkpt lat="45.806250404566526" lon="6.982144620269537">
        <ele>1754.54</ele>
        <time>2013-09-01T13:54:02Z</time>
      </trkpt>
      <trkpt lat="45.806210339069366" lon="6.982245454564691">
        <ele>1751.1800000000001</ele>
        <time>2013-09-01T13:54:13Z</time>
      </trkpt>
      <trkpt lat="45.806207992136478" lon="6.982265571132302">
        <ele>1750.7</ele>
        <time>2013-09-01T13:54:15Z</time>
      </trkpt>
      <trkpt lat="45.806206483393908" lon="6.982309576123953">
        <ele>1750.22</ele>
        <time>2013-09-01T13:54:18Z</time>
      </trkpt>
      <trkpt lat="45.80624177120626" lon="6.982428431510925">
        <ele>1747.3299999999999</ele>
        <time>2013-09-01T13:54:29Z</time>
      </trkpt>
      <trkpt lat="45.806292649358511" lon="6.982481991872191">
        <ele>1744.9300000000001</ele>
        <time>2013-09-01T13:54:37Z</time>
      </trkpt>
      <trkpt lat="45.806346293538809" lon="6.98268081061542">
        <ele>1743.01</ele>
        <time>2013-09-01T13:54:52Z</time>
      </trkpt>
      <trkpt lat="45.806621219962835" lon="6.983035616576672">
        <ele>1742.05</ele>
        <time>2013-09-01T13:55:04Z</time>
      </trkpt>
      <trkpt lat="45.806733872741461" lon="6.983239883556962">
        <ele>1739.6400000000001</ele>
        <time>2013-09-01T13:55:18Z</time>
      </trkpt>
      <trkpt lat="45.806790115311742" lon="6.983346249908209">
        <ele>1738.6800000000001</ele>
        <time>2013-09-01T13:55:25Z</time>
      </trkpt>
      <trkpt lat="45.806782823055983" lon="6.983533166348934">
        <ele>1735.3199999999999</ele>
        <time>2013-09-01T13:55:39Z</time>
      </trkpt>
      <trkpt lat="45.806731525808573" lon="6.983556970953941">
        <ele>1732.4300000000001</ele>
        <time>2013-09-01T13:55:52Z</time>
      </trkpt>
      <trkpt lat="45.806695818901062" lon="6.983453957363963">
        <ele>1730.03</ele>
        <time>2013-09-01T13:56:01Z</time>
      </trkpt>
      <trkpt lat="45.806639743968844" lon="6.983410706743598">
        <ele>1728.5899999999999</ele>
        <time>2013-09-01T13:56:06Z</time>
      </trkpt>
      <trkpt lat="45.806576041504741" lon="6.983362343162298">
        <ele>1726.1800000000001</ele>
        <time>2013-09-01T13:56:18Z</time>
      </trkpt>
      <trkpt lat="45.806585596874356" lon="6.983529981225729">
        <ele>1722.8199999999999</ele>
        <time>2013-09-01T13:56:33Z</time>
      </trkpt>
      <trkpt lat="45.806612921878695" lon="6.983624026179314">
        <ele>1720.9000000000001</ele>
        <time>2013-09-01T13:56:42Z</time>
      </trkpt>
      <trkpt lat="45.806575203314424" lon="6.983703235164285">
        <ele>1718.97</ele>
        <time>2013-09-01T13:56:49Z</time>
      </trkpt>
      <trkpt lat="45.806512925773859" lon="6.983628049492836">
        <ele>1715.6099999999999</ele>
        <time>2013-09-01T13:57:00Z</time>
      </trkpt>
      <trkpt lat="45.80643966794014" lon="6.983593264594674">
        <ele>1712.73</ele>
        <time>2013-09-01T13:57:13Z</time>
      </trkpt>
      <trkpt lat="45.806447714567184" lon="6.983622936531901">
        <ele>1712.25</ele>
        <time>2013-09-01T13:57:22Z</time>
      </trkpt>
      <trkpt lat="45.806484930217266" lon="6.98382368311286">
        <ele>1709.3599999999999</ele>
        <time>2013-09-01T13:57:36Z</time>
      </trkpt>
      <trkpt lat="45.806501107290387" lon="6.98399618268013">
        <ele>1706.48</ele>
        <time>2013-09-01T13:57:47Z</time>
      </trkpt>
      <trkpt lat="45.806432040408254" lon="6.984104560688138">
        <ele>1703.5899999999999</ele>
        <time>2013-09-01T13:57:59Z</time>
      </trkpt>
      <trkpt lat="45.8063571061939" lon="6.984074218198657">
        <ele>1700.23</ele>
        <time>2013-09-01T13:58:10Z</time>
      </trkpt>
      <trkpt lat="45.806302791461349" lon="6.984036499634385">
        <ele>1698.3099999999999</ele>
        <time>2013-09-01T13:58:18Z</time>
      </trkpt>
      <trkpt lat="45.80623347312212" lon="6.983982268720865">
        <ele>1696.3800000000001</ele>
        <time>2013-09-01T13:58:27Z</time>
      </trkpt>
      <trkpt lat="45.806143870577216" lon="6.983856875449419">
        <ele>1693.02</ele>
        <time>2013-09-01T13:58:40Z</time>
      </trkpt>
      <trkpt lat="45.806076731532812" lon="6.983737768605351">
        <ele>1690.1400000000001</ele>
        <time>2013-09-01T13:58:50Z</time>
      </trkpt>
      <trkpt lat="45.806047562509775" lon="6.983740283176303">
        <ele>1689.1700000000001</ele>
        <time>2013-09-01T13:58:53Z</time>
      </trkpt>
      <trkpt lat="45.806001042947173" lon="6.983879925683141">
        <ele>1685.3299999999999</ele>
        <time>2013-09-01T13:59:07Z</time>
      </trkpt>
      <trkpt lat="45.805989224463701" lon="6.983958883211017">
        <ele>1683.8900000000001</ele>
        <time>2013-09-01T13:59:13Z</time>
      </trkpt>
      <trkpt lat="45.805975813418627" lon="6.984046138823032">
        <ele>1681.96</ele>
        <time>2013-09-01T13:59:19Z</time>
      </trkpt>
      <trkpt lat="45.8059495780617" lon="6.984227607026696">
        <ele>1679.5599999999999</ele>
        <time>2013-09-01T13:59:31Z</time>
      </trkpt>
      <trkpt lat="45.805897358804941" lon="6.984353503212333">
        <ele>1676.2</ele>
        <time>2013-09-01T13:59:41Z</time>
      </trkpt>
      <trkpt lat="45.805888809263706" lon="6.984457019716501">
        <ele>1674.27</ele>
        <time>2013-09-01T13:59:50Z</time>
      </trkpt>
      <trkpt lat="45.805895095691085" lon="6.984668243676424">
        <ele>1670.9100000000001</ele>
        <time>2013-09-01T14:00:03Z</time>
      </trkpt>
      <trkpt lat="45.805883025750518" lon="6.984714176505804">
        <ele>1669.95</ele>
        <time>2013-09-01T14:00:06Z</time>
      </trkpt>
      <trkpt lat="45.805857125669718" lon="6.98481853120029">
        <ele>1667.54</ele>
        <time>2013-09-01T14:00:20Z</time>
      </trkpt>
      <trkpt lat="45.805848073214293" lon="6.984823727980256">
        <ele>1666.5799999999999</ele>
        <time>2013-09-01T14:00:42Z</time>
      </trkpt>
      <trkpt lat="45.805890234187245" lon="6.984849041327834">
        <ele>1666.5799999999999</ele>
        <time>2013-09-01T14:01:02Z</time>
      </trkpt>
      <trkpt lat="45.805813791230321" lon="6.984815262258053">
        <ele>1666.0999999999999</ele>
        <time>2013-09-01T14:01:19Z</time>
      </trkpt>
      <trkpt lat="45.805800715461373" lon="6.984756337478757">
        <ele>1665.6199999999999</ele>
        <time>2013-09-01T14:01:31Z</time>
      </trkpt>
      <trkpt lat="45.805854192003608" lon="6.984766479581595">
        <ele>1665.6199999999999</ele>
        <time>2013-09-01T14:01:48Z</time>
      </trkpt>
      <trkpt lat="45.80584991723299" lon="6.984771927818656">
        <ele>1665.6199999999999</ele>
        <time>2013-09-01T14:02:04Z</time>
      </trkpt>
      <trkpt lat="45.805850336328149" lon="6.98475256562233">
        <ele>1666.0999999999999</ele>
        <time>2013-09-01T14:02:23Z</time>
      </trkpt>
      <trkpt lat="45.805862657725811" lon="6.984804449602962">
        <ele>1667.0599999999999</ele>
        <time>2013-09-01T14:02:36Z</time>
      </trkpt>
      <trkpt lat="45.805847654119134" lon="6.984822219237685">
        <ele>1667.0599999999999</ele>
        <time>2013-09-01T14:02:53Z</time>
      </trkpt>
      <trkpt lat="45.805769450962543" lon="6.984720965847373">
        <ele>1663.22</ele>
        <time>2013-09-01T14:03:05Z</time>
      </trkpt>
      <trkpt lat="45.805723099038005" lon="6.984645528718829">
        <ele>1660.8099999999999</ele>
        <time>2013-09-01T14:03:13Z</time>
      </trkpt>
      <trkpt lat="45.805700467899442" lon="6.984677715227008">
        <ele>1657.9300000000001</ele>
        <time>2013-09-01T14:03:25Z</time>
      </trkpt>
      <trkpt lat="45.805686889216304" lon="6.984720043838024">
        <ele>1656.49</ele>
        <time>2013-09-01T14:03:29Z</time>
      </trkpt>
      <trkpt lat="45.805607177317142" lon="6.98468173854053">
        <ele>1653.1199999999999</ele>
        <time>2013-09-01T14:03:40Z</time>
      </trkpt>
      <trkpt lat="45.805583707988262" lon="6.98465189896524">
        <ele>1652.1600000000001</ele>
        <time>2013-09-01T14:03:44Z</time>
      </trkpt>
      <trkpt lat="45.805517574772239" lon="6.984537150710821">
        <ele>1648.3199999999999</ele>
        <time>2013-09-01T14:03:55Z</time>
      </trkpt>
      <trkpt lat="45.805497877299786" lon="6.984506892040372">
        <ele>1647.8399999999999</ele>
        <time>2013-09-01T14:03:58Z</time>
      </trkpt>
      <trkpt lat="45.80545119009912" lon="6.984398262575269">
        <ele>1644.47</ele>
        <time>2013-09-01T14:04:08Z</time>
      </trkpt>
      <trkpt lat="45.805444065481424" lon="6.984385941177607">
        <ele>1644.47</ele>
        <time>2013-09-01T14:04:09Z</time>
      </trkpt>
      <trkpt lat="45.805433671921492" lon="6.98433380573988">
        <ele>1643.51</ele>
        <time>2013-09-01T14:04:12Z</time>
      </trkpt>
      <trkpt lat="45.805397294461727" lon="6.984238084405661">
        <ele>1641.1099999999999</ele>
        <time>2013-09-01T14:04:19Z</time>
      </trkpt>
      <trkpt lat="45.805268213152885" lon="6.984046474099159">
        <ele>1637.74</ele>
        <time>2013-09-01T14:04:33Z</time>
      </trkpt>
      <trkpt lat="45.805190009996295" lon="6.983900042250752">
        <ele>1634.8599999999999</ele>
        <time>2013-09-01T14:04:45Z</time>
      </trkpt>
      <trkpt lat="45.805132929235697" lon="6.983796190470457">
        <ele>1632.46</ele>
        <time>2013-09-01T14:04:53Z</time>
      </trkpt>
      <trkpt lat="45.80512186512351" lon="6.983736511319876">
        <ele>1631.01</ele>
        <time>2013-09-01T14:04:57Z</time>
      </trkpt>
      <trkpt lat="45.805086828768253" lon="6.983695356175304">
        <ele>1629.0899999999999</ele>
        <time>2013-09-01T14:05:01Z</time>
      </trkpt>
      <trkpt lat="45.805071741342545" lon="6.983693260699511">
        <ele>1628.1300000000001</ele>
        <time>2013-09-01T14:05:05Z</time>
      </trkpt>
      <trkpt lat="45.80508372746408" lon="6.983708431944251">
        <ele>1627.6500000000001</ele>
        <time>2013-09-01T14:05:07Z</time>
      </trkpt>
      <trkpt lat="45.805080123245716" lon="6.983905658125877">
        <ele>1624.28</ele>
        <time>2013-09-01T14:05:20Z</time>
      </trkpt>
      <trkpt lat="45.805057408288121" lon="6.983985370025039">
        <ele>1622.8399999999999</ele>
        <time>2013-09-01T14:05:26Z</time>
      </trkpt>
      <trkpt lat="45.804985659196973" lon="6.984122665598989">
        <ele>1619</ele>
        <time>2013-09-01T14:05:39Z</time>
      </trkpt>
      <trkpt lat="45.804939977824688" lon="6.984268259257078">
        <ele>1616.1099999999999</ele>
        <time>2013-09-01T14:05:52Z</time>
      </trkpt>
      <trkpt lat="45.804935535416007" lon="6.984309246763587">
        <ele>1615.1500000000001</ele>
        <time>2013-09-01T14:05:56Z</time>
      </trkpt>
      <trkpt lat="45.804898319765925" lon="6.984418546780944">
        <ele>1611.79</ele>
        <time>2013-09-01T14:06:06Z</time>
      </trkpt>
      <trkpt lat="45.804858421906829" lon="6.984562212601304">
        <ele>1608.9000000000001</ele>
        <time>2013-09-01T14:06:16Z</time>
      </trkpt>
      <trkpt lat="45.804841658100486" lon="6.984585430473089">
        <ele>1608.9000000000001</ele>
        <time>2013-09-01T14:06:18Z</time>
      </trkpt>
      <trkpt lat="45.804878873750567" lon="6.984702106565237">
        <ele>1606.5</ele>
        <time>2013-09-01T14:06:26Z</time>
      </trkpt>
      <trkpt lat="45.804849537089467" lon="6.984847784042358">
        <ele>1603.1400000000001</ele>
        <time>2013-09-01T14:06:37Z</time>
      </trkpt>
      <trkpt lat="45.804786002263427" lon="6.98497979901731">
        <ele>1599.77</ele>
        <time>2013-09-01T14:06:48Z</time>
      </trkpt>
      <trkpt lat="45.804756917059422" lon="6.985115082934499">
        <ele>1597.3699999999999</ele>
        <time>2013-09-01T14:06:59Z</time>
      </trkpt>
      <trkpt lat="45.804781392216682" lon="6.98516353033483">
        <ele>1596.4100000000001</ele>
        <time>2013-09-01T14:07:03Z</time>
      </trkpt>
      <trkpt lat="45.804807879030704" lon="6.985326977446675">
        <ele>1593.04</ele>
        <time>2013-09-01T14:07:14Z</time>
      </trkpt>
      <trkpt lat="45.804790109395981" lon="6.985401576384902">
        <ele>1591.1199999999999</ele>
        <time>2013-09-01T14:07:20Z</time>
      </trkpt>
      <trkpt lat="45.804795138537884" lon="6.985576925799251">
        <ele>1588.24</ele>
        <time>2013-09-01T14:07:33Z</time>
      </trkpt>
      <trkpt lat="45.80484677106142" lon="6.985763171687722">
        <ele>1584.3900000000001</ele>
        <time>2013-09-01T14:07:46Z</time>
      </trkpt>
      <trkpt lat="45.804852806031704" lon="6.985788904130459">
        <ele>1584.3900000000001</ele>
        <time>2013-09-01T14:07:48Z</time>
      </trkpt>
      <trkpt lat="45.804885411635041" lon="6.985839949920774">
        <ele>1582.95</ele>
        <time>2013-09-01T14:07:53Z</time>
      </trkpt>
      <trkpt lat="45.804899325594306" lon="6.985908346250653">
        <ele>1581.51</ele>
        <time>2013-09-01T14:07:58Z</time>
      </trkpt>
      <trkpt lat="45.804907707497478" lon="6.986065590754151">
        <ele>1579.0999999999999</ele>
        <time>2013-09-01T14:08:08Z</time>
      </trkpt>
      <trkpt lat="45.804901588708162" lon="6.986116552725434">
        <ele>1578.1400000000001</ele>
        <time>2013-09-01T14:08:11Z</time>
      </trkpt>
      <trkpt lat="45.804871832951903" lon="6.986330458894372">
        <ele>1574.78</ele>
        <time>2013-09-01T14:08:25Z</time>
      </trkpt>
      <trkpt lat="45.804825983941555" lon="6.986401285976172">
        <ele>1573.8199999999999</ele>
        <time>2013-09-01T14:08:38Z</time>
      </trkpt>
      <trkpt lat="45.804806537926197" lon="6.986523997038603">
        <ele>1571.4100000000001</ele>
        <time>2013-09-01T14:08:53Z</time>
      </trkpt>
      <trkpt lat="45.804762952029705" lon="6.986552160233259">
        <ele>1569.49</ele>
        <time>2013-09-01T14:09:05Z</time>
      </trkpt>
      <trkpt lat="45.804732609540224" lon="6.986575461924076">
        <ele>1568.53</ele>
        <time>2013-09-01T14:09:09Z</time>
      </trkpt>
      <trkpt lat="45.80464250408113" lon="6.986465323716402">
        <ele>1564.6800000000001</ele>
        <time>2013-09-01T14:09:22Z</time>
      </trkpt>
      <trkpt lat="45.804590871557593" lon="6.986356861889362">
        <ele>1561.8</ele>
        <time>2013-09-01T14:09:32Z</time>
      </trkpt>
      <trkpt lat="45.804554997012019" lon="6.986345965415239">
        <ele>1560.3599999999999</ele>
        <time>2013-09-01T14:09:37Z</time>
      </trkpt>
      <trkpt lat="45.804494898766279" lon="6.986311264336109">
        <ele>1557.47</ele>
        <time>2013-09-01T14:09:43Z</time>
      </trkpt>
      <trkpt lat="45.804458018392324" lon="6.986267007887363">
        <ele>1555.55</ele>
        <time>2013-09-01T14:09:50Z</time>
      </trkpt>
      <trkpt lat="45.804441422224045" lon="6.986295841634274">
        <ele>1554.5899999999999</ele>
        <time>2013-09-01T14:10:04Z</time>
      </trkpt>
      <trkpt lat="45.804442930966616" lon="6.986332638189197">
        <ele>1553.6300000000001</ele>
        <time>2013-09-01T14:10:07Z</time>
      </trkpt>
      <trkpt lat="45.804456928744912" lon="6.986434226855636">
        <ele>1551.71</ele>
        <time>2013-09-01T14:10:13Z</time>
      </trkpt>
      <trkpt lat="45.804434716701508" lon="6.986502707004547">
        <ele>1550.26</ele>
        <time>2013-09-01T14:10:17Z</time>
      </trkpt>
      <trkpt lat="45.804387023672462" lon="6.986522907391191">
        <ele>1549.3</ele>
        <time>2013-09-01T14:10:21Z</time>
      </trkpt>
      <trkpt lat="45.804333630949259" lon="6.986527517437935">
        <ele>1549.3</ele>
        <time>2013-09-01T14:10:25Z</time>
      </trkpt>
      <trkpt lat="45.804291889071465" lon="6.986489715054631">
        <ele>1547.3800000000001</ele>
        <time>2013-09-01T14:10:30Z</time>
      </trkpt>
      <trkpt lat="45.804203292354941" lon="6.986322244629264">
        <ele>1544.01</ele>
        <time>2013-09-01T14:10:44Z</time>
      </trkpt>
      <trkpt lat="45.80418711528182" lon="6.986307157203555">
        <ele>1543.05</ele>
        <time>2013-09-01T14:10:46Z</time>
      </trkpt>
      <trkpt lat="45.804073121398687" lon="6.986250914633274">
        <ele>1539.6900000000001</ele>
        <time>2013-09-01T14:11:00Z</time>
      </trkpt>
      <trkpt lat="45.804022997617722" lon="6.986321490257978">
        <ele>1536.3199999999999</ele>
        <time>2013-09-01T14:11:11Z</time>
      </trkpt>
      <trkpt lat="45.804009502753615" lon="6.986352587118745">
        <ele>1535.8399999999999</ele>
        <time>2013-09-01T14:11:14Z</time>
      </trkpt>
      <trkpt lat="45.803998271003366" lon="6.986369350925088">
        <ele>1535.3599999999999</ele>
        <time>2013-09-01T14:11:16Z</time>
      </trkpt>
      <trkpt lat="45.803974298760295" lon="6.986290225759149">
        <ele>1533.4400000000001</ele>
        <time>2013-09-01T14:11:23Z</time>
      </trkpt>
      <trkpt lat="45.803942196071148" lon="6.986174555495381">
        <ele>1532</ele>
        <time>2013-09-01T14:11:32Z</time>
      </trkpt>
      <trkpt lat="45.803930042311549" lon="6.986114121973515">
        <ele>1532</ele>
        <time>2013-09-01T14:11:36Z</time>
      </trkpt>
      <trkpt lat="45.803885534405708" lon="6.986073050647974">
        <ele>1530.5599999999999</ele>
        <time>2013-09-01T14:11:46Z</time>
      </trkpt>
      <trkpt lat="45.803866423666477" lon="6.986115798354149">
        <ele>1529.1099999999999</ele>
        <time>2013-09-01T14:11:51Z</time>
      </trkpt>
      <trkpt lat="45.803843541070819" lon="6.986216884106398">
        <ele>1526.71</ele>
        <time>2013-09-01T14:12:01Z</time>
      </trkpt>
      <trkpt lat="45.803824262693524" lon="6.986342864111066">
        <ele>1522.8699999999999</ele>
        <time>2013-09-01T14:12:13Z</time>
      </trkpt>
      <trkpt lat="45.803790567442775" lon="6.986358622089028">
        <ele>1521.4200000000001</ele>
        <time>2013-09-01T14:12:19Z</time>
      </trkpt>
      <trkpt lat="45.803723344579339" lon="6.986251752823591">
        <ele>1518.54</ele>
        <time>2013-09-01T14:12:30Z</time>
      </trkpt>
      <trkpt lat="45.803719907999039" lon="6.98622333817184">
        <ele>1518.0599999999999</ele>
        <time>2013-09-01T14:12:32Z</time>
      </trkpt>
      <trkpt lat="45.803699037060142" lon="6.986176231876016">
        <ele>1516.6199999999999</ele>
        <time>2013-09-01T14:12:36Z</time>
      </trkpt>
      <trkpt lat="45.80365251749754" lon="6.986112026497722">
        <ele>1513.73</ele>
        <time>2013-09-01T14:12:45Z</time>
      </trkpt>
      <trkpt lat="45.803577750921249" lon="6.986177656799555">
        <ele>1510.8499999999999</ele>
        <time>2013-09-01T14:12:57Z</time>
      </trkpt>
      <trkpt lat="45.80356945283711" lon="6.986185451969504">
        <ele>1510.3699999999999</ele>
        <time>2013-09-01T14:12:58Z</time>
      </trkpt>
      <trkpt lat="45.803490662947297" lon="6.986242029815912">
        <ele>1508.45</ele>
        <time>2013-09-01T14:13:06Z</time>
      </trkpt>
      <trkpt lat="45.803394271060824" lon="6.986418217420578">
        <ele>1505.0799999999999</ele>
        <time>2013-09-01T14:13:21Z</time>
      </trkpt>
      <trkpt lat="45.803293939679861" lon="6.986505137756467">
        <ele>1503.1600000000001</ele>
        <time>2013-09-01T14:13:30Z</time>
      </trkpt>
      <trkpt lat="45.803230237215757" lon="6.986597925424576">
        <ele>1502.6800000000001</ele>
        <time>2013-09-01T14:13:38Z</time>
      </trkpt>
      <trkpt lat="45.803217245265841" lon="6.986603373661637">
        <ele>1502.2</ele>
        <time>2013-09-01T14:13:39Z</time>
      </trkpt>
      <trkpt lat="45.803136695176363" lon="6.986672189086676">
        <ele>1500.76</ele>
        <time>2013-09-01T14:13:49Z</time>
      </trkpt>
      <trkpt lat="45.803107526153326" lon="6.986818956211209">
        <ele>1498.3499999999999</ele>
        <time>2013-09-01T14:14:03Z</time>
      </trkpt>
      <trkpt lat="45.803109621629119" lon="6.986833205446601">
        <ele>1497.8699999999999</ele>
        <time>2013-09-01T14:14:04Z</time>
      </trkpt>
      <trkpt lat="45.803106101229787" lon="6.986924987286329">
        <ele>1495.95</ele>
        <time>2013-09-01T14:14:14Z</time>
      </trkpt>
      <trkpt lat="45.803042985498905" lon="6.986874025315046">
        <ele>1495.47</ele>
        <time>2013-09-01T14:14:20Z</time>
      </trkpt>
      <trkpt lat="45.802990514785051" lon="6.986780483275652">
        <ele>1494.51</ele>
        <time>2013-09-01T14:14:34Z</time>
      </trkpt>
      <trkpt lat="45.802992442622781" lon="6.986739244312048">
        <ele>1494.51</ele>
        <time>2013-09-01T14:14:53Z</time>
      </trkpt>
      <trkpt lat="45.802981881424785" lon="6.986724492162466">
        <ele>1493.55</ele>
        <time>2013-09-01T14:15:17Z</time>
      </trkpt>
      <trkpt lat="45.802983306348324" lon="6.986649725586176">
        <ele>1494.03</ele>
        <time>2013-09-01T14:15:41Z</time>
      </trkpt>
      <trkpt lat="45.803004512563348" lon="6.986653748899698">
        <ele>1494.51</ele>
        <time>2013-09-01T14:15:51Z</time>
      </trkpt>
      <trkpt lat="45.802977858111262" lon="6.986706051975489">
        <ele>1494.03</ele>
        <time>2013-09-01T14:16:14Z</time>
      </trkpt>
      <trkpt lat="45.803003087639809" lon="6.986730191856623">
        <ele>1494.03</ele>
        <time>2013-09-01T14:16:30Z</time>
      </trkpt>
      <trkpt lat="45.803014067932963" lon="6.986728264018893">
        <ele>1494.03</ele>
        <time>2013-09-01T14:16:50Z</time>
      </trkpt>
      <trkpt lat="45.803001997992396" lon="6.986679481342435">
        <ele>1493.55</ele>
        <time>2013-09-01T14:17:09Z</time>
      </trkpt>
      <trkpt lat="45.802977858111262" lon="6.986723067238927">
        <ele>1493.55</ele>
        <time>2013-09-01T14:17:22Z</time>
      </trkpt>
      <trkpt lat="45.802994035184383" lon="6.986790206283331">
        <ele>1493.0599999999999</ele>
        <time>2013-09-01T14:17:48Z</time>
      </trkpt>
      <trkpt lat="45.803003003820777" lon="6.986768916249275">
        <ele>1493.55</ele>
        <time>2013-09-01T14:18:07Z</time>
      </trkpt>
      <trkpt lat="45.803001914173365" lon="6.986764976754785">
        <ele>1492.5799999999999</ele>
        <time>2013-09-01T14:18:30Z</time>
      </trkpt>
      <trkpt lat="45.802995627745986" lon="6.986722815781832">
        <ele>1492.5799999999999</ele>
        <time>2013-09-01T14:18:44Z</time>
      </trkpt>
      <trkpt lat="45.802995879203081" lon="6.986730610951781">
        <ele>1493.0599999999999</ele>
        <time>2013-09-01T14:19:06Z</time>
      </trkpt>
      <trkpt lat="45.802996046841145" lon="6.986749637871981">
        <ele>1492.5799999999999</ele>
        <time>2013-09-01T14:19:23Z</time>
      </trkpt>
      <trkpt lat="45.803000573068857" lon="6.986734298989177">
        <ele>1492.5799999999999</ele>
        <time>2013-09-01T14:19:45Z</time>
      </trkpt>
      <trkpt lat="45.803003003820777" lon="6.986760031431913">
        <ele>1491.6199999999999</ele>
        <time>2013-09-01T14:20:04Z</time>
      </trkpt>
      <trkpt lat="45.803010882809758" lon="6.986789871007204">
        <ele>1491.6199999999999</ele>
        <time>2013-09-01T14:20:28Z</time>
      </trkpt>
      <trkpt lat="45.803019097074866" lon="6.986764473840594">
        <ele>1491.1400000000001</ele>
        <time>2013-09-01T14:20:47Z</time>
      </trkpt>
      <trkpt lat="45.802991604432464" lon="6.986724827438593">
        <ele>1491.1400000000001</ele>
        <time>2013-09-01T14:21:08Z</time>
      </trkpt>
      <trkpt lat="45.803000992164016" lon="6.986702531576157">
        <ele>1491.1400000000001</ele>
        <time>2013-09-01T14:21:31Z</time>
      </trkpt>
      <trkpt lat="45.80301197245717" lon="6.986716026440263">
        <ele>1490.6600000000001</ele>
        <time>2013-09-01T14:21:51Z</time>
      </trkpt>
      <trkpt lat="45.803001327440143" lon="6.986694652587175">
        <ele>1490.6600000000001</ele>
        <time>2013-09-01T14:22:12Z</time>
      </trkpt>
      <trkpt lat="45.802997555583715" lon="6.986720133572817">
        <ele>1490.6600000000001</ele>
        <time>2013-09-01T14:22:34Z</time>
      </trkpt>
      <trkpt lat="45.803002417087555" lon="6.986740501597524">
        <ele>1490.6600000000001</ele>
        <time>2013-09-01T14:22:52Z</time>
      </trkpt>
      <trkpt lat="45.803026556968689" lon="6.986778555437923">
        <ele>1490.6600000000001</ele>
        <time>2013-09-01T14:23:16Z</time>
      </trkpt>
      <trkpt lat="45.803017672151327" lon="6.98675156570971">
        <ele>1491.1400000000001</ele>
        <time>2013-09-01T14:23:33Z</time>
      </trkpt>
      <trkpt lat="45.803024293854833" lon="6.986737316474319">
        <ele>1491.1400000000001</ele>
        <time>2013-09-01T14:23:44Z</time>
      </trkpt>
      <trkpt lat="45.803015157580376" lon="6.986750476062298">
        <ele>1490.6600000000001</ele>
        <time>2013-09-01T14:23:59Z</time>
      </trkpt>
      <trkpt lat="45.803021024912596" lon="6.986711164936423">
        <ele>1490.6600000000001</ele>
        <time>2013-09-01T14:24:12Z</time>
      </trkpt>
      <trkpt lat="45.803039213642478" lon="6.986717535182834">
        <ele>1490.6600000000001</ele>
        <time>2013-09-01T14:24:29Z</time>
      </trkpt>
      <trkpt lat="45.803034603595734" lon="6.986720049753785">
        <ele>1490.1800000000001</ele>
        <time>2013-09-01T14:24:45Z</time>
      </trkpt>
      <trkpt lat="45.803036699071527" lon="6.986729186028242">
        <ele>1490.1800000000001</ele>
        <time>2013-09-01T14:25:08Z</time>
      </trkpt>
      <trkpt lat="45.80301926471293" lon="6.986726587638259">
        <ele>1490.1800000000001</ele>
        <time>2013-09-01T14:25:19Z</time>
      </trkpt>
      <trkpt lat="45.803030664101243" lon="6.986714014783502">
        <ele>1490.1800000000001</ele>
        <time>2013-09-01T14:25:33Z</time>
      </trkpt>
      <trkpt lat="45.803024880588055" lon="6.986710829660296">
        <ele>1490.1800000000001</ele>
        <time>2013-09-01T14:25:56Z</time>
      </trkpt>
      <trkpt lat="45.80301633104682" lon="6.98673396371305">
        <ele>1490.1800000000001</ele>
        <time>2013-09-01T14:26:18Z</time>
      </trkpt>
      <trkpt lat="45.803040387108922" lon="6.986761037260294">
        <ele>1490.1800000000001</ele>
        <time>2013-09-01T14:26:30Z</time>
      </trkpt>
      <trkpt lat="45.803050277754664" lon="6.986775789409876">
        <ele>1490.6600000000001</ele>
        <time>2013-09-01T14:26:47Z</time>
      </trkpt>
      <trkpt lat="45.803038543090224" lon="6.986739914864302">
        <ele>1490.6600000000001</ele>
        <time>2013-09-01T14:27:07Z</time>
      </trkpt>
      <trkpt lat="45.803018594160676" lon="6.986748799681664">
        <ele>1490.1800000000001</ele>
        <time>2013-09-01T14:27:24Z</time>
      </trkpt>
      <trkpt lat="45.802999567240477" lon="6.986782494932413">
        <ele>1489.7</ele>
        <time>2013-09-01T14:27:49Z</time>
      </trkpt>
      <trkpt lat="45.802994286641479" lon="6.986729521304369">
        <ele>1489.7</ele>
        <time>2013-09-01T14:28:09Z</time>
      </trkpt>
      <trkpt lat="45.802997555583715" lon="6.986654167994857">
        <ele>1489.22</ele>
        <time>2013-09-01T14:28:33Z</time>
      </trkpt>
      <trkpt lat="45.802995795384049" lon="6.986625082790852">
        <ele>1488.74</ele>
        <time>2013-09-01T14:28:35Z</time>
      </trkpt>
      <trkpt lat="45.802980288863182" lon="6.986387288197875">
        <ele>1486.8199999999999</ele>
        <time>2013-09-01T14:28:51Z</time>
      </trkpt>
      <trkpt lat="45.802978696301579" lon="6.98635820299387">
        <ele>1486.8199999999999</ele>
        <time>2013-09-01T14:29:10Z</time>
      </trkpt>
      <trkpt lat="45.802959250286222" lon="6.986331380903721">
        <ele>1486.8199999999999</ele>
        <time>2013-09-01T14:29:25Z</time>
      </trkpt>
      <trkpt lat="45.802976684644818" lon="6.986327357590199">
        <ele>1485.8499999999999</ele>
        <time>2013-09-01T14:29:41Z</time>
      </trkpt>
      <trkpt lat="45.802949527278543" lon="6.986312940716744">
        <ele>1483.9300000000001</ele>
        <time>2013-09-01T14:29:53Z</time>
      </trkpt>
      <trkpt lat="45.802921783179045" lon="6.986240856349468">
        <ele>1481.53</ele>
        <time>2013-09-01T14:30:00Z</time>
      </trkpt>
      <trkpt lat="45.802908875048161" lon="6.986174639314413">
        <ele>1480.0899999999999</ele>
        <time>2013-09-01T14:30:04Z</time>
      </trkpt>
      <trkpt lat="45.80294206738472" lon="6.985973389819264">
        <ele>1477.6800000000001</ele>
        <time>2013-09-01T14:30:15Z</time>
      </trkpt>
      <trkpt lat="45.802950114011765" lon="6.985944472253323">
        <ele>1476.72</ele>
        <time>2013-09-01T14:30:17Z</time>
      </trkpt>
      <trkpt lat="45.802956148982048" lon="6.985921505838633">
        <ele>1476.24</ele>
        <time>2013-09-01T14:30:19Z</time>
      </trkpt>
      <trkpt lat="45.802945168688893" lon="6.985900886356831">
        <ele>1476.24</ele>
        <time>2013-09-01T14:30:21Z</time>
      </trkpt>
      <trkpt lat="45.802968135103583" lon="6.98569611646235">
        <ele>1472.4000000000001</ele>
        <time>2013-09-01T14:30:33Z</time>
      </trkpt>
      <trkpt lat="45.80293376930058" lon="6.985649513080716">
        <ele>1472.4000000000001</ele>
        <time>2013-09-01T14:30:37Z</time>
      </trkpt>
      <trkpt lat="45.802891943603754" lon="6.98561598546803">
        <ele>1471.4400000000001</ele>
        <time>2013-09-01T14:30:41Z</time>
      </trkpt>
      <trkpt lat="45.802742829546332" lon="6.985529819503427">
        <ele>1469.03</ele>
        <time>2013-09-01T14:30:57Z</time>
      </trkpt>
      <trkpt lat="45.802676444873214" lon="6.985748670995235">
        <ele>1465.6700000000001</ele>
        <time>2013-09-01T14:31:13Z</time>
      </trkpt>
      <trkpt lat="45.802643168717623" lon="6.985964002087712">
        <ele>1462.78</ele>
        <time>2013-09-01T14:31:28Z</time>
      </trkpt>
      <trkpt lat="45.802629087120295" lon="6.986018316820264">
        <ele>1461.8199999999999</ele>
        <time>2013-09-01T14:31:35Z</time>
      </trkpt>
      <trkpt lat="45.80259463749826" lon="6.986024770885706">
        <ele>1460.8599999999999</ele>
        <time>2013-09-01T14:31:38Z</time>
      </trkpt>
      <trkpt lat="45.802527666091919" lon="6.985969450324774">
        <ele>1459.4200000000001</ele>
        <time>2013-09-01T14:31:44Z</time>
      </trkpt>
      <trkpt lat="45.802470166236162" lon="6.985841961577535">
        <ele>1455.5699999999999</ele>
        <time>2013-09-01T14:31:54Z</time>
      </trkpt>
      <trkpt lat="45.802380060777068" lon="6.98568245396018">
        <ele>1453.1700000000001</ele>
        <time>2013-09-01T14:32:05Z</time>
      </trkpt>
      <trkpt lat="45.802354076877236" lon="6.98545228689909">
        <ele>1450.29</ele>
        <time>2013-09-01T14:32:17Z</time>
      </trkpt>
      <trkpt lat="45.802285512909293" lon="6.985314572229981">
        <ele>1448.8399999999999</ele>
        <time>2013-09-01T14:32:27Z</time>
      </trkpt>
      <trkpt lat="45.802248883992434" lon="6.985261682420969">
        <ele>1447.4000000000001</ele>
        <time>2013-09-01T14:32:31Z</time>
      </trkpt>
      <trkpt lat="45.802166406065226" lon="6.98510535992682">
        <ele>1443.5599999999999</ele>
        <time>2013-09-01T14:32:41Z</time>
      </trkpt>
      <trkpt lat="45.802122317254543" lon="6.98494560085237">
        <ele>1440.6700000000001</ele>
        <time>2013-09-01T14:32:49Z</time>
      </trkpt>
      <trkpt lat="45.802096584811807" lon="6.984783578664064">
        <ele>1437.3099999999999</ele>
        <time>2013-09-01T14:33:00Z</time>
      </trkpt>
      <trkpt lat="45.802043862640858" lon="6.984573109075427">
        <ele>1434.4200000000001</ele>
        <time>2013-09-01T14:33:12Z</time>
      </trkpt>
      <trkpt lat="45.802018884569407" lon="6.984382588416338">
        <ele>1431.0599999999999</ele>
        <time>2013-09-01T14:33:24Z</time>
      </trkpt>
      <trkpt lat="45.801954260095954" lon="6.984335985034704">
        <ele>1429.6199999999999</ele>
        <time>2013-09-01T14:33:36Z</time>
      </trkpt>
      <trkpt lat="45.801936071366072" lon="6.984317880123854">
        <ele>1428.6600000000001</ele>
        <time>2013-09-01T14:33:48Z</time>
      </trkpt>
      <trkpt lat="45.801928611472249" lon="6.984310671687126">
        <ele>1429.1400000000001</ele>
        <time>2013-09-01T14:33:49Z</time>
      </trkpt>
      <trkpt lat="45.801889970898628" lon="6.984214782714844">
        <ele>1425.77</ele>
        <time>2013-09-01T14:33:58Z</time>
      </trkpt>
      <trkpt lat="45.801868597045541" lon="6.984198438003659">
        <ele>1424.8099999999999</ele>
        <time>2013-09-01T14:34:00Z</time>
      </trkpt>
      <trkpt lat="45.801831716671586" lon="6.984128281474114">
        <ele>1423.3699999999999</ele>
        <time>2013-09-01T14:34:05Z</time>
      </trkpt>
      <trkpt lat="45.801802631467581" lon="6.984076984226704">
        <ele>1421.9300000000001</ele>
        <time>2013-09-01T14:34:09Z</time>
      </trkpt>
      <trkpt lat="45.801682434976101" lon="6.984075475484133">
        <ele>1420</ele>
        <time>2013-09-01T14:34:24Z</time>
      </trkpt>
      <trkpt lat="45.801598029211164" lon="6.98410565033555">
        <ele>1418.5599999999999</ele>
        <time>2013-09-01T14:34:35Z</time>
      </trkpt>
      <trkpt lat="45.80149820074439" lon="6.984266247600317">
        <ele>1416.1600000000001</ele>
        <time>2013-09-01T14:34:51Z</time>
      </trkpt>
      <trkpt lat="45.801483197137713" lon="6.984535222873092">
        <ele>1413.28</ele>
        <time>2013-09-01T14:35:09Z</time>
      </trkpt>
      <trkpt lat="45.801458638161421" lon="6.984576964750886">
        <ele>1413.28</ele>
        <time>2013-09-01T14:35:12Z</time>
      </trkpt>
      <trkpt lat="45.801314888522029" lon="6.984670758247376">
        <ele>1411.3499999999999</ele>
        <time>2013-09-01T14:35:26Z</time>
      </trkpt>
      <trkpt lat="45.801226207986474" lon="6.984603786841035">
        <ele>1410.3900000000001</ele>
        <time>2013-09-01T14:35:36Z</time>
      </trkpt>
      <trkpt lat="45.80110483802855" lon="6.984462467953563">
        <ele>1407.51</ele>
        <time>2013-09-01T14:35:51Z</time>
      </trkpt>
      <trkpt lat="45.801053792238235" lon="6.984290638938546">
        <ele>1405.0999999999999</ele>
        <time>2013-09-01T14:36:02Z</time>
      </trkpt>
      <trkpt lat="45.801043314859271" lon="6.984259961172938">
        <ele>1404.6199999999999</ele>
        <time>2013-09-01T14:36:04Z</time>
      </trkpt>
      <trkpt lat="45.800998471677303" lon="6.984037924557924">
        <ele>1401.74</ele>
        <time>2013-09-01T14:36:19Z</time>
      </trkpt>
      <trkpt lat="45.800981875509024" lon="6.983997188508511">
        <ele>1401.74</ele>
        <time>2013-09-01T14:36:22Z</time>
      </trkpt>
      <trkpt lat="45.800962848588824" lon="6.983891827985644">
        <ele>1399.8199999999999</ele>
        <time>2013-09-01T14:36:29Z</time>
      </trkpt>
      <trkpt lat="45.800940217450261" lon="6.983829215168953">
        <ele>1398.8599999999999</ele>
        <time>2013-09-01T14:36:34Z</time>
      </trkpt>
      <trkpt lat="45.800937032327056" lon="6.983800632879138">
        <ele>1398.3699999999999</ele>
        <time>2013-09-01T14:36:36Z</time>
      </trkpt>
      <trkpt lat="45.800868384540081" lon="6.983586307615042">
        <ele>1395.97</ele>
        <time>2013-09-01T14:36:53Z</time>
      </trkpt>
      <trkpt lat="45.800819518044591" lon="6.983446246013045">
        <ele>1394.53</ele>
        <time>2013-09-01T14:37:02Z</time>
      </trkpt>
      <trkpt lat="45.800814740359783" lon="6.983390841633081">
        <ele>1394.05</ele>
        <time>2013-09-01T14:37:05Z</time>
      </trkpt>
      <trkpt lat="45.800780626013875" lon="6.983226221054792">
        <ele>1392.1300000000001</ele>
        <time>2013-09-01T14:37:15Z</time>
      </trkpt>
      <trkpt lat="45.800784397870302" lon="6.982912821695209">
        <ele>1389.72</ele>
        <time>2013-09-01T14:37:33Z</time>
      </trkpt>
      <trkpt lat="45.800787834450603" lon="6.98277804069221">
        <ele>1388.76</ele>
        <time>2013-09-01T14:37:40Z</time>
      </trkpt>
      <trkpt lat="45.800819434225559" lon="6.982601266354322">
        <ele>1387.8</ele>
        <time>2013-09-01T14:37:50Z</time>
      </trkpt>
      <trkpt lat="45.800921861082315" lon="6.982380487024784">
        <ele>1386.8399999999999</ele>
        <time>2013-09-01T14:38:06Z</time>
      </trkpt>
      <trkpt lat="45.801001656800508" lon="6.982188625261188">
        <ele>1385.4000000000001</ele>
        <time>2013-09-01T14:38:20Z</time>
      </trkpt>
      <trkpt lat="45.80105647444725" lon="6.982053928077221">
        <ele>1383.96</ele>
        <time>2013-09-01T14:38:29Z</time>
      </trkpt>
      <trkpt lat="45.80105647444725" lon="6.981998942792416">
        <ele>1383.96</ele>
        <time>2013-09-01T14:38:32Z</time>
      </trkpt>
      <trkpt lat="45.801090504974127" lon="6.981702474877238">
        <ele>1381.55</ele>
        <time>2013-09-01T14:38:50Z</time>
      </trkpt>
      <trkpt lat="45.801047757267952" lon="6.981467278674245">
        <ele>1378.1900000000001</ele>
        <time>2013-09-01T14:39:05Z</time>
      </trkpt>
      <trkpt lat="45.800994448363781" lon="6.981199225410819">
        <ele>1375.78</ele>
        <time>2013-09-01T14:39:22Z</time>
      </trkpt>
      <trkpt lat="45.800955891609192" lon="6.981081794947386">
        <ele>1374.3399999999999</ele>
        <time>2013-09-01T14:39:29Z</time>
      </trkpt>
      <trkpt lat="45.80095773562789" lon="6.980998646467924">
        <ele>1373.3800000000001</ele>
        <time>2013-09-01T14:39:33Z</time>
      </trkpt>
      <trkpt lat="45.800962429493666" lon="6.980878952890635">
        <ele>1372.4200000000001</ele>
        <time>2013-09-01T14:39:40Z</time>
      </trkpt>
      <trkpt lat="45.800980115309358" lon="6.980799827724695">
        <ele>1371.9400000000001</ele>
        <time>2013-09-01T14:39:44Z</time>
      </trkpt>
      <trkpt lat="45.80090057104826" lon="6.980586424469948">
        <ele>1369.05</ele>
        <time>2013-09-01T14:40:00Z</time>
      </trkpt>
      <trkpt lat="45.800774255767465" lon="6.980460779741406">
        <ele>1367.6099999999999</ele>
        <time>2013-09-01T14:40:14Z</time>
      </trkpt>
      <trkpt lat="45.800617849454284" lon="6.980291213840246">
        <ele>1365.21</ele>
        <time>2013-09-01T14:40:31Z</time>
      </trkpt>
      <trkpt lat="45.800486588850617" lon="6.980096669867635">
        <ele>1362.3299999999999</ele>
        <time>2013-09-01T14:40:46Z</time>
      </trkpt>
      <trkpt lat="45.800349293276668" lon="6.979965576902032">
        <ele>1359.4400000000001</ele>
        <time>2013-09-01T14:41:00Z</time>
      </trkpt>
      <trkpt lat="45.800187354907393" lon="6.979796681553125">
        <ele>1357.04</ele>
        <time>2013-09-01T14:41:17Z</time>
      </trkpt>
      <trkpt lat="45.800108648836613" lon="6.979670450091362">
        <ele>1355.1199999999999</ele>
        <time>2013-09-01T14:41:27Z</time>
      </trkpt>
      <trkpt lat="45.799965150654316" lon="6.979438774287701">
        <ele>1352.71</ele>
        <time>2013-09-01T14:41:44Z</time>
      </trkpt>
      <trkpt lat="45.799821820110083" lon="6.979229226708412">
        <ele>1349.8299999999999</ele>
        <time>2013-09-01T14:42:02Z</time>
      </trkpt>
      <trkpt lat="45.799753591418266" lon="6.979050105437636">
        <ele>1348.3900000000001</ele>
        <time>2013-09-01T14:42:17Z</time>
      </trkpt>
      <trkpt lat="45.799641776829958" lon="6.978862853720784">
        <ele>1345.5</ele>
        <time>2013-09-01T14:42:33Z</time>
      </trkpt>
      <trkpt lat="45.799499033018947" lon="6.97876738384366">
        <ele>1343.5799999999999</ele>
        <time>2013-09-01T14:42:46Z</time>
      </trkpt>
      <trkpt lat="45.799447819590569" lon="6.978579880669713">
        <ele>1341.6600000000001</ele>
        <time>2013-09-01T14:42:58Z</time>
      </trkpt>
      <trkpt lat="45.79940976575017" lon="6.978516178205609">
        <ele>1341.1800000000001</ele>
        <time>2013-09-01T14:43:03Z</time>
      </trkpt>
      <trkpt lat="45.799359558150172" lon="6.978412410244346">
        <ele>1339.73</ele>
        <time>2013-09-01T14:43:11Z</time>
      </trkpt>
      <trkpt lat="45.799325862899423" lon="6.978359688073397">
        <ele>1338.77</ele>
        <time>2013-09-01T14:43:16Z</time>
      </trkpt>
      <trkpt lat="45.799284791573882" lon="6.978278132155538">
        <ele>1337.3299999999999</ele>
        <time>2013-09-01T14:43:29Z</time>
      </trkpt>
      <trkpt lat="45.799301974475384" lon="6.978240916505456">
        <ele>1337.3299999999999</ele>
        <time>2013-09-01T14:43:45Z</time>
      </trkpt>
      <trkpt lat="45.799301723018289" lon="6.978235216811299">
        <ele>1336.8499999999999</ele>
        <time>2013-09-01T14:44:01Z</time>
      </trkpt>
      <trkpt lat="45.799280181527138" lon="6.978242928162217">
        <ele>1337.3299999999999</ele>
        <time>2013-09-01T14:44:09Z</time>
      </trkpt>
      <trkpt lat="45.799252521246672" lon="6.978194229304791">
        <ele>1336.8499999999999</ele>
        <time>2013-09-01T14:44:19Z</time>
      </trkpt>
      <trkpt lat="45.799200721085072" lon="6.978165311738849">
        <ele>1335.4100000000001</ele>
        <time>2013-09-01T14:44:36Z</time>
      </trkpt>
      <trkpt lat="45.79914883710444" lon="6.978208059445024">
        <ele>1335.4100000000001</ele>
        <time>2013-09-01T14:45:05Z</time>
      </trkpt>
      <trkpt lat="45.799074489623308" lon="6.977995242923498">
        <ele>1334.45</ele>
        <time>2013-09-01T14:45:19Z</time>
      </trkpt>
      <trkpt lat="45.798995364457369" lon="6.977903544902802">
        <ele>1333.49</ele>
        <time>2013-09-01T14:45:29Z</time>
      </trkpt>
      <trkpt lat="45.79895387403667" lon="6.977857444435358">
        <ele>1332.04</ele>
        <time>2013-09-01T14:45:34Z</time>
      </trkpt>
      <trkpt lat="45.798935769125819" lon="6.977814193814993">
        <ele>1332.04</ele>
        <time>2013-09-01T14:45:37Z</time>
      </trkpt>
      <trkpt lat="45.798803167417645" lon="6.977692823857069">
        <ele>1329.6400000000001</ele>
        <time>2013-09-01T14:45:52Z</time>
      </trkpt>
      <trkpt lat="45.798665704205632" lon="6.977540608495474">
        <ele>1326.76</ele>
        <time>2013-09-01T14:46:08Z</time>
      </trkpt>
      <trkpt lat="45.798543663695455" lon="6.97739576920867">
        <ele>1324.8299999999999</ele>
        <time>2013-09-01T14:46:23Z</time>
      </trkpt>
      <trkpt lat="45.798458587378263" lon="6.977280350401998">
        <ele>1323.3900000000001</ele>
        <time>2013-09-01T14:46:33Z</time>
      </trkpt>
      <trkpt lat="45.79840418882668" lon="6.977225281298161">
        <ele>1322.4300000000001</ele>
        <time>2013-09-01T14:46:39Z</time>
      </trkpt>
      <trkpt lat="45.798319280147552" lon="6.977133080363274">
        <ele>1320.99</ele>
        <time>2013-09-01T14:46:48Z</time>
      </trkpt>
      <trkpt lat="45.79819112084806" lon="6.976977344602346">
        <ele>1319.0699999999999</ele>
        <time>2013-09-01T14:47:03Z</time>
      </trkpt>
      <trkpt lat="45.798074193298817" lon="6.976802330464125">
        <ele>1317.1400000000001</ele>
        <time>2013-09-01T14:47:17Z</time>
      </trkpt>
      <trkpt lat="45.797979226335883" lon="6.976624466478825">
        <ele>1314.26</ele>
        <time>2013-09-01T14:47:30Z</time>
      </trkpt>
      <trkpt lat="45.797883085906506" lon="6.9764219596982">
        <ele>1312.3399999999999</ele>
        <time>2013-09-01T14:47:45Z</time>
      </trkpt>
      <trkpt lat="45.797774456441402" lon="6.976253399625421">
        <ele>1310.4100000000001</ele>
        <time>2013-09-01T14:47:59Z</time>
      </trkpt>
      <trkpt lat="45.797643614932895" lon="6.976045276969671">
        <ele>1308.97</ele>
        <time>2013-09-01T14:48:14Z</time>
      </trkpt>
      <trkpt lat="45.797482850030065" lon="6.975809410214424">
        <ele>1305.6099999999999</ele>
        <time>2013-09-01T14:48:33Z</time>
      </trkpt>
      <trkpt lat="45.797309009358287" lon="6.975681250914931">
        <ele>1303.2</ele>
        <time>2013-09-01T14:48:52Z</time>
      </trkpt>
      <trkpt lat="45.797094767913222" lon="6.975565915927291">
        <ele>1300.8</ele>
        <time>2013-09-01T14:49:09Z</time>
      </trkpt>
      <trkpt lat="45.796958226710558" lon="6.975504476577044">
        <ele>1299.3599999999999</ele>
        <time>2013-09-01T14:49:23Z</time>
      </trkpt>
      <trkpt lat="45.796917825937271" lon="6.975510511547327">
        <ele>1298.4000000000001</ele>
        <time>2013-09-01T14:49:27Z</time>
      </trkpt>
      <trkpt lat="45.796747002750635" lon="6.975363912060857">
        <ele>1296.48</ele>
        <time>2013-09-01T14:49:42Z</time>
      </trkpt>
      <trkpt lat="45.796685479581356" lon="6.975307669490576">
        <ele>1295.51</ele>
        <time>2013-09-01T14:49:49Z</time>
      </trkpt>
      <trkpt lat="45.79668715596199" lon="6.975245140492916">
        <ele>1295.51</ele>
        <time>2013-09-01T14:49:53Z</time>
      </trkpt>
      <trkpt lat="45.796725545078516" lon="6.975167272612453">
        <ele>1295.03</ele>
        <time>2013-09-01T14:50:07Z</time>
      </trkpt>
      <trkpt lat="45.79673258587718" lon="6.975164087489247">
        <ele>1291.1900000000001</ele>
        <time>2013-09-01T14:50:12Z</time>
      </trkpt>
      <trkpt lat="45.796736693009734" lon="6.975152855738998">
        <ele>1293.5899999999999</ele>
        <time>2013-09-01T14:50:13Z</time>
      </trkpt>
      <trkpt lat="45.796747757121921" lon="6.975134834647179">
        <ele>1297.9200000000001</ele>
        <time>2013-09-01T14:50:15Z</time>
      </trkpt>
      <trkpt lat="45.796751864254475" lon="6.975124189630151">
        <ele>1292.6300000000001</ele>
        <time>2013-09-01T14:50:16Z</time>
      </trkpt>
      <trkpt lat="45.796758150681853" lon="6.975118322297931">
        <ele>1293.5899999999999</ele>
        <time>2013-09-01T14:50:17Z</time>
      </trkpt>
      <trkpt lat="45.796772819012403" lon="6.975091500207782">
        <ele>1298.4000000000001</ele>
        <time>2013-09-01T14:50:20Z</time>
      </trkpt>
      <trkpt lat="45.796776507049799" lon="6.975082699209452">
        <ele>1298.4000000000001</ele>
        <time>2013-09-01T14:50:21Z</time>
      </trkpt>
      <trkpt lat="45.796779692173004" lon="6.975072557106614">
        <ele>1292.6300000000001</ele>
        <time>2013-09-01T14:50:22Z</time>
      </trkpt>
      <trkpt lat="45.796782458201051" lon="6.975066103041172">
        <ele>1298.4000000000001</ele>
        <time>2013-09-01T14:50:23Z</time>
      </trkpt>
      <trkpt lat="45.796784805133939" lon="6.975054452195764">
        <ele>1295.03</ele>
        <time>2013-09-01T14:50:25Z</time>
      </trkpt>
    </trkseg>
  </trk>

</gpx>